Darstellungsparameter: Aktuell verwendete Einstellungen:
Skalierung der Graphiken ... ?
xyx+y,   Skalierungsfaktor:      Skalierung: Modus: x, Faktor: 1
Darstellungszeitraum ... ?
Vom - - bis: - -   Zeitraum: 29.03.2020 - 26.04.2020
Min/Max/Avg-Anzeige ... ?
Zeige MMA aktuell
Zeige MMA Monat
Zeige MMA alles
Zeige --A aktuell
Zeige --A Monat
Zeige --A alles
Keine MMA-Anzeige
MMA:
Average (ber die Originaldaten)
MMA-Basis: 29.03.2020 - 26.04.2020
Quicknavigation für Darstellung... ?
Tage:      1T, 2T, 3T, 5T -1T -2T -3T -5T +1T +2T +3T +5T
Wochen: 1W, 2W, 3W -1W -2W -3W +1W +2W +3W
Monate: 1M, 3M, 6M -1M -3M -6M +1M +3M +6M
Jahre:    1J, 3J, 5J, 10J -1J -3J -5J -10J +1J +3J +5J +10J
Nutze für die Darstellung ... ?
Originaldaten oder Mittelwerte auf ...
Stundenbasis Tagesbasis Wochenbasis
Monatsbasis Jahresbasis      Datenbasis: Original-Daten
Darstellen als:
Statistik (Auto) Statistik J:M      Darstellung:
Zur Graphik,    zurück zur Übersicht aller Sensoren.
 
Tabellarische Datenbersicht: ?
 
Sensor: Nr:Datum:Temp:Feuchte:
Aussen-T/F 1 29-03-2020 00:00:18 6.5 C 33 %
2 29-03-2020 00:10:18 6.4 C 33 %
3 29-03-2020 00:20:17 6.2 C 33 %
4 29-03-2020 00:30:17 6.5 C 33 %
5 29-03-2020 00:40:17 6.6 C 33 %
6 29-03-2020 00:50:18 6.5 C 32 %
7 29-03-2020 01:00:18 6.3 C 32 %
8 29-03-2020 01:10:18 6.3 C 32 %
9 29-03-2020 01:20:17 6.2 C 32 %
10 29-03-2020 01:30:17 6.1 C 32 %
11 29-03-2020 01:40:17 6 C 31 %
12 29-03-2020 01:50:17 6 C 31 %
13 29-03-2020 02:00:17 5.8 C 31 %
14 29-03-2020 02:10:17 5.7 C 31 %
15 29-03-2020 02:20:18 5.4 C 31 %
16 29-03-2020 02:30:18 5 C 31 %
17 29-03-2020 02:40:18 4.7 C 32 %
18 29-03-2020 02:50:18 4.7 C 32 %
19 29-03-2020 04:00:18 4.6 C 31 %
20 29-03-2020 04:10:18 4.2 C 32 %
21 29-03-2020 04:20:17 4.1 C 31 %
22 29-03-2020 04:30:17 4.3 C 31 %
23 29-03-2020 04:40:17 4.4 C 31 %
24 29-03-2020 04:50:18 4.3 C 31 %
25 29-03-2020 05:00:17 4.4 C 32 %
Sensor: Nr:Datum:Temp:Feuchte:
Aussen-T/F 26 29-03-2020 05:10:17 4.3 C 32 %
27 29-03-2020 05:20:17 4.2 C 31 %
28 29-03-2020 05:30:17 4 C 31 %
29 29-03-2020 05:40:17 3.8 C 32 %
30 29-03-2020 05:50:18 3.5 C 32 %
31 29-03-2020 06:00:18 3.1 C 32 %
32 29-03-2020 06:10:18 2.8 C 33 %
33 29-03-2020 06:20:17 2.5 C 33 %
34 29-03-2020 06:30:18 2.9 C 33 %
35 29-03-2020 06:40:18 3.2 C 32 %
36 29-03-2020 06:50:17 3.3 C 33 %
37 29-03-2020 07:00:18 3.4 C 33 %
38 29-03-2020 07:10:18 3.5 C 34 %
39 29-03-2020 07:20:17 3.5 C 35 %
40 29-03-2020 07:30:17 3.6 C 35 %
41 29-03-2020 07:40:17 3.7 C 35 %
42 29-03-2020 07:50:17 3.7 C 35 %
43 29-03-2020 08:00:18 3.8 C 35 %
44 29-03-2020 08:10:18 3.8 C 35 %
45 29-03-2020 08:20:17 4.1 C 33 %
46 29-03-2020 08:30:17 4.1 C 33 %
47 29-03-2020 08:40:17 4.3 C 33 %
48 29-03-2020 08:50:17 4 C 33 %
49 29-03-2020 09:00:17 4.3 C 33 %
50 29-03-2020 09:10:17 4.2 C 32 %
Sensor: Nr:Datum:Temp:Feuchte:
Aussen-T/F 51 29-03-2020 09:20:17 4.1 C 33 %
52 29-03-2020 09:30:17 4.2 C 33 %
53 29-03-2020 09:40:17 4.5 C 32 %
54 29-03-2020 09:50:17 4.8 C 32 %
55 29-03-2020 10:00:17 5 C 31 %
56 29-03-2020 10:10:17 5.3 C 31 %
57 29-03-2020 10:20:17 5.8 C 30 %
58 29-03-2020 10:30:18 5.6 C 30 %
59 29-03-2020 10:40:18 6.2 C 30 %
60 29-03-2020 10:50:17 6.2 C 28 %
61 29-03-2020 11:00:18 6.5 C 25 %
62 29-03-2020 11:10:18 6.5 C 25 %
63 29-03-2020 11:20:18 6 C 25 %
64 29-03-2020 11:30:18 6.1 C 25 %
65 29-03-2020 11:40:18 6.2 C 25 %
66 29-03-2020 11:50:17 6.3 C 25 %
67 29-03-2020 12:00:17 6.2 C 25 %
68 29-03-2020 12:10:17 5.6 C 27 %
69 29-03-2020 12:20:17 5.5 C 27 %
70 29-03-2020 12:30:17 5.7 C 27 %
71 29-03-2020 12:40:17 5.8 C 26 %
72 29-03-2020 12:50:18 6.4 C 26 %
73 29-03-2020 13:00:18 6.3 C 25 %
74 29-03-2020 13:10:18 6.1 C 25 %
75 29-03-2020 13:20:17 6.6 C 23 %
Sensor: Nr:Datum:Temp:Feuchte:
Aussen-T/F 76 29-03-2020 13:30:17 6.8 C 20 %
77 29-03-2020 13:40:18 8.1 C 20 %
78 29-03-2020 13:50:17 8.4 C 20 %
79 29-03-2020 14:00:18 7.6 C 20 %
80 29-03-2020 14:10:18 7.5 C 20 %
81 29-03-2020 14:20:17 7 C 20 %
82 29-03-2020 14:30:17 6.7 C 20 %
83 29-03-2020 14:40:17 6.5 C 20 %
84 29-03-2020 14:50:17 6.7 C 20 %
85 29-03-2020 15:00:17 7.2 C 20 %
86 29-03-2020 15:10:17 7.4 C 20 %
87 29-03-2020 15:20:17 7.4 C 20 %
88 29-03-2020 15:30:18 7.6 C 20 %
89 29-03-2020 15:40:18 7.6 C 20 %
90 29-03-2020 15:50:17 8 C 20 %
91 29-03-2020 16:00:18 7.4 C 20 %
92 29-03-2020 16:10:18 7 C 20 %
93 29-03-2020 16:20:17 6.7 C 20 %
94 29-03-2020 16:30:18 6.5 C 20 %
95 29-03-2020 16:40:18 6.6 C 20 %
96 29-03-2020 16:50:18 6.8 C 20 %
97 29-03-2020 17:00:18 7 C 20 %
98 29-03-2020 17:10:18 6.8 C 20 %
99 29-03-2020 17:20:17 7.4 C 20 %
100 29-03-2020 17:30:17 7 C 20 %
Sensor: Nr:Datum:Temp:Feuchte:
Aussen-T/F 101 29-03-2020 17:40:17 7 C 20 %
102 29-03-2020 17:50:18 6.8 C 25 %
103 29-03-2020 18:00:18 7.1 C 23 %
104 29-03-2020 18:10:18 6.5 C 25 %
105 29-03-2020 18:20:18 6.2 C 25 %
106 29-03-2020 18:30:18 5.3 C 29 %
107 29-03-2020 18:40:18 4.4 C 35 %
108 29-03-2020 18:50:18 4.1 C 36 %
109 29-03-2020 19:00:18 4 C 36 %
110 29-03-2020 19:10:18 3.6 C 39 %
111 29-03-2020 19:20:17 3.6 C 40 %
112 29-03-2020 19:30:17 3.4 C 40 %
113 29-03-2020 19:40:17 3.2 C 41 %
114 29-03-2020 19:50:17 3.1 C 41 %
115 29-03-2020 20:00:17 3 C 41 %
116 29-03-2020 20:10:17 3 C 41 %
117 29-03-2020 20:20:18 2.9 C 42 %
118 29-03-2020 20:30:18 3 C 41 %
119 29-03-2020 20:40:18 3.3 C 40 %
120 29-03-2020 20:50:18 3.5 C 40 %
121 29-03-2020 21:00:18 3.6 C 39 %
122 29-03-2020 21:10:18 3.7 C 39 %
123 29-03-2020 21:20:18 3.7 C 38 %
124 29-03-2020 21:30:17 3.7 C 37 %
125 29-03-2020 21:40:17 3.8 C 37 %
Sensor: Nr:Datum:Temp:Feuchte:
Aussen-T/F 126 29-03-2020 21:50:17 3.8 C 37 %
127 29-03-2020 22:00:17 3.7 C 37 %
128 29-03-2020 22:10:17 3.7 C 36 %
129 29-03-2020 22:20:18 3.7 C 36 %
130 29-03-2020 22:30:18 3.6 C 36 %
131 29-03-2020 22:40:18 3.6 C 36 %
132 29-03-2020 22:50:18 3.6 C 35 %
133 29-03-2020 23:00:18 3.6 C 35 %
134 29-03-2020 23:10:18 3.5 C 35 %
135 29-03-2020 23:20:17 3.4 C 34 %
136 29-03-2020 23:30:17 3.3 C 33 %
137 29-03-2020 23:40:17 3.1 C 33 %
138 29-03-2020 23:50:17 2.9 C 33 %
139 30-03-2020 00:00:18 2.5 C 34 %
140 30-03-2020 00:10:18 2.4 C 33 %
141 30-03-2020 00:20:17 2.4 C 33 %
142 30-03-2020 00:30:17 1.7 C 35 %
143 30-03-2020 00:40:17 1 C 36 %
144 30-03-2020 00:50:17 0.3 C 38 %
145 30-03-2020 01:00:18 0.2 C 38 %
146 30-03-2020 01:10:18 0.3 C 38 %
147 30-03-2020 01:20:17 0.3 C 37 %
148 30-03-2020 01:30:18 0.5 C 36 %
149 30-03-2020 01:40:18 -0.1 C 37 %
150 30-03-2020 01:50:17 -0.3 C 37 %
Sensor: Nr:Datum:Temp:Feuchte:
Aussen-T/F 151 30-03-2020 02:00:17 -0.8 C 38 %
152 30-03-2020 02:10:17 -0.9 C 38 %
153 30-03-2020 02:20:17 -1.5 C 39 %
154 30-03-2020 02:30:18 -1.7 C 39 %
155 30-03-2020 02:40:18 -1.6 C 40 %
156 30-03-2020 02:50:17 -1.6 C 39 %
157 30-03-2020 03:00:18 -1.7 C 39 %
158 30-03-2020 03:10:18 -1.3 C 38 %
159 30-03-2020 03:20:18 -1.7 C 39 %
160 30-03-2020 03:30:18 -2.2 C 40 %
161 30-03-2020 03:40:18 -2.1 C 40 %
162 30-03-2020 03:50:17 -2.1 C 40 %
163 30-03-2020 04:00:18 -1.9 C 39 %
164 30-03-2020 04:10:18 -2.2 C 39 %
165 30-03-2020 04:20:17 -2 C 39 %
166 30-03-2020 04:30:17 -2.4 C 39 %
167 30-03-2020 04:40:17 -2.6 C 39 %
168 30-03-2020 04:50:17 -2.4 C 39 %
169 30-03-2020 05:00:17 -2.4 C 38 %
170 30-03-2020 05:10:17 -2.5 C 38 %
171 30-03-2020 05:20:17 -2.7 C 38 %
172 30-03-2020 05:30:18 -3 C 39 %
173 30-03-2020 05:40:18 -3 C 38 %
174 30-03-2020 05:50:17 -3 C 38 %
175 30-03-2020 06:00:18 -3 C 38 %
Sensor: Nr:Datum:Temp:Feuchte:
Aussen-T/F 176 30-03-2020 06:10:18 -3.4 C 38 %
177 30-03-2020 06:20:17 -3.7 C 39 %
178 30-03-2020 06:30:17 -3.9 C 40 %
179 30-03-2020 06:40:17 -4.1 C 40 %
180 30-03-2020 06:50:17 -3.3 C 39 %
181 30-03-2020 07:00:17 -3.7 C 40 %
182 30-03-2020 07:10:17 -3.2 C 39 %
183 30-03-2020 07:20:17 -3.8 C 39 %
184 30-03-2020 07:30:18 -4.3 C 40 %
185 30-03-2020 07:40:18 -4.5 C 40 %
186 30-03-2020 07:50:17 -4.5 C 40 %
187 30-03-2020 08:00:18 -3.8 C 40 %
188 30-03-2020 08:10:18 -3.9 C 40 %
189 30-03-2020 08:20:18 -4.1 C 40 %
190 30-03-2020 08:30:18 -3.7 C 39 %
191 30-03-2020 08:40:18 -3.3 C 39 %
192 30-03-2020 08:50:17 -3.2 C 38 %
193 30-03-2020 09:00:18 -3.1 C 38 %
194 30-03-2020 09:10:18 -2.7 C 37 %
195 30-03-2020 09:20:18 -2.6 C 37 %
196 30-03-2020 09:30:18 -2.5 C 37 %
197 30-03-2020 09:40:18 -2.1 C 37 %
198 30-03-2020 09:50:18 -2.1 C 37 %
199 30-03-2020 10:00:18 -1.6 C 36 %
200 30-03-2020 10:10:18 -1.7 C 37 %
Sensor: Nr:Datum:Temp:Feuchte:
Aussen-T/F 201 30-03-2020 10:20:17 -1.5 C 37 %
202 30-03-2020 10:30:17 -1.3 C 36 %
203 30-03-2020 10:40:17 0.1 C 31 %
204 30-03-2020 10:50:17 1 C 21 %
205 30-03-2020 11:00:17 1.1 C 23 %
206 30-03-2020 11:10:18 2 C 20 %
207 30-03-2020 11:20:18 2.4 C 20 %
208 30-03-2020 11:30:18 2.8 C 20 %
209 30-03-2020 11:40:18 2.9 C 20 %
210 30-03-2020 11:50:18 3.2 C 20 %
211 30-03-2020 12:00:18 3.7 C 20 %
212 30-03-2020 12:10:18 4 C 20 %
213 30-03-2020 12:20:18 6.4 C 20 %
214 30-03-2020 12:30:18 7.6 C 20 %
215 30-03-2020 12:40:18 6.3 C 20 %
216 30-03-2020 12:50:18 5.1 C 20 %
217 30-03-2020 13:00:18 6.6 C 20 %
218 30-03-2020 13:10:18 6.5 C 20 %
219 30-03-2020 13:20:18 5.6 C 20 %
220 30-03-2020 13:30:17 5.9 C 20 %
221 30-03-2020 13:40:17 7 C 20 %
222 30-03-2020 13:50:17 6.4 C 20 %
223 30-03-2020 14:00:17 7.1 C 20 %
224 30-03-2020 14:10:17 8.4 C 20 %
225 30-03-2020 14:20:18 8.9 C 20 %
Sensor: Nr:Datum:Temp:Feuchte:
Aussen-T/F 226 30-03-2020 14:30:18 9.5 C 20 %
227 30-03-2020 14:40:18 9.7 C 20 %
228 30-03-2020 14:50:18 10.8 C 20 %
229 30-03-2020 15:00:18 11.3 C 20 %
230 30-03-2020 15:10:18 11.7 C 20 %
231 30-03-2020 15:20:17 11.6 C 20 %
232 30-03-2020 15:30:18 13.5 C 20 %
233 30-03-2020 15:40:18 13.6 C 20 %
234 30-03-2020 15:50:18 11.9 C 20 %
235 30-03-2020 16:00:18 12.9 C 20 %
236 30-03-2020 16:10:18 13.6 C 20 %
237 30-03-2020 16:20:17 15.2 C 20 %
238 30-03-2020 16:30:18 9.9 C 20 %
239 30-03-2020 16:40:18 13.9 C 20 %
240 30-03-2020 16:50:18 13.6 C 20 %
241 30-03-2020 17:00:17 10.1 C 20 %
242 30-03-2020 17:10:17 13.4 C 20 %
243 30-03-2020 17:20:18 12.5 C 20 %
244 30-03-2020 17:30:18 12.6 C 20 %
245 30-03-2020 17:40:18 11.6 C 20 %
246 30-03-2020 17:50:18 10.2 C 20 %
247 30-03-2020 18:00:18 8.7 C 20 %
248 30-03-2020 18:10:18 7.6 C 20 %
249 30-03-2020 18:20:18 7.9 C 20 %
250 30-03-2020 18:30:18 8.2 C 20 %
Sensor: Nr:Datum:Temp:Feuchte:
Aussen-T/F 251 30-03-2020 18:40:18 7.7 C 20 %
252 30-03-2020 18:50:18 7.8 C 20 %
253 30-03-2020 19:00:18 7.3 C 20 %
254 30-03-2020 19:10:18 7.1 C 20 %
255 30-03-2020 19:20:17 6.5 C 20 %
256 30-03-2020 19:30:18 6.3 C 20 %
257 30-03-2020 19:40:18 5.8 C 20 %
258 30-03-2020 19:50:17 5 C 20 %
259 30-03-2020 20:00:18 3.8 C 27 %
260 30-03-2020 20:10:18 3 C 30 %
261 30-03-2020 20:20:17 2.8 C 30 %
262 30-03-2020 20:30:18 3.3 C 31 %
263 30-03-2020 20:40:18 3.2 C 30 %
264 30-03-2020 20:50:18 3.3 C 31 %
265 30-03-2020 21:00:18 4 C 29 %
266 30-03-2020 21:10:18 4.1 C 29 %
267 30-03-2020 21:20:18 4.2 C 30 %
268 30-03-2020 21:30:18 4.3 C 30 %
269 30-03-2020 21:40:18 4.2 C 30 %
270 30-03-2020 21:50:18 4.1 C 30 %
271 30-03-2020 22:00:18 3.7 C 32 %
272 30-03-2020 22:10:18 3.7 C 33 %
273 30-03-2020 22:20:17 3.9 C 32 %
274 30-03-2020 22:30:18 4 C 31 %
275 30-03-2020 22:40:18 4.1 C 31 %
Sensor: Nr:Datum:Temp:Feuchte:
Aussen-T/F 276 30-03-2020 22:50:18 4.2 C 31 %
277 30-03-2020 23:00:18 4.1 C 31 %
278 30-03-2020 23:10:18 4.2 C 30 %
279 30-03-2020 23:20:18 4.2 C 31 %
280 30-03-2020 23:30:18 4.1 C 31 %
281 30-03-2020 23:40:18 4.2 C 31 %
282 30-03-2020 23:50:17 4.2 C 31 %
283 31-03-2020 00:00:18 4.3 C 30 %
284 31-03-2020 00:10:18 4.3 C 30 %
285 31-03-2020 00:20:18 4.2 C 31 %
286 31-03-2020 00:30:18 4.2 C 31 %
287 31-03-2020 00:40:18 4.2 C 31 %
288 31-03-2020 00:50:18 4.3 C 31 %
289 31-03-2020 01:00:18 4.4 C 32 %
290 31-03-2020 01:10:18 4 C 34 %
291 31-03-2020 01:20:18 3.8 C 36 %
292 31-03-2020 01:30:18 3.8 C 36 %
293 31-03-2020 01:40:18 3.7 C 37 %
294 31-03-2020 01:50:18 4 C 37 %
295 31-03-2020 02:00:18 3.9 C 38 %
296 31-03-2020 02:10:18 3.4 C 39 %
297 31-03-2020 02:20:17 3.5 C 39 %
298 31-03-2020 02:30:18 3.7 C 39 %
299 31-03-2020 02:40:18 3.3 C 40 %
300 31-03-2020 02:50:18 2.8 C 41 %
Sensor: Nr:Datum:Temp:Feuchte:
Aussen-T/F 301 31-03-2020 03:00:18 2.5 C 41 %
302 31-03-2020 03:10:18 2.2 C 42 %
303 31-03-2020 03:20:17 2.4 C 42 %
304 31-03-2020 03:30:18 2.3 C 42 %
305 31-03-2020 03:40:18 2.3 C 43 %
306 31-03-2020 03:50:18 2.7 C 43 %
307 31-03-2020 04:00:18 2.9 C 42 %
308 31-03-2020 04:10:18 3 C 42 %
309 31-03-2020 04:20:18 3.1 C 42 %
310 31-03-2020 04:30:17 3.2 C 42 %
311 31-03-2020 04:40:18 3.2 C 41 %
312 31-03-2020 04:50:17 3.5 C 41 %
313 31-03-2020 05:00:18 3.4 C 41 %
314 31-03-2020 05:10:18 3 C 41 %
315 31-03-2020 05:20:17 2.8 C 43 %
316 31-03-2020 05:30:18 2.5 C 43 %
317 31-03-2020 05:40:18 2.3 C 43 %
318 31-03-2020 05:50:18 1.9 C 44 %
319 31-03-2020 06:00:18 1.7 C 44 %
320 31-03-2020 06:10:18 1.6 C 45 %
321 31-03-2020 06:20:18 1.5 C 45 %
322 31-03-2020 06:30:18 1.7 C 45 %
323 31-03-2020 06:40:18 2 C 45 %
324 31-03-2020 06:50:18 2.1 C 45 %
325 31-03-2020 07:00:18 2.2 C 45 %
Sensor: Nr:Datum:Temp:Feuchte:
Aussen-T/F 326 31-03-2020 07:10:18 2.3 C 45 %
327 31-03-2020 07:20:18 2.2 C 44 %
328 31-03-2020 07:30:18 2.1 C 44 %
329 31-03-2020 07:40:18 1.7 C 45 %
330 31-03-2020 07:50:17 2 C 45 %
331 31-03-2020 08:00:18 2.5 C 45 %
332 31-03-2020 08:10:18 3.1 C 43 %
333 31-03-2020 08:20:18 3.3 C 42 %
334 31-03-2020 08:30:18 3.5 C 41 %
335 31-03-2020 08:40:18 3.7 C 40 %
336 31-03-2020 08:50:17 4 C 38 %
337 31-03-2020 09:00:18 3.9 C 38 %
338 31-03-2020 09:10:18 3.9 C 37 %
339 31-03-2020 09:20:18 4 C 36 %
340 31-03-2020 09:30:17 4 C 36 %
341 31-03-2020 09:40:17 4.1 C 35 %
342 31-03-2020 09:50:18 4.3 C 35 %
343 31-03-2020 10:00:18 4.8 C 34 %
344 31-03-2020 10:10:18 4.7 C 34 %
345 31-03-2020 10:20:18 4.5 C 34 %
346 31-03-2020 10:30:18 4.4 C 34 %
347 31-03-2020 10:40:18 4.3 C 34 %
348 31-03-2020 10:50:17 4.3 C 33 %
349 31-03-2020 11:00:17 4.3 C 33 %
350 31-03-2020 11:10:17 4.4 C 32 %
Sensor: Nr:Datum:Temp:Feuchte:
Aussen-T/F 351 31-03-2020 11:20:18 4.7 C 31 %
352 31-03-2020 11:30:18 5.4 C 30 %
353 31-03-2020 11:40:18 5.3 C 30 %
354 31-03-2020 11:50:17 5.3 C 29 %
355 31-03-2020 12:00:18 5.6 C 27 %
356 31-03-2020 12:10:18 6.3 C 25 %
357 31-03-2020 12:20:17 6.4 C 20 %
358 31-03-2020 12:30:18 9.2 C 20 %
359 31-03-2020 12:40:18 8.4 C 20 %
360 31-03-2020 12:50:18 7 C 20 %
361 31-03-2020 13:00:17 7.5 C 20 %
362 31-03-2020 13:10:17 7.1 C 20 %
363 31-03-2020 13:20:17 7.3 C 20 %
364 31-03-2020 13:30:17 7 C 20 %
365 31-03-2020 13:40:17 8.1 C 20 %
366 31-03-2020 13:51:17 8.4 C 20 %
367 31-03-2020 14:00:17 8.5 C 20 %
368 31-03-2020 14:10:17 9.7 C 20 %
369 31-03-2020 14:20:17 11.2 C 20 %
370 31-03-2020 14:30:17 12.6 C 20 %
371 31-03-2020 14:40:17 11.7 C 20 %
372 31-03-2020 14:51:17 12 C 20 %
373 31-03-2020 15:00:17 12 C 20 %
374 31-03-2020 15:10:18 13.1 C 20 %
375 31-03-2020 15:20:17 13.2 C 20 %
Sensor: Nr:Datum:Temp:Feuchte:
Aussen-T/F 376 31-03-2020 15:30:17 13.5 C 20 %
377 31-03-2020 15:40:17 14.6 C 20 %
378 31-03-2020 15:50:18 13.9 C 20 %
379 31-03-2020 16:00:17 16.8 C 20 %
380 31-03-2020 16:10:17 14.8 C 20 %
381 31-03-2020 16:20:17 15.8 C 20 %
382 31-03-2020 16:31:17 15.1 C 20 %
383 31-03-2020 16:40:17 14 C 20 %
384 31-03-2020 16:50:17 13.3 C 20 %
385 31-03-2020 17:00:17 14.4 C 20 %
386 31-03-2020 17:10:17 16.2 C 20 %
387 31-03-2020 17:21:17 15.3 C 20 %
388 31-03-2020 17:31:17 14.7 C 20 %
389 31-03-2020 17:40:17 15.5 C 20 %
390 31-03-2020 17:51:17 10.6 C 20 %
391 31-03-2020 18:01:17 10.5 C 20 %
392 31-03-2020 18:11:17 10.2 C 20 %
393 31-03-2020 18:21:17 9.8 C 20 %
394 31-03-2020 18:31:17 9.6 C 20 %
395 31-03-2020 18:40:17 9.4 C 20 %
396 31-03-2020 18:51:17 9.1 C 20 %
397 31-03-2020 19:00:17 9.1 C 20 %
398 31-03-2020 19:10:17 8.8 C 20 %
399 31-03-2020 19:20:17 8.7 C 20 %
400 31-03-2020 19:31:17 8.2 C 20 %
Sensor: Nr:Datum:Temp:Feuchte:
Aussen-T/F 401 31-03-2020 19:41:17 7.7 C 20 %
402 31-03-2020 19:50:17 6.6 C 20 %
403 31-03-2020 20:01:17 5.6 C 20 %
404 31-03-2020 20:11:17 5.5 C 20 %
405 31-03-2020 20:21:17 5.3 C 20 %
406 31-03-2020 20:31:17 4.7 C 20 %
407 31-03-2020 20:41:17 4.4 C 20 %
408 31-03-2020 20:51:17 4 C 20 %
409 31-03-2020 21:00:17 3.7 C 20 %
410 31-03-2020 21:10:18 3.9 C 20 %
411 31-03-2020 21:21:17 3.7 C 20 %
412 31-03-2020 21:31:17 3.5 C 20 %
413 31-03-2020 21:41:17 3.2 C 23 %
414 31-03-2020 21:51:17 3.2 C 23 %
415 31-03-2020 22:00:18 3 C 23 %
416 31-03-2020 22:10:18 2.7 C 25 %
417 31-03-2020 22:21:17 2.7 C 25 %
418 31-03-2020 22:31:17 2.6 C 25 %
419 31-03-2020 22:41:17 1.8 C 30 %
420 31-03-2020 22:50:18 1.6 C 30 %
421 31-03-2020 23:01:17 1.6 C 30 %
422 31-03-2020 23:11:17 1.7 C 30 %
423 31-03-2020 23:21:17 1.4 C 31 %
424 31-03-2020 23:30:17 1.3 C 31 %
425 31-03-2020 23:40:18 1.6 C 31 %
Sensor: Nr:Datum:Temp:Feuchte:
Aussen-T/F 426 31-03-2020 23:51:17 0.9 C 32 %
427 01-04-2020 00:01:17 1.2 C 31 %
428 01-04-2020 00:11:17 0 C 35 %
429 01-04-2020 00:21:17 0.8 C 33 %
430 01-04-2020 00:31:17 0.6 C 32 %
431 01-04-2020 00:41:17 0.5 C 33 %
432 01-04-2020 00:51:17 -0.3 C 35 %
433 01-04-2020 01:01:17 -0.1 C 36 %
434 01-04-2020 01:11:17 -0.3 C 35 %
435 01-04-2020 01:21:17 -1 C 37 %
436 01-04-2020 01:30:18 -1.4 C 38 %
437 01-04-2020 01:40:18 -1.7 C 38 %
438 01-04-2020 01:51:17 -1.9 C 38 %
439 01-04-2020 02:01:17 -1.9 C 38 %
440 01-04-2020 02:11:17 -2 C 38 %
441 01-04-2020 02:21:17 -2.1 C 38 %
442 01-04-2020 02:31:17 -2.3 C 39 %
443 01-04-2020 02:41:17 -2.4 C 38 %
444 01-04-2020 02:50:18 -2.4 C 39 %
445 01-04-2020 03:01:17 -2.5 C 38 %
446 01-04-2020 03:11:17 -2.6 C 38 %
447 01-04-2020 03:21:17 -2.8 C 39 %
448 01-04-2020 03:31:17 -2.7 C 38 %
449 01-04-2020 03:41:18 -3 C 38 %
450 01-04-2020 03:51:17 -3 C 39 %
Sensor: Nr:Datum:Temp:Feuchte:
Aussen-T/F 451 01-04-2020 04:01:17 -2.8 C 39 %
452 01-04-2020 04:11:17 -3.1 C 38 %
453 01-04-2020 04:21:17 -3.2 C 39 %
454 01-04-2020 04:31:18 -3.5 C 38 %
455 01-04-2020 04:41:19 -3.4 C 39 %
456 01-04-2020 04:51:17 -3.5 C 39 %
457 01-04-2020 05:01:18 -3.6 C 39 %
458 01-04-2020 05:11:19 -3.8 C 40 %
459 01-04-2020 05:21:17 -3.8 C 40 %
460 01-04-2020 05:31:18 -3.8 C 40 %
461 01-04-2020 05:41:18 -4 C 40 %
462 01-04-2020 05:51:17 -4.2 C 40 %
463 01-04-2020 06:01:18 -4.2 C 40 %
464 01-04-2020 06:11:18 -4 C 40 %
465 01-04-2020 06:21:17 -4.2 C 40 %
466 01-04-2020 06:31:17 -4.2 C 41 %
467 01-04-2020 06:41:17 -4.3 C 41 %
468 01-04-2020 06:51:17 -4.5 C 41 %
469 01-04-2020 07:01:18 -4.6 C 41 %
470 01-04-2020 07:11:19 -4.7 C 41 %
471 01-04-2020 07:21:17 -4.5 C 41 %
472 01-04-2020 07:31:18 -4.4 C 41 %
473 01-04-2020 07:41:18 -4.5 C 41 %
474 01-04-2020 07:51:17 -4.3 C 41 %
475 01-04-2020 08:01:17 -4.2 C 41 %
Sensor: Nr:Datum:Temp:Feuchte:
Aussen-T/F 476 01-04-2020 08:11:17 -4.2 C 41 %
477 01-04-2020 08:21:17 -3.7 C 41 %
478 01-04-2020 08:31:17 -3.8 C 41 %
479 01-04-2020 08:41:17 -3.7 C 41 %
480 01-04-2020 08:51:17 -3.4 C 40 %
481 01-04-2020 09:01:17 -3.4 C 40 %
482 01-04-2020 09:11:17 -2.7 C 40 %
483 01-04-2020 09:21:17 -2.6 C 40 %
484 01-04-2020 09:31:17 -2.5 C 40 %
485 01-04-2020 09:41:17 -2.1 C 40 %
486 01-04-2020 09:51:17 -1.5 C 39 %
487 01-04-2020 10:01:17 -1 C 39 %
488 01-04-2020 10:11:17 -0.9 C 40 %
489 01-04-2020 10:21:17 -0.4 C 40 %
490 01-04-2020 10:31:18 0.5 C 39 %
491 01-04-2020 10:41:18 1 C 37 %
492 01-04-2020 10:51:17 1.6 C 36 %
493 01-04-2020 11:01:17 2.4 C 35 %
494 01-04-2020 11:11:17 3.2 C 33 %
495 01-04-2020 11:21:17 4.2 C 29 %
496 01-04-2020 11:31:17 4.8 C 20 %
497 01-04-2020 11:41:17 5.3 C 20 %
498 01-04-2020 11:51:17 6 C 20 %
499 01-04-2020 12:01:17 6.6 C 20 %
500 01-04-2020 12:11:18 7.1 C 20 %
Sensor: Nr:Datum:Temp:Feuchte:
Aussen-T/F 501 01-04-2020 12:21:17 8.9 C 20 %
502 01-04-2020 12:31:17 10.3 C 20 %
503 01-04-2020 12:41:17 9.2 C 20 %
504 01-04-2020 12:51:17 8 C 20 %
505 01-04-2020 13:01:17 9.3 C 20 %
506 01-04-2020 13:11:17 9.3 C 20 %
507 01-04-2020 13:21:16 8.6 C 20 %
508 01-04-2020 13:31:17 9.2 C 20 %
509 01-04-2020 13:41:17 9.6 C 20 %
510 01-04-2020 13:51:17 10 C 20 %
511 01-04-2020 14:01:17 10.3 C 20 %
512 01-04-2020 14:11:17 10.7 C 20 %
513 01-04-2020 14:21:17 13.2 C 20 %
514 01-04-2020 14:31:16 15.9 C 20 %
515 01-04-2020 14:41:16 16.3 C 20 %
516 01-04-2020 14:51:17 13.7 C 20 %
517 01-04-2020 15:01:17 14.2 C 20 %
518 01-04-2020 15:11:17 17.2 C 20 %
519 01-04-2020 15:21:17 16.8 C 20 %
520 01-04-2020 15:31:16 16.3 C 20 %
521 01-04-2020 15:41:16 18.2 C 20 %
522 01-04-2020 15:51:17 19.5 C 20 %
523 01-04-2020 16:01:16 18.7 C 20 %
524 01-04-2020 16:11:16 18.7 C 20 %
525 01-04-2020 16:21:16 19.7 C 20 %
Sensor: Nr:Datum:Temp:Feuchte:
Aussen-T/F 526 01-04-2020 16:31:17 21.3 C 20 %
527 01-04-2020 16:41:17 15.5 C 20 %
528 01-04-2020 16:51:16 18.4 C 20 %
529 01-04-2020 17:01:16 17.2 C 20 %
530 01-04-2020 17:11:16 17.4 C 20 %
531 01-04-2020 17:21:17 17.7 C 20 %
532 01-04-2020 17:31:17 18.5 C 20 %
533 01-04-2020 17:41:17 16.8 C 20 %
534 01-04-2020 17:51:17 15.8 C 20 %
535 01-04-2020 18:01:17 12.6 C 20 %
536 01-04-2020 18:11:17 12 C 20 %
537 01-04-2020 18:21:16 12.1 C 20 %
538 01-04-2020 18:31:17 11.7 C 20 %
539 01-04-2020 18:41:17 11.8 C 20 %
540 01-04-2020 18:51:16 11.6 C 20 %
541 01-04-2020 19:01:17 11 C 20 %
542 01-04-2020 19:11:17 10.7 C 20 %
543 01-04-2020 19:21:17 10.4 C 20 %
544 01-04-2020 19:31:17 9.9 C 20 %
545 01-04-2020 19:41:17 9.6 C 20 %
546 01-04-2020 19:51:16 8.9 C 20 %
547 01-04-2020 20:01:17 8.1 C 20 %
548 01-04-2020 20:11:17 7.8 C 20 %
549 01-04-2020 20:21:16 8.1 C 20 %
550 01-04-2020 20:31:16 7.1 C 20 %
Sensor: Nr:Datum:Temp:Feuchte:
Aussen-T/F 551 01-04-2020 20:41:16 6.2 C 20 %
552 01-04-2020 20:51:16 5.9 C 20 %
553 01-04-2020 21:01:16 6 C 20 %
554 01-04-2020 21:11:16 6 C 20 %
555 01-04-2020 21:21:16 5.7 C 20 %
556 01-04-2020 21:31:16 5.7 C 20 %
557 01-04-2020 21:41:16 5.4 C 20 %
558 01-04-2020 21:51:16 4 C 21 %
559 01-04-2020 22:01:16 4.2 C 21 %
560 01-04-2020 22:11:16 3.7 C 26 %
561 01-04-2020 22:21:16 3.2 C 26 %
562 01-04-2020 22:31:16 2.5 C 29 %
563 01-04-2020 22:41:16 2.6 C 28 %
564 01-04-2020 22:51:16 2 C 30 %
565 01-04-2020 23:01:17 1.7 C 33 %
566 01-04-2020 23:11:17 1.7 C 32 %
567 01-04-2020 23:21:16 1.4 C 34 %
568 01-04-2020 23:31:16 1.2 C 34 %
569 01-04-2020 23:41:16 1 C 35 %
570 01-04-2020 23:51:16 1.1 C 34 %
571 02-04-2020 00:01:17 1 C 35 %
572 02-04-2020 00:11:17 0.4 C 36 %
573 02-04-2020 00:21:16 0.4 C 36 %
574 02-04-2020 00:31:17 0.2 C 36 %
575 02-04-2020 00:41:17 0.3 C 37 %
Sensor: Nr:Datum:Temp:Feuchte:
Aussen-T/F 576 02-04-2020 00:51:16 0.3 C 36 %
577 02-04-2020 01:01:17 0 C 37 %
578 02-04-2020 01:11:17 -0.4 C 38 %
579 02-04-2020 01:21:16 -0.6 C 38 %
580 02-04-2020 01:31:17 -0.7 C 38 %
581 02-04-2020 01:41:17 -0.7 C 38 %
582 02-04-2020 01:51:16 -0.9 C 39 %
583 02-04-2020 02:01:16 -1 C 39 %
584 02-04-2020 02:11:16 -1 C 39 %
585 02-04-2020 02:21:16 -1.2 C 39 %
586 02-04-2020 02:31:17 -1.3 C 40 %
587 02-04-2020 02:41:17 -1.6 C 40 %
588 02-04-2020 02:51:17 -1.5 C 40 %
589 02-04-2020 03:01:17 -1.5 C 40 %
590 02-04-2020 03:11:17 -1.5 C 40 %
591 02-04-2020 03:21:17 -1.3 C 40 %
592 02-04-2020 03:31:17 -1.4 C 40 %
593 02-04-2020 03:41:17 -1.6 C 40 %
594 02-04-2020 03:51:18 -1.7 C 40 %
595 02-04-2020 04:01:18 -2.1 C 40 %
596 02-04-2020 04:11:18 -1.7 C 41 %
597 02-04-2020 04:21:18 -1.6 C 40 %
598 02-04-2020 04:31:17 -2 C 40 %
599 02-04-2020 04:41:17 -2.4 C 41 %
600 02-04-2020 04:51:17 -2.7 C 41 %
Sensor: Nr:Datum:Temp:Feuchte:
Aussen-T/F 601 02-04-2020 05:01:18 -2.6 C 41 %
602 02-04-2020 05:11:18 -2.6 C 41 %
603 02-04-2020 05:21:17 -2.6 C 41 %
604 02-04-2020 05:31:18 -2.7 C 41 %
605 02-04-2020 05:41:18 -2.6 C 41 %
606 02-04-2020 05:51:17 -2.5 C 41 %
607 02-04-2020 06:01:17 -2.6 C 41 %
608 02-04-2020 06:11:17 -3 C 41 %
609 02-04-2020 06:21:17 -3 C 42 %
610 02-04-2020 06:31:17 -2.6 C 43 %
611 02-04-2020 06:41:17 -3.1 C 42 %
612 02-04-2020 06:51:17 -2.9 C 42 %
613 02-04-2020 07:01:17 -3.3 C 42 %
614 02-04-2020 07:11:17 -3 C 42 %
615 02-04-2020 07:21:17 -3.1 C 42 %
616 02-04-2020 07:31:17 -3 C 43 %
617 02-04-2020 07:41:18 -2.9 C 42 %
618 02-04-2020 07:51:17 -3 C 43 %
619 02-04-2020 08:01:17 -2.7 C 43 %
620 02-04-2020 08:11:18 -2.5 C 43 %
621 02-04-2020 08:21:17 -2.2 C 42 %
622 02-04-2020 08:31:17 -2.2 C 42 %
623 02-04-2020 08:41:17 -2 C 42 %
624 02-04-2020 08:51:17 -1.8 C 42 %
625 02-04-2020 09:01:17 -1.7 C 42 %
Sensor: Nr:Datum:Temp:Feuchte:
Aussen-T/F 626 02-04-2020 09:11:17 -1.5 C 41 %
627 02-04-2020 09:21:17 -1.3 C 41 %
628 02-04-2020 09:31:17 -1 C 41 %
629 02-04-2020 09:41:17 -0.6 C 41 %
630 02-04-2020 09:51:18 -0.3 C 41 %
631 02-04-2020 10:01:18 0.1 C 41 %
632 02-04-2020 10:11:18 0.6 C 41 %
633 02-04-2020 10:21:17 0.8 C 41 %
634 02-04-2020 10:31:17 1.7 C 40 %
635 02-04-2020 10:41:17 2.2 C 39 %
636 02-04-2020 10:51:17 3.1 C 37 %
637 02-04-2020 11:01:17 3.6 C 37 %
638 02-04-2020 11:11:17 4.6 C 35 %
639 02-04-2020 11:21:17 5.7 C 30 %
640 02-04-2020 11:31:18 6.5 C 30 %
641 02-04-2020 11:41:18 6.9 C 29 %
642 02-04-2020 11:51:17 7.4 C 27 %
643 02-04-2020 12:01:17 8.1 C 27 %
644 02-04-2020 12:11:17 8.5 C 25 %
645 02-04-2020 12:21:17 10.5 C 20 %
646 02-04-2020 12:31:18 12.2 C 20 %
647 02-04-2020 12:41:18 10.8 C 20 %
648 02-04-2020 12:51:17 10.3 C 20 %
649 02-04-2020 13:01:17 11 C 20 %
650 02-04-2020 13:11:18 11.5 C 20 %
Sensor: Nr:Datum:Temp:Feuchte:
Aussen-T/F 651 02-04-2020 13:21:17 11.6 C 20 %
652 02-04-2020 13:31:17 11.4 C 20 %
653 02-04-2020 13:41:17 12.3 C 20 %
654 02-04-2020 13:51:17 12.5 C 20 %
655 02-04-2020 14:01:17 11.8 C 20 %
656 02-04-2020 14:11:17 12.6 C 20 %
657 02-04-2020 14:21:17 15.5 C 20 %
658 02-04-2020 14:31:18 18.1 C 20 %
659 02-04-2020 14:41:18 18.3 C 20 %
660 02-04-2020 14:51:17 18.3 C 20 %
661 02-04-2020 15:01:18 19.7 C 20 %
662 02-04-2020 15:11:18 17.5 C 20 %
663 02-04-2020 15:21:17 19.2 C 20 %
664 02-04-2020 15:31:18 19.8 C 20 %
665 02-04-2020 15:41:18 19.3 C 20 %
666 02-04-2020 15:51:17 19.4 C 20 %
667 02-04-2020 16:01:17 21.3 C 20 %
668 02-04-2020 16:11:17 19.9 C 20 %
669 02-04-2020 16:21:17 16.6 C 20 %
670 02-04-2020 16:31:18 18 C 20 %
671 02-04-2020 16:41:18 17.6 C 20 %
672 02-04-2020 16:51:17 17.8 C 20 %
673 02-04-2020 17:01:17 17.3 C 20 %
674 02-04-2020 17:11:17 16.6 C 20 %
675 02-04-2020 17:21:17 15.8 C 20 %
Sensor: Nr:Datum:Temp:Feuchte:
Aussen-T/F 676 02-04-2020 17:31:18 15.5 C 20 %
677 02-04-2020 17:41:18 14.7 C 20 %
678 02-04-2020 17:51:17 14.8 C 20 %
679 02-04-2020 18:01:17 12.8 C 20 %
680 02-04-2020 18:11:17 12.2 C 20 %
681 02-04-2020 18:21:17 12.3 C 20 %
682 02-04-2020 18:31:17 11.8 C 20 %
683 02-04-2020 18:41:17 11.3 C 20 %
684 02-04-2020 18:51:17 11.1 C 20 %
685 02-04-2020 19:01:17 10.7 C 20 %
686 02-04-2020 19:11:17 10.2 C 20 %
687 02-04-2020 19:21:17 10 C 20 %
688 02-04-2020 19:31:17 9.6 C 20 %
689 02-04-2020 19:41:17 9.5 C 20 %
690 02-04-2020 19:51:17 8.7 C 20 %
691 02-04-2020 20:01:17 8.5 C 20 %
692 02-04-2020 20:11:17 8.5 C 20 %
693 02-04-2020 20:21:17 7.9 C 20 %
694 02-04-2020 20:31:17 7.8 C 20 %
695 02-04-2020 20:41:17 7.2 C 21 %
696 02-04-2020 20:51:17 6.9 C 25 %
697 02-04-2020 21:01:17 6.4 C 26 %
698 02-04-2020 21:11:17 6.3 C 27 %
699 02-04-2020 21:21:17 5.9 C 28 %
700 02-04-2020 21:31:18 5.7 C 29 %
Sensor: Nr:Datum:Temp:Feuchte:
Aussen-T/F 701 02-04-2020 21:41:18 5.6 C 30 %
702 02-04-2020 21:51:17 5.3 C 30 %
703 02-04-2020 22:01:17 5.2 C 30 %
704 02-04-2020 22:11:17 5.5 C 30 %
705 02-04-2020 22:21:17 5 C 30 %
706 02-04-2020 22:31:18 5.3 C 31 %
707 02-04-2020 22:41:18 5.2 C 31 %
708 02-04-2020 22:51:17 5.1 C 31 %
709 02-04-2020 23:01:17 4.8 C 32 %
710 02-04-2020 23:11:17 5 C 31 %
711 02-04-2020 23:21:17 5 C 31 %
712 02-04-2020 23:31:18 4.7 C 33 %
713 02-04-2020 23:41:18 3.9 C 35 %
714 02-04-2020 23:51:17 3.1 C 36 %
715 03-04-2020 00:01:18 2.7 C 38 %
716 03-04-2020 00:11:18 2.3 C 39 %
717 03-04-2020 00:21:17 2.6 C 40 %
718 03-04-2020 00:31:17 2.6 C 39 %
719 03-04-2020 00:41:17 3.2 C 38 %
720 03-04-2020 00:51:17 2.4 C 39 %
721 03-04-2020 01:01:18 2.4 C 39 %
722 03-04-2020 01:11:18 2.4 C 39 %
723 03-04-2020 01:21:17 2.6 C 39 %
724 03-04-2020 01:31:18 2.7 C 39 %
725 03-04-2020 01:41:18 2.5 C 39 %
Sensor: Nr:Datum:Temp:Feuchte:
Aussen-T/F 726 03-04-2020 01:51:17 2.3 C 39 %
727 03-04-2020 02:01:18 2.2 C 39 %
728 03-04-2020 02:11:18 2.3 C 39 %
729 03-04-2020 02:21:18 3.1 C 38 %
730 03-04-2020 02:31:18 3.2 C 38 %
731 03-04-2020 02:41:18 2.6 C 39 %
732 03-04-2020 02:51:17 2.8 C 39 %
733 03-04-2020 03:01:18 3 C 38 %
734 03-04-2020 03:11:18 3.6 C 38 %
735 03-04-2020 03:21:17 3.9 C 38 %
736 03-04-2020 03:31:17 4.4 C 36 %
737 03-04-2020 03:41:17 4.7 C 36 %
738 03-04-2020 03:51:17 4.6 C 36 %
739 03-04-2020 04:01:17 5 C 35 %
740 03-04-2020 04:11:17 5.6 C 35 %
741 03-04-2020 04:21:17 4.9 C 35 %
742 03-04-2020 04:31:18 4.7 C 36 %
743 03-04-2020 04:41:18 4.6 C 36 %
744 03-04-2020 04:51:18 4.4 C 36 %
745 03-04-2020 05:01:18 4.3 C 36 %
746 03-04-2020 05:11:18 4.5 C 36 %
747 03-04-2020 05:21:17 4.8 C 36 %
748 03-04-2020 05:31:17 4.8 C 36 %
749 03-04-2020 05:41:17 5.2 C 35 %
750 03-04-2020 05:51:17 5.3 C 35 %
Sensor: Nr:Datum:Temp:Feuchte:
Aussen-T/F 751 03-04-2020 06:01:18 5.4 C 35 %
752 03-04-2020 06:11:18 5.4 C 35 %
753 03-04-2020 06:21:17 5.1 C 35 %
754 03-04-2020 06:31:17 5.1 C 36 %
755 03-04-2020 06:41:17 5.1 C 35 %
756 03-04-2020 06:51:17 5.2 C 35 %
757 03-04-2020 07:01:17 5.7 C 35 %
758 03-04-2020 07:11:17 5.6 C 35 %
759 03-04-2020 07:21:18 5.5 C 35 %
760 03-04-2020 07:31:17 5.7 C 35 %
761 03-04-2020 07:41:17 5.6 C 35 %
762 03-04-2020 07:51:17 5.6 C 35 %
763 03-04-2020 08:01:17 5.7 C 35 %
764 03-04-2020 08:11:17 5.9 C 35 %
765 03-04-2020 08:21:18 5.9 C 35 %
766 03-04-2020 08:31:17 5.9 C 35 %
767 03-04-2020 08:41:17 6.1 C 35 %
768 03-04-2020 08:51:18 6.6 C 35 %
769 03-04-2020 09:01:17 7 C 34 %
770 03-04-2020 09:11:17 7.1 C 34 %
771 03-04-2020 09:21:18 7.6 C 34 %
772 03-04-2020 09:31:18 7.7 C 34 %
773 03-04-2020 09:41:18 8 C 33 %
774 03-04-2020 09:51:17 8.4 C 33 %
775 03-04-2020 10:01:18 8.6 C 32 %
Sensor: Nr:Datum:Temp:Feuchte:
Aussen-T/F 776 03-04-2020 10:11:18 8.6 C 32 %
777 03-04-2020 10:21:17 9 C 32 %
778 03-04-2020 10:31:18 9.4 C 32 %
779 03-04-2020 10:41:18 9.2 C 32 %
780 03-04-2020 10:51:17 9.6 C 32 %
781 03-04-2020 11:01:17 10.6 C 31 %
782 03-04-2020 11:11:17 11.2 C 29 %
783 03-04-2020 11:21:17 10.9 C 29 %
784 03-04-2020 11:31:17 11.1 C 28 %
785 03-04-2020 11:41:17 11.5 C 26 %
786 03-04-2020 11:51:17 11.4 C 26 %
787 03-04-2020 12:01:17 11.1 C 26 %
788 03-04-2020 12:11:17 11.2 C 26 %
789 03-04-2020 12:21:17 11.4 C 26 %
790 03-04-2020 12:31:17 11.6 C 25 %
791 03-04-2020 12:41:18 11.1 C 25 %
792 03-04-2020 12:51:17 11.1 C 25 %
793 03-04-2020 13:01:18 11.2 C 25 %
794 03-04-2020 13:11:18 11.7 C 25 %
795 03-04-2020 13:21:17 12.2 C 22 %
796 03-04-2020 13:31:17 11.8 C 22 %
797 03-04-2020 13:41:17 11.8 C 23 %
798 03-04-2020 13:51:17 12.2 C 22 %
799 03-04-2020 14:01:18 12.3 C 20 %
800 03-04-2020 14:11:18 11.6 C 21 %
Sensor: Nr:Datum:Temp:Feuchte:
Aussen-T/F 801 03-04-2020 14:21:17 11.7 C 21 %
802 03-04-2020 14:31:17 11.6 C 21 %
803 03-04-2020 14:41:18 11.4 C 23 %
804 03-04-2020 14:51:17 11.7 C 21 %
805 03-04-2020 15:01:17 11.8 C 20 %
806 03-04-2020 15:11:17 11.7 C 20 %
807 03-04-2020 15:21:18 11.8 C 20 %
808 03-04-2020 15:31:17 12.1 C 20 %
809 03-04-2020 15:41:17 12.5 C 20 %
810 03-04-2020 15:51:17 13.1 C 20 %
811 03-04-2020 16:01:17 12.6 C 20 %
812 03-04-2020 16:11:17 12.4 C 20 %
813 03-04-2020 16:21:17 12.4 C 20 %
814 03-04-2020 16:31:17 12.3 C 20 %
815 03-04-2020 16:41:17 12.4 C 20 %
816 03-04-2020 16:51:17 12.4 C 20 %
817 03-04-2020 17:01:17 12.2 C 20 %
818 03-04-2020 17:11:17 12.2 C 20 %
819 03-04-2020 17:21:17 12.2 C 20 %
820 03-04-2020 17:31:17 12.2 C 20 %
821 03-04-2020 17:41:17 12.4 C 20 %
822 03-04-2020 17:51:17 11.9 C 20 %
823 03-04-2020 18:01:17 11.5 C 20 %
824 03-04-2020 18:11:17 11.7 C 20 %
825 03-04-2020 18:21:17 11.5 C 20 %
Sensor: Nr:Datum:Temp:Feuchte:
Aussen-T/F 826 03-04-2020 18:31:18 11.4 C 20 %
827 03-04-2020 18:41:18 11 C 20 %
828 03-04-2020 18:51:17 11 C 20 %
829 03-04-2020 19:01:18 10.8 C 20 %
830 03-04-2020 19:11:18 10.7 C 20 %
831 03-04-2020 19:21:17 10.5 C 20 %
832 03-04-2020 19:31:17 10.2 C 20 %
833 03-04-2020 19:41:17 10.3 C 20 %
834 03-04-2020 19:51:17 9.9 C 20 %
835 03-04-2020 20:01:17 9.8 C 20 %
836 03-04-2020 20:11:17 9.5 C 20 %
837 03-04-2020 20:21:17 9.1 C 20 %
838 03-04-2020 20:31:18 9.5 C 20 %
839 03-04-2020 20:41:18 9.2 C 20 %
840 03-04-2020 20:51:18 9.1 C 20 %
841 03-04-2020 21:01:17 9.2 C 20 %
842 03-04-2020 21:11:17 9.1 C 20 %
843 03-04-2020 21:21:17 8.9 C 20 %
844 03-04-2020 21:31:17 8.7 C 20 %
845 03-04-2020 21:41:17 8.6 C 20 %
846 03-04-2020 21:51:17 8.3 C 20 %
847 03-04-2020 22:01:17 8.1 C 20 %
848 03-04-2020 22:11:17 7.9 C 20 %
849 03-04-2020 22:21:17 7.2 C 23 %
850 03-04-2020 22:31:18 6.8 C 25 %
Sensor: Nr:Datum:Temp:Feuchte:
Aussen-T/F 851 03-04-2020 22:41:18 6.5 C 26 %
852 03-04-2020 22:51:17 6.3 C 26 %
853 03-04-2020 23:01:17 6.4 C 26 %
854 03-04-2020 23:11:18 6.4 C 25 %
855 03-04-2020 23:21:18 6.2 C 26 %
856 03-04-2020 23:31:17 5.2 C 28 %
857 03-04-2020 23:41:18 5 C 29 %
858 03-04-2020 23:51:17 4.7 C 30 %
859 04-04-2020 00:01:17 4.8 C 30 %
860 04-04-2020 00:11:18 4.8 C 30 %
861 04-04-2020 00:21:17 4.7 C 30 %
862 04-04-2020 00:31:17 5.2 C 28 %
863 04-04-2020 00:41:17 4.5 C 29 %
864 04-04-2020 00:51:17 4 C 30 %
865 04-04-2020 01:01:17 4.6 C 30 %
866 04-04-2020 01:11:17 4.3 C 30 %
867 04-04-2020 01:21:18 3.9 C 31 %
868 04-04-2020 01:31:17 4 C 32 %
869 04-04-2020 01:41:17 3.1 C 35 %
870 04-04-2020 01:51:17 2.2 C 37 %
871 04-04-2020 02:01:18 1.7 C 39 %
872 04-04-2020 02:11:18 1.4 C 40 %
873 04-04-2020 02:21:17 1.2 C 40 %
874 04-04-2020 02:31:17 0.9 C 41 %
875 04-04-2020 02:41:17 0.8 C 41 %
Sensor: Nr:Datum:Temp:Feuchte:
Aussen-T/F 876 04-04-2020 02:51:17 0.8 C 42 %
877 04-04-2020 03:01:18 0.6 C 42 %
878 04-04-2020 03:11:18 0.4 C 42 %
879 04-04-2020 03:21:17 0.3 C 43 %
880 04-04-2020 03:31:18 0.6 C 43 %
881 04-04-2020 03:41:18 0.5 C 42 %
882 04-04-2020 03:51:17 -0.1 C 43 %
883 04-04-2020 04:01:17 -0.4 C 43 %
884 04-04-2020 04:11:17 -0.6 C 43 %
885 04-04-2020 04:21:17 -0.7 C 44 %
886 04-04-2020 04:31:17 -0.6 C 44 %
887 04-04-2020 04:41:17 -0.9 C 44 %
888 04-04-2020 04:51:17 -0.9 C 45 %
889 04-04-2020 05:01:18 -0.9 C 45 %
890 04-04-2020 05:11:18 -1.2 C 45 %
891 04-04-2020 05:21:18 -1.2 C 45 %
892 04-04-2020 05:31:17 -1 C 45 %
893 04-04-2020 05:41:17 -1.2 C 45 %
894 04-04-2020 05:51:17 -1.2 C 45 %
895 04-04-2020 06:01:18 -1.5 C 45 %
896 04-04-2020 06:11:18 -1.5 C 45 %
897 04-04-2020 06:21:17 -1.5 C 45 %
898 04-04-2020 06:31:17 -1.8 C 45 %
899 04-04-2020 06:41:17 -1.4 C 46 %
900 04-04-2020 06:51:17 -1.5 C 45 %
Sensor: Nr:Datum:Temp:Feuchte:
Aussen-T/F 901 04-04-2020 07:01:18 -1.6 C 45 %
902 04-04-2020 07:11:18 -1.8 C 45 %
903 04-04-2020 07:21:17 -1.5 C 46 %
904 04-04-2020 07:31:18 -1.8 C 45 %
905 04-04-2020 07:41:18 -1.7 C 46 %
906 04-04-2020 07:51:17 -1.8 C 45 %
907 04-04-2020 08:01:17 -1.8 C 46 %
908 04-04-2020 08:11:18 -1.7 C 46 %
909 04-04-2020 08:21:17 -1.5 C 46 %
910 04-04-2020 08:31:17 -1.1 C 46 %
911 04-04-2020 08:41:18 -1 C 46 %
912 04-04-2020 08:51:17 -0.7 C 45 %
913 04-04-2020 09:01:17 -0.3 C 45 %
914 04-04-2020 09:11:17 0 C 45 %
915 04-04-2020 09:21:17 -0.2 C 45 %
916 04-04-2020 09:31:18 0.2 C 45 %
917 04-04-2020 09:41:18 0.8 C 44 %
918 04-04-2020 09:51:17 1.1 C 43 %
919 04-04-2020 10:01:17 1.5 C 43 %
920 04-04-2020 10:11:18 1.8 C 43 %
921 04-04-2020 10:21:17 2.2 C 41 %
922 04-04-2020 10:31:17 2.9 C 41 %
923 04-04-2020 10:41:17 3.5 C 40 %
924 04-04-2020 10:51:17 4.5 C 37 %
925 04-04-2020 11:01:17 5.3 C 36 %
Sensor: Nr:Datum:Temp:Feuchte:
Aussen-T/F 926 04-04-2020 11:11:17 6.4 C 35 %
927 04-04-2020 11:21:18 7.1 C 32 %
928 04-04-2020 11:31:18 7.9 C 32 %
929 04-04-2020 11:41:18 8.4 C 29 %
930 04-04-2020 11:51:18 8.7 C 29 %
931 04-04-2020 12:01:18 9.7 C 26 %
932 04-04-2020 12:11:18 9.7 C 26 %
933 04-04-2020 12:21:17 10.6 C 22 %
934 04-04-2020 12:31:17 10.9 C 20 %
935 04-04-2020 12:41:17 11.4 C 20 %
936 04-04-2020 12:51:17 10.8 C 20 %
937 04-04-2020 13:01:17 11.1 C 20 %
938 04-04-2020 13:11:17 12.1 C 20 %
939 04-04-2020 13:21:17 11.6 C 20 %
940 04-04-2020 13:31:17 11.4 C 20 %
941 04-04-2020 13:41:17 12.2 C 20 %
942 04-04-2020 13:51:18 12.5 C 20 %
943 04-04-2020 14:01:17 12.1 C 20 %
944 04-04-2020 14:11:17 13.7 C 20 %
945 04-04-2020 14:21:17 14.6 C 20 %
946 04-04-2020 14:31:17 16.6 C 20 %
947 04-04-2020 14:41:17 17 C 20 %
948 04-04-2020 14:51:17 16.3 C 20 %
949 04-04-2020 15:01:18 18.1 C 20 %
950 04-04-2020 15:11:18 18.9 C 20 %
Sensor: Nr:Datum:Temp:Feuchte:
Aussen-T/F 951 04-04-2020 15:21:17 16.9 C 20 %
952 04-04-2020 15:31:17 19.1 C 20 %
953 04-04-2020 15:41:17 19.8 C 20 %
954 04-04-2020 15:51:17 17.4 C 20 %
955 04-04-2020 16:01:17 19.9 C 20 %
956 04-04-2020 16:11:17 19.3 C 20 %
957 04-04-2020 16:21:17 18.7 C 20 %
958 04-04-2020 16:31:17 19.3 C 20 %
959 04-04-2020 16:41:17 20.5 C 20 %
960 04-04-2020 16:51:17 20.4 C 20 %
961 04-04-2020 17:01:17 20.3 C 20 %
962 04-04-2020 17:11:17 20.1 C 20 %
963 04-04-2020 17:21:17 20.5 C 20 %
964 04-04-2020 17:31:17 19.2 C 20 %
965 04-04-2020 17:41:17 18.7 C 20 %
966 04-04-2020 17:51:18 17.8 C 20 %
967 04-04-2020 18:01:17 16.8 C 20 %
968 04-04-2020 18:11:17 16.2 C 20 %
969 04-04-2020 18:21:17 15.4 C 20 %
970 04-04-2020 18:31:17 15.4 C 20 %
971 04-04-2020 18:41:17 15.6 C 20 %
972 04-04-2020 18:51:17 15.1 C 20 %
973 04-04-2020 19:01:17 14.9 C 20 %
974 04-04-2020 19:11:17 14.4 C 20 %
975 04-04-2020 19:21:17 14 C 20 %
Sensor: Nr:Datum:Temp:Feuchte:
Aussen-T/F 976 04-04-2020 19:31:17 13.9 C 20 %
977 04-04-2020 19:41:17 12.6 C 20 %
978 04-04-2020 19:51:17 11.5 C 20 %
979 04-04-2020 20:01:17 11.3 C 20 %
980 04-04-2020 20:11:17 10.7 C 20 %
981 04-04-2020 20:21:17 10.3 C 21 %
982 04-04-2020 20:31:17 9.8 C 25 %
983 04-04-2020 20:41:17 9.5 C 23 %
984 04-04-2020 20:51:17 9.2 C 25 %
985 04-04-2020 21:01:17 9.2 C 21 %
986 04-04-2020 21:11:17 8.7 C 25 %
987 04-04-2020 21:21:17 8.8 C 25 %
988 04-04-2020 21:31:17 8.5 C 25 %
989 04-04-2020 21:41:17 8.2 C 25 %
990 04-04-2020 21:51:17 7.1 C 28 %
991 04-04-2020 22:01:18 5.8 C 31 %
992 04-04-2020 22:11:18 5.5 C 32 %
993 04-04-2020 22:21:18 5.1 C 32 %
994 04-04-2020 22:31:17 4.8 C 35 %
995 04-04-2020 22:41:17 4.7 C 34 %
996 04-04-2020 22:51:17 4.6 C 34 %
997 04-04-2020 23:01:17 4.4 C 34 %
998 04-04-2020 23:11:17 4.1 C 34 %
999 04-04-2020 23:21:17 3.9 C 35 %
1000 04-04-2020 23:31:17 3.6 C 36 %
Sensor: Nr:Datum:Temp:Feuchte:
Aussen-T/F 1001 04-04-2020 23:41:17 3.5 C 36 %
1002 04-04-2020 23:51:17 3.4 C 37 %
1003 05-04-2020 00:01:17 3 C 37 %
1004 05-04-2020 00:11:17 2.9 C 38 %
1005 05-04-2020 00:21:17 2.8 C 39 %
1006 05-04-2020 00:31:17 2.5 C 39 %
1007 05-04-2020 00:41:17 2.5 C 40 %
1008 05-04-2020 00:51:18 2.4 C 40 %
1009 05-04-2020 01:01:18 2.3 C 40 %
1010 05-04-2020 01:11:18 2.3 C 40 %
1011 05-04-2020 01:21:17 2.2 C 40 %
1012 05-04-2020 01:31:18 2.1 C 41 %
1013 05-04-2020 01:41:18 1.9 C 42 %
1014 05-04-2020 01:51:17 1.8 C 42 %
1015 05-04-2020 02:01:18 1.6 C 42 %
1016 05-04-2020 02:11:18 1.3 C 42 %
1017 05-04-2020 02:21:17 1.4 C 43 %
1018 05-04-2020 02:31:18 1.4 C 43 %
1019 05-04-2020 02:41:18 1.1 C 43 %
1020 05-04-2020 02:51:17 1.1 C 43 %
1021 05-04-2020 03:01:18 1.3 C 43 %
1022 05-04-2020 03:11:18 1.1 C 43 %
1023 05-04-2020 03:21:17 1 C 43 %
1024 05-04-2020 03:31:17 0.7 C 45 %
1025 05-04-2020 03:41:17 0.5 C 45 %
Sensor: Nr:Datum:Temp:Feuchte:
Aussen-T/F 1026 05-04-2020 03:51:17 0.7 C 45 %
1027 05-04-2020 04:01:17 0.6 C 45 %
1028 05-04-2020 04:11:17 0.4 C 45 %
1029 05-04-2020 04:21:17 0.4 C 46 %
1030 05-04-2020 04:31:17 0.2 C 46 %
1031 05-04-2020 04:41:17 0.2 C 46 %
1032 05-04-2020 04:51:17 0.2 C 46 %
1033 05-04-2020 05:01:17 0 C 46 %
1034 05-04-2020 05:11:17 -0.3 C 46 %
1035 05-04-2020 05:21:17 -0.2 C 47 %
1036 05-04-2020 05:31:17 -0.3 C 46 %
1037 05-04-2020 05:41:17 -0.4 C 47 %
1038 05-04-2020 05:51:17 -0.5 C 47 %
1039 05-04-2020 06:01:17 -0.4 C 47 %
1040 05-04-2020 06:11:17 -0.5 C 47 %
1041 05-04-2020 06:21:17 -0.6 C 47 %
1042 05-04-2020 06:31:18 -0.8 C 48 %
1043 05-04-2020 06:41:18 -0.8 C 47 %
1044 05-04-2020 06:51:17 -0.8 C 47 %
1045 05-04-2020 07:01:18 -0.9 C 47 %
1046 05-04-2020 07:11:18 -0.7 C 48 %
1047 05-04-2020 07:21:18 -0.6 C 48 %
1048 05-04-2020 07:31:17 -0.5 C 48 %
1049 05-04-2020 07:41:17 -0.5 C 48 %
1050 05-04-2020 07:51:17 -0.4 C 48 %
Sensor: Nr:Datum:Temp:Feuchte:
Aussen-T/F 1051 05-04-2020 08:01:17 -0.3 C 48 %
1052 05-04-2020 08:11:17 0 C 49 %
1053 05-04-2020 08:21:17 0.1 C 48 %
1054 05-04-2020 08:31:17 0.4 C 48 %
1055 05-04-2020 08:41:17 0.5 C 49 %
1056 05-04-2020 08:51:18 0.8 C 49 %
1057 05-04-2020 09:01:17 1.1 C 47 %
1058 05-04-2020 09:11:17 1.4 C 47 %
1059 05-04-2020 09:21:17 1.8 C 47 %
1060 05-04-2020 09:31:17 2.4 C 46 %
1061 05-04-2020 09:41:17 2.8 C 46 %
1062 05-04-2020 09:51:18 3.4 C 44 %
1063 05-04-2020 10:01:18 3.9 C 43 %
1064 05-04-2020 10:11:18 4.5 C 41 %
1065 05-04-2020 10:21:17 5.4 C 40 %
1066 05-04-2020 10:31:17 5.9 C 40 %
1067 05-04-2020 10:41:17 7 C 38 %
1068 05-04-2020 10:51:17 7.9 C 37 %
1069 05-04-2020 11:01:17 8.6 C 36 %
1070 05-04-2020 11:11:17 10.7 C 32 %
1071 05-04-2020 11:21:17 11.2 C 30 %
1072 05-04-2020 11:31:17 13.1 C 21 %
1073 05-04-2020 11:41:17 13.9 C 20 %
1074 05-04-2020 11:51:17 14.8 C 20 %
1075 05-04-2020 12:01:17 15.6 C 20 %
Sensor: Nr:Datum:Temp:Feuchte:
Aussen-T/F 1076 05-04-2020 12:11:17 15.9 C 20 %
1077 05-04-2020 12:21:17 16.7 C 20 %
1078 05-04-2020 12:31:18 17.6 C 20 %
1079 05-04-2020 12:41:18 17.4 C 20 %
1080 05-04-2020 12:51:17 17.4 C 20 %
1081 05-04-2020 13:01:17 17.2 C 20 %
1082 05-04-2020 13:11:17 18.4 C 20 %
1083 05-04-2020 13:21:17 17.5 C 20 %
1084 05-04-2020 13:31:17 17.1 C 20 %
1085 05-04-2020 13:41:17 17.9 C 20 %
1086 05-04-2020 13:51:17 17.7 C 20 %
1087 05-04-2020 14:01:17 17.9 C 20 %
1088 05-04-2020 14:11:17 19 C 20 %
1089 05-04-2020 14:21:17 19.8 C 20 %
1090 05-04-2020 14:31:18 21.7 C 20 %
1091 05-04-2020 14:41:18 23.4 C 20 %
1092 05-04-2020 14:51:18 23.3 C 20 %
1093 05-04-2020 15:01:17 24.7 C 20 %
1094 05-04-2020 15:11:18 26.9 C 20 %
1095 05-04-2020 15:21:17 24.5 C 20 %
1096 05-04-2020 15:31:17 24.8 C 20 %
1097 05-04-2020 15:41:17 25.1 C 20 %
1098 05-04-2020 15:51:18 26.6 C 20 %
1099 05-04-2020 16:01:17 25 C 20 %
1100 05-04-2020 16:11:17 23.3 C 20 %
Sensor: Nr:Datum:Temp:Feuchte:
Aussen-T/F 1101 05-04-2020 16:21:17 25.5 C 20 %
1102 05-04-2020 16:31:17 24.8 C 20 %
1103 05-04-2020 16:41:17 23.1 C 20 %
1104 05-04-2020 16:51:17 23.4 C 20 %
1105 05-04-2020 17:01:17 23.5 C 20 %
1106 05-04-2020 17:11:17 26.4 C 20 %
1107 05-04-2020 17:21:17 25.9 C 20 %
1108 05-04-2020 17:31:17 24.4 C 20 %
1109 05-04-2020 17:41:17 24.2 C 20 %
1110 05-04-2020 17:51:17 23.6 C 20 %
1111 05-04-2020 18:01:17 20.8 C 20 %
1112 05-04-2020 18:11:17 19.7 C 20 %
1113 05-04-2020 18:21:17 20 C 20 %
1114 05-04-2020 18:31:17 19.7 C 20 %
1115 05-04-2020 18:41:17 19.4 C 20 %
1116 05-04-2020 18:51:17 18.9 C 20 %
1117 05-04-2020 19:01:17 18.8 C 20 %
1118 05-04-2020 19:11:17 18.4 C 20 %
1119 05-04-2020 19:21:17 18 C 20 %
1120 05-04-2020 19:31:18 17.5 C 20 %
1121 05-04-2020 19:41:18 16.3 C 20 %
1122 05-04-2020 19:51:17 15 C 20 %
1123 05-04-2020 20:01:18 14.3 C 20 %
1124 05-04-2020 20:11:18 14.1 C 20 %
1125 05-04-2020 20:21:17 13.5 C 20 %
Sensor: Nr:Datum:Temp:Feuchte:
Aussen-T/F 1126 05-04-2020 20:31:17 13.3 C 20 %
1127 05-04-2020 20:41:17 13 C 20 %
1128 05-04-2020 20:51:17 12.7 C 20 %
1129 05-04-2020 21:01:18 12.3 C 20 %
1130 05-04-2020 21:11:18 12 C 20 %
1131 05-04-2020 21:21:17 12.1 C 20 %
1132 05-04-2020 21:31:17 11.7 C 20 %
1133 05-04-2020 21:41:17 11.5 C 20 %
1134 05-04-2020 21:51:17 10.3 C 20 %
1135 05-04-2020 22:01:17 10.5 C 20 %
1136 05-04-2020 22:11:17 9.2 C 25 %
1137 05-04-2020 22:21:17 8.9 C 26 %
1138 05-04-2020 22:31:17 8.8 C 26 %
1139 05-04-2020 22:41:17 8.4 C 27 %
1140 05-04-2020 22:51:17 8.2 C 27 %
1141 05-04-2020 23:01:17 8 C 28 %
1142 05-04-2020 23:11:17 7.4 C 30 %
1143 05-04-2020 23:21:17 7.4 C 29 %
1144 05-04-2020 23:31:17 7 C 30 %
1145 05-04-2020 23:41:17 6.7 C 31 %
1146 05-04-2020 23:51:17 6.3 C 31 %
1147 06-04-2020 00:01:17 6.2 C 32 %
1148 06-04-2020 00:11:17 6.3 C 32 %
1149 06-04-2020 00:21:17 6.3 C 32 %
1150 06-04-2020 00:31:18 6 C 32 %
Sensor: Nr:Datum:Temp:Feuchte:
Aussen-T/F 1151 06-04-2020 00:41:18 5.6 C 33 %
1152 06-04-2020 00:51:17 5.6 C 34 %
1153 06-04-2020 01:01:18 5.4 C 35 %
1154 06-04-2020 01:11:18 5.3 C 35 %
1155 06-04-2020 01:21:17 5.1 C 35 %
1156 06-04-2020 01:31:17 4.8 C 36 %
1157 06-04-2020 01:41:17 4.7 C 36 %
1158 06-04-2020 01:51:17 4.6 C 36 %
1159 06-04-2020 02:01:17 4.5 C 37 %
1160 06-04-2020 02:11:17 4.1 C 37 %
1161 06-04-2020 02:21:17 4.2 C 37 %
1162 06-04-2020 02:31:17 4 C 37 %
1163 06-04-2020 02:41:17 4.1 C 37 %
1164 06-04-2020 02:51:17 3.8 C 38 %
1165 06-04-2020 03:01:17 3.9 C 39 %
1166 06-04-2020 03:11:17 3.6 C 39 %
1167 06-04-2020 03:21:17 3.3 C 39 %
1168 06-04-2020 03:31:18 3.3 C 40 %
1169 06-04-2020 03:41:18 3.2 C 40 %
1170 06-04-2020 03:51:17 3.3 C 40 %
1171 06-04-2020 04:01:17 3.2 C 40 %
1172 06-04-2020 04:11:17 3.3 C 40 %
1173 06-04-2020 04:21:17 3.1 C 40 %
1174 06-04-2020 04:31:17 2.8 C 40 %
1175 06-04-2020 04:41:17 2.6 C 41 %
Sensor: Nr:Datum:Temp:Feuchte:
Aussen-T/F 1176 06-04-2020 04:51:17 2.5 C 41 %
1177 06-04-2020 05:01:17 2.4 C 41 %
1178 06-04-2020 05:11:17 2.3 C 41 %
1179 06-04-2020 05:21:18 2.2 C 41 %
1180 06-04-2020 05:31:17 1.9 C 42 %
1181 06-04-2020 05:41:17 1.8 C 43 %
1182 06-04-2020 05:51:17 1.7 C 43 %
1183 06-04-2020 06:01:17 1.6 C 44 %
1184 06-04-2020 06:11:17 1.5 C 44 %
1185 06-04-2020 06:21:18 1.3 C 45 %
1186 06-04-2020 06:31:17 1.2 C 45 %
1187 06-04-2020 06:41:18 1.3 C 45 %
1188 06-04-2020 06:51:17 1.3 C 45 %
1189 06-04-2020 07:01:17 1.4 C 45 %
1190 06-04-2020 07:11:17 1.5 C 45 %
1191 06-04-2020 07:21:17 1.6 C 45 %
1192 06-04-2020 07:31:18 1.5 C 45 %
1193 06-04-2020 07:41:18 1.6 C 45 %
1194 06-04-2020 07:51:17 2 C 45 %
1195 06-04-2020 08:01:17 1.9 C 45 %
1196 06-04-2020 08:11:17 2.2 C 44 %
1197 06-04-2020 08:21:17 2.5 C 44 %
1198 06-04-2020 08:31:17 3 C 42 %
1199 06-04-2020 08:41:17 3.2 C 42 %
1200 06-04-2020 08:51:17 3.4 C 41 %
Sensor: Nr:Datum:Temp:Feuchte:
Aussen-T/F 1201 06-04-2020 09:01:18 3.5 C 41 %
1202 06-04-2020 09:11:18 3.4 C 41 %
1203 06-04-2020 09:21:17 3.9 C 41 %
1204 06-04-2020 09:31:17 4.3 C 40 %
1205 06-04-2020 09:41:17 4.8 C 40 %
1206 06-04-2020 09:51:18 5.2 C 40 %
1207 06-04-2020 10:01:18 6 C 38 %
1208 06-04-2020 10:11:18 6.5 C 37 %
1209 06-04-2020 10:21:17 7.2 C 36 %
1210 06-04-2020 10:31:17 7.9 C 36 %
1211 06-04-2020 10:41:17 8.8 C 35 %
1212 06-04-2020 10:51:17 9.8 C 34 %
1213 06-04-2020 11:01:17 11.1 C 31 %
1214 06-04-2020 11:11:18 12.2 C 29 %
1215 06-04-2020 11:21:17 13.3 C 26 %
1216 06-04-2020 11:31:17 16 C 20 %
1217 06-04-2020 11:41:17 17.1 C 20 %
1218 06-04-2020 11:51:18 17.6 C 20 %
1219 06-04-2020 12:01:18 18.1 C 20 %
1220 06-04-2020 12:11:18 18.6 C 20 %
1221 06-04-2020 12:21:17 20.3 C 20 %
1222 06-04-2020 12:31:17 21 C 20 %
1223 06-04-2020 12:41:17 19.4 C 20 %
1224 06-04-2020 12:51:17 20.2 C 20 %
1225 06-04-2020 13:01:17 20.6 C 20 %
Sensor: Nr:Datum:Temp:Feuchte:
Aussen-T/F 1226 06-04-2020 13:11:17 20.8 C 20 %
1227 06-04-2020 13:21:17 20.4 C 20 %
1228 06-04-2020 13:31:18 20.3 C 20 %
1229 06-04-2020 13:41:18 21.2 C 20 %
1230 06-04-2020 13:51:17 21.3 C 20 %
1231 06-04-2020 14:01:18 22.3 C 20 %
1232 06-04-2020 14:11:18 22.3 C 20 %
1233 06-04-2020 14:21:17 23.7 C 20 %
1234 06-04-2020 14:31:17 26.8 C 20 %
1235 06-04-2020 14:41:17 27.4 C 20 %
1236 06-04-2020 14:51:18 28.3 C 20 %
1237 06-04-2020 15:01:17 28 C 20 %
1238 06-04-2020 15:11:17 26.6 C 20 %
1239 06-04-2020 15:21:17 27.1 C 20 %
1240 06-04-2020 15:31:17 25.8 C 20 %
1241 06-04-2020 15:41:17 26.9 C 20 %
1242 06-04-2020 15:51:17 27.9 C 20 %
1243 06-04-2020 16:01:17 29.7 C 20 %
1244 06-04-2020 16:11:17 27.4 C 20 %
1245 06-04-2020 16:21:18 27.4 C 20 %
1246 06-04-2020 16:31:18 28.3 C 20 %
1247 06-04-2020 16:41:18 28.5 C 20 %
1248 06-04-2020 16:51:17 27.1 C 20 %
1249 06-04-2020 17:01:17 27.6 C 20 %
1250 06-04-2020 17:11:17 26 C 20 %
Sensor: Nr:Datum:Temp:Feuchte:
Aussen-T/F 1251 06-04-2020 17:21:17 26.7 C 20 %
1252 06-04-2020 17:31:17 25.7 C 20 %
1253 06-04-2020 17:41:17 25.5 C 20 %
1254 06-04-2020 17:51:17 24.2 C 20 %
1255 06-04-2020 18:01:17 23.3 C 20 %
1256 06-04-2020 18:11:17 23.1 C 20 %
1257 06-04-2020 18:21:17 22.6 C 20 %
1258 06-04-2020 18:31:18 22.6 C 20 %
1259 06-04-2020 18:41:18 22.3 C 20 %
1260 06-04-2020 18:51:17 22 C 20 %
1261 06-04-2020 19:01:17 21.7 C 20 %
1262 06-04-2020 19:11:17 21.1 C 20 %
1263 06-04-2020 19:21:17 20.5 C 20 %
1264 06-04-2020 19:31:17 20.2 C 20 %
1265 06-04-2020 19:41:17 19.1 C 20 %
1266 06-04-2020 19:51:17 18.3 C 20 %
1267 06-04-2020 20:01:18 16.4 C 20 %
1268 06-04-2020 20:11:18 16.3 C 20 %
1269 06-04-2020 20:21:17 15.8 C 20 %
1270 06-04-2020 20:31:17 15.3 C 20 %
1271 06-04-2020 20:41:18 15.1 C 20 %
1272 06-04-2020 20:51:17 13.7 C 20 %
1273 06-04-2020 21:01:18 13.2 C 20 %
1274 06-04-2020 21:11:18 12.9 C 20 %
1275 06-04-2020 21:21:17 12 C 20 %
Sensor: Nr:Datum:Temp:Feuchte:
Aussen-T/F 1276 06-04-2020 21:31:18 11.8 C 22 %
1277 06-04-2020 21:41:18 11.6 C 22 %
1278 06-04-2020 21:51:17 11.1 C 22 %
1279 06-04-2020 22:01:17 10.8 C 25 %
1280 06-04-2020 22:11:17 10.6 C 25 %
1281 06-04-2020 22:21:17 10.2 C 25 %
1282 06-04-2020 22:31:17 10 C 26 %
1283 06-04-2020 22:41:17 10 C 26 %
1284 06-04-2020 22:51:17 9.9 C 26 %
1285 06-04-2020 23:01:18 9.8 C 26 %
1286 06-04-2020 23:11:18 9.6 C 26 %
1287 06-04-2020 23:21:17 9.5 C 27 %
1288 06-04-2020 23:31:17 9.4 C 27 %
1289 06-04-2020 23:41:17 9.2 C 27 %
1290 06-04-2020 23:51:17 9.5 C 29 %
1291 07-04-2020 00:01:17 10.2 C 26 %
1292 07-04-2020 00:11:17 9.1 C 29 %
1293 07-04-2020 00:21:18 8.7 C 30 %
1294 07-04-2020 00:31:17 8.8 C 30 %
1295 07-04-2020 00:41:17 9 C 30 %
1296 07-04-2020 00:51:17 8.6 C 30 %
1297 07-04-2020 01:01:17 8.7 C 30 %
1298 07-04-2020 01:11:17 9.1 C 30 %
1299 07-04-2020 01:21:17 9.4 C 30 %
1300 07-04-2020 01:31:17 9.8 C 30 %
Sensor: Nr:Datum:Temp:Feuchte:
Aussen-T/F 1301 07-04-2020 01:41:17 10.1 C 30 %
1302 07-04-2020 01:51:18 10 C 29 %
1303 07-04-2020 02:01:18 9.2 C 30 %
1304 07-04-2020 02:11:18 8.8 C 31 %
1305 07-04-2020 02:21:17 8.2 C 33 %
1306 07-04-2020 02:31:17 7.9 C 34 %
1307 07-04-2020 02:41:17 7.5 C 34 %
1308 07-04-2020 02:51:17 7.2 C 35 %
1309 07-04-2020 03:01:17 7.3 C 35 %
1310 07-04-2020 03:11:17 7.6 C 35 %
1311 07-04-2020 03:21:17 7.9 C 35 %
1312 07-04-2020 03:31:17 8 C 35 %
1313 07-04-2020 03:41:17 7.7 C 36 %
1314 07-04-2020 03:51:17 7.8 C 35 %
1315 07-04-2020 04:01:17 7.8 C 36 %
1316 07-04-2020 04:11:17 7.6 C 36 %
1317 07-04-2020 04:21:17 7.4 C 36 %
1318 07-04-2020 04:31:17 7.2 C 36 %
1319 07-04-2020 04:41:18 6.9 C 37 %
1320 07-04-2020 04:51:17 6.8 C 37 %
1321 07-04-2020 05:01:17 6.3 C 38 %
1322 07-04-2020 05:11:17 6.1 C 38 %
1323 07-04-2020 05:21:18 5.9 C 40 %
1324 07-04-2020 05:31:17 5.8 C 40 %
1325 07-04-2020 05:41:17 5.7 C 40 %
Sensor: Nr:Datum:Temp:Feuchte:
Aussen-T/F 1326 07-04-2020 05:51:17 5.6 C 41 %
1327 07-04-2020 06:01:17 5.6 C 41 %
1328 07-04-2020 06:11:17 5.2 C 40 %
1329 07-04-2020 06:21:17 5.3 C 41 %
1330 07-04-2020 06:31:17 5.2 C 41 %
1331 07-04-2020 06:41:17 5 C 41 %
1332 07-04-2020 06:51:17 4.8 C 42 %
1333 07-04-2020 07:01:18 4.8 C 43 %
1334 07-04-2020 07:11:18 4.7 C 43 %
1335 07-04-2020 07:21:18 4.8 C 44 %
1336 07-04-2020 07:31:17 5 C 43 %
1337 07-04-2020 07:41:18 5.7 C 43 %
1338 07-04-2020 07:51:17 5.8 C 42 %
1339 07-04-2020 08:01:17 5.7 C 41 %
1340 07-04-2020 08:11:18 5.8 C 41 %
1341 07-04-2020 08:21:17 6 C 41 %
1342 07-04-2020 08:31:17 6 C 41 %
1343 07-04-2020 08:41:17 6.3 C 41 %
1344 07-04-2020 08:51:17 6.6 C 41 %
1345 07-04-2020 09:01:17 7.1 C 40 %
1346 07-04-2020 09:11:17 7.3 C 40 %
1347 07-04-2020 09:21:17 7.5 C 40 %
1348 07-04-2020 09:31:17 8 C 39 %
1349 07-04-2020 09:41:18 8.9 C 39 %
1350 07-04-2020 09:51:17 9.3 C 37 %
Sensor: Nr:Datum:Temp:Feuchte:
Aussen-T/F 1351 07-04-2020 10:01:17 9.4 C 38 %
1352 07-04-2020 10:11:18 10 C 37 %
1353 07-04-2020 10:21:17 10.7 C 37 %
1354 07-04-2020 10:31:18 11.4 C 36 %
1355 07-04-2020 10:41:18 12.3 C 35 %
1356 07-04-2020 10:51:17 13.1 C 33 %
1357 07-04-2020 11:01:17 14 C 31 %
1358 07-04-2020 11:11:17 14.6 C 31 %
1359 07-04-2020 11:21:17 15.2 C 30 %
1360 07-04-2020 11:31:17 16 C 28 %
1361 07-04-2020 11:41:17 16.5 C 27 %
1362 07-04-2020 11:51:17 16.9 C 27 %
1363 07-04-2020 12:01:17 17.2 C 26 %
1364 07-04-2020 12:11:17 17.7 C 25 %
1365 07-04-2020 12:21:18 18.7 C 23 %
1366 07-04-2020 12:31:17 20.9 C 21 %
1367 07-04-2020 12:41:17 19.6 C 20 %
1368 07-04-2020 12:51:18 19.6 C 20 %
1369 07-04-2020 13:01:17 20.7 C 20 %
1370 07-04-2020 13:11:17 21.3 C 20 %
1371 07-04-2020 13:21:17 20.8 C 20 %
1372 07-04-2020 13:31:17 19.8 C 20 %
1373 07-04-2020 13:41:17 20.4 C 20 %
1374 07-04-2020 13:51:18 20.6 C 20 %
1375 07-04-2020 14:01:17 21.1 C 20 %
Sensor: Nr:Datum:Temp:Feuchte:
Aussen-T/F 1376 07-04-2020 14:11:17 22 C 20 %
1377 07-04-2020 14:21:17 23.6 C 20 %
1378 07-04-2020 14:31:17 26.2 C 20 %
1379 07-04-2020 14:41:17 22.9 C 20 %
1380 07-04-2020 14:51:17 26.7 C 20 %
1381 07-04-2020 15:01:17 26.4 C 20 %
1382 07-04-2020 15:11:17 27.1 C 20 %
1383 07-04-2020 15:21:17 30.1 C 20 %
1384 07-04-2020 15:31:17 28.4 C 20 %
1385 07-04-2020 15:41:18 27.2 C 20 %
1386 07-04-2020 15:51:17 26.6 C 20 %
1387 07-04-2020 16:01:17 27.4 C 20 %
1388 07-04-2020 16:11:17 25.1 C 20 %
1389 07-04-2020 16:21:17 27.8 C 20 %
1390 07-04-2020 16:31:17 23.9 C 20 %
1391 07-04-2020 16:41:18 24.3 C 20 %
1392 07-04-2020 16:51:18 29.2 C 20 %
1393 07-04-2020 17:01:17 31 C 20 %
1394 07-04-2020 17:11:17 25 C 20 %
1395 07-04-2020 17:21:17 24.2 C 20 %
1396 07-04-2020 17:31:18 24.2 C 20 %
1397 07-04-2020 17:41:18 26.9 C 20 %
1398 07-04-2020 17:51:18 24.6 C 20 %
1399 07-04-2020 18:01:17 23.7 C 20 %
1400 07-04-2020 18:11:17 23.7 C 20 %
Sensor: Nr:Datum:Temp:Feuchte:
Aussen-T/F 1401 07-04-2020 18:21:17 22.9 C 20 %
1402 07-04-2020 18:31:17 22.7 C 20 %
1403 07-04-2020 18:41:17 22.3 C 20 %
1404 07-04-2020 18:51:17 22 C 20 %
1405 07-04-2020 19:01:17 21.8 C 20 %
1406 07-04-2020 19:11:18 21 C 20 %
1407 07-04-2020 19:21:17 20 C 20 %
1408 07-04-2020 19:31:17 19.1 C 20 %
1409 07-04-2020 19:41:17 18.4 C 20 %
1410 07-04-2020 19:51:17 18.3 C 20 %
1411 07-04-2020 20:01:18 17.6 C 20 %
1412 07-04-2020 20:11:18 17.3 C 20 %
1413 07-04-2020 20:21:17 17.1 C 20 %
1414 07-04-2020 20:31:17 16.8 C 20 %
1415 07-04-2020 20:41:17 16.5 C 20 %
1416 07-04-2020 20:51:17 16.3 C 20 %
1417 07-04-2020 21:01:17 16.1 C 20 %
1418 07-04-2020 21:11:17 15.9 C 20 %
1419 07-04-2020 21:21:18 15.8 C 20 %
1420 07-04-2020 21:31:17 15.4 C 21 %
1421 07-04-2020 21:41:17 15.2 C 21 %
1422 07-04-2020 21:51:17 15.1 C 22 %
1423 07-04-2020 22:01:18 14.6 C 25 %
1424 07-04-2020 22:11:18 13.1 C 27 %
1425 07-04-2020 22:21:17 12.9 C 29 %
Sensor: Nr:Datum:Temp:Feuchte:
Aussen-T/F 1426 07-04-2020 22:31:17 12.7 C 30 %
1427 07-04-2020 22:41:17 12.7 C 30 %
1428 07-04-2020 22:51:18 12.7 C 30 %
1429 07-04-2020 23:01:18 12.7 C 30 %
1430 07-04-2020 23:11:18 12.6 C 30 %
1431 07-04-2020 23:21:17 13.1 C 29 %
1432 07-04-2020 23:31:17 12.8 C 30 %
1433 07-04-2020 23:41:17 12.8 C 30 %
1434 07-04-2020 23:51:17 12.3 C 31 %
1435 08-04-2020 00:01:17 11.7 C 33 %
1436 08-04-2020 00:11:17 11.7 C 33 %
1437 08-04-2020 00:21:17 11.5 C 33 %
1438 08-04-2020 00:31:17 11.5 C 33 %
1439 08-04-2020 00:41:17 11.2 C 34 %
1440 08-04-2020 00:51:18 10.8 C 35 %
1441 08-04-2020 01:01:17 10.8 C 36 %
1442 08-04-2020 01:11:17 10.9 C 35 %
1443 08-04-2020 01:21:17 10.4 C 36 %
1444 08-04-2020 01:31:18 10.2 C 36 %
1445 08-04-2020 01:41:18 9.9 C 37 %
1446 08-04-2020 01:51:17 9.6 C 38 %
1447 08-04-2020 02:01:18 9.2 C 38 %
1448 08-04-2020 02:11:18 8.7 C 39 %
1449 08-04-2020 02:21:17 8.5 C 40 %
1450 08-04-2020 02:31:17 8.2 C 40 %
Sensor: Nr:Datum:Temp:Feuchte:
Aussen-T/F 1451 08-04-2020 02:41:18 8 C 40 %
1452 08-04-2020 02:51:17 7.7 C 41 %
1453 08-04-2020 03:01:18 7.4 C 41 %
1454 08-04-2020 03:11:18 7.1 C 41 %
1455 08-04-2020 03:21:17 7.1 C 42 %
1456 08-04-2020 03:31:17 7.1 C 42 %
1457 08-04-2020 03:41:17 6.8 C 43 %
1458 08-04-2020 03:51:17 6.7 C 43 %
1459 08-04-2020 04:01:17 6.6 C 44 %
1460 08-04-2020 04:11:18 6.7 C 44 %
1461 08-04-2020 04:21:17 6.3 C 44 %
1462 08-04-2020 04:31:17 6.3 C 45 %
1463 08-04-2020 04:41:17 6.4 C 45 %
1464 08-04-2020 04:51:17 6.3 C 45 %
1465 08-04-2020 05:01:18 6.1 C 44 %
1466 08-04-2020 05:11:18 5.9 C 45 %
1467 08-04-2020 05:21:17 5.6 C 45 %
1468 08-04-2020 05:31:17 5.4 C 45 %
1469 08-04-2020 05:41:18 5.4 C 45 %
1470 08-04-2020 05:51:17 5.4 C 46 %
1471 08-04-2020 06:01:17 5.3 C 46 %
1472 08-04-2020 06:11:17 5.4 C 46 %
1473 08-04-2020 06:21:17 5.3 C 46 %
1474 08-04-2020 06:31:17 5.3 C 46 %
1475 08-04-2020 06:41:17 5.1 C 46 %
Sensor: Nr:Datum:Temp:Feuchte:
Aussen-T/F 1476 08-04-2020 06:51:18 5 C 46 %
1477 08-04-2020 07:01:18 5 C 46 %
1478 08-04-2020 07:11:18 5.1 C 46 %
1479 08-04-2020 07:21:17 5.2 C 46 %
1480 08-04-2020 07:31:17 5.3 C 46 %
1481 08-04-2020 07:41:17 5.4 C 46 %
1482 08-04-2020 07:51:17 5.8 C 46 %
1483 08-04-2020 08:01:17 5.7 C 46 %
1484 08-04-2020 08:11:17 6 C 46 %
1485 08-04-2020 08:21:17 6.3 C 46 %
1486 08-04-2020 08:31:18 6.3 C 46 %
1487 08-04-2020 08:41:18 6.5 C 46 %
1488 08-04-2020 08:51:18 6.7 C 46 %
1489 08-04-2020 09:01:18 7 C 45 %
1490 08-04-2020 09:11:18 7.1 C 45 %
1491 08-04-2020 09:21:17 7.6 C 45 %
1492 08-04-2020 09:31:17 7.9 C 45 %
1493 08-04-2020 09:41:17 8.3 C 45 %
1494 08-04-2020 09:51:17 8.7 C 44 %
1495 08-04-2020 10:01:17 9.1 C 43 %
1496 08-04-2020 10:11:17 9.7 C 43 %
1497 08-04-2020 10:21:17 10.2 C 41 %
1498 08-04-2020 10:31:18 11 C 40 %
1499 08-04-2020 10:41:18 11.8 C 39 %
1500 08-04-2020 10:51:18 12.6 C 38 %
Sensor: Nr:Datum:Temp:Feuchte:
Aussen-T/F 1501 08-04-2020 11:01:18 13.7 C 36 %
1502 08-04-2020 11:11:18 14.5 C 35 %
1503 08-04-2020 11:21:17 15.5 C 34 %
1504 08-04-2020 11:31:18 16.2 C 32 %
1505 08-04-2020 11:41:18 17.6 C 27 %
1506 08-04-2020 11:51:17 18.6 C 25 %
1507 08-04-2020 12:01:18 19.2 C 22 %
1508 08-04-2020 12:11:18 20.1 C 21 %
1509 08-04-2020 12:21:17 21.2 C 20 %
1510 08-04-2020 12:31:17 22.4 C 20 %
1511 08-04-2020 12:41:17 22.9 C 20 %
1512 08-04-2020 12:51:17 21.8 C 20 %
1513 08-04-2020 13:01:18 22.9 C 20 %
1514 08-04-2020 13:11:18 22.4 C 20 %
1515 08-04-2020 13:21:17 22.1 C 20 %
1516 08-04-2020 13:31:18 22.3 C 20 %
1517 08-04-2020 13:41:18 23.3 C 20 %
1518 08-04-2020 13:51:17 22.6 C 20 %
1519 08-04-2020 14:01:18 23 C 20 %
1520 08-04-2020 14:11:18 23.7 C 20 %
1521 08-04-2020 14:21:17 24.8 C 20 %
1522 08-04-2020 14:31:18 28.3 C 20 %
1523 08-04-2020 14:41:18 28.9 C 20 %
1524 08-04-2020 14:51:17 28.7 C 20 %
1525 08-04-2020 15:01:17 28.7 C 20 %
Sensor: Nr:Datum:Temp:Feuchte:
Aussen-T/F 1526 08-04-2020 15:11:17 30.1 C 20 %
1527 08-04-2020 15:21:18 29.3 C 20 %
1528 08-04-2020 15:31:17 29.5 C 20 %
1529 08-04-2020 15:41:17 29.1 C 20 %
1530 08-04-2020 15:51:17 32.2 C 20 %
1531 08-04-2020 16:01:17 31.1 C 20 %
1532 08-04-2020 16:11:17 29.7 C 20 %
1533 08-04-2020 16:21:18 30.7 C 20 %
1534 08-04-2020 16:31:17 29 C 20 %
1535 08-04-2020 16:41:17 32.6 C 20 %
1536 08-04-2020 16:51:17 29.7 C 20 %
1537 08-04-2020 17:01:17 29.4 C 20 %
1538 08-04-2020 17:11:17 29.7 C 20 %
1539 08-04-2020 17:21:17 30.1 C 20 %
1540 08-04-2020 17:31:17 30.1 C 20 %
1541 08-04-2020 17:41:17 29 C 20 %
1542 08-04-2020 17:51:17 28.1 C 20 %
1543 08-04-2020 18:01:17 26.6 C 20 %
1544 08-04-2020 18:11:17 25.2 C 20 %
1545 08-04-2020 18:21:17 24.7 C 20 %
1546 08-04-2020 18:31:18 24.3 C 20 %
1547 08-04-2020 18:41:18 24.1 C 20 %
1548 08-04-2020 18:51:17 23.8 C 20 %
1549 08-04-2020 19:01:17 23.2 C 20 %
1550 08-04-2020 19:11:17 22.6 C 20 %
Sensor: Nr:Datum:Temp:Feuchte:
Aussen-T/F 1551 08-04-2020 19:21:17 21.4 C 20 %
1552 08-04-2020 19:31:17 20.1 C 20 %
1553 08-04-2020 19:41:17 19.7 C 20 %
1554 08-04-2020 19:51:17 19.2 C 20 %
1555 08-04-2020 20:01:17 18.5 C 20 %
1556 08-04-2020 20:11:17 18 C 20 %
1557 08-04-2020 20:21:18 17.5 C 20 %
1558 08-04-2020 20:31:17 17 C 20 %
1559 08-04-2020 20:41:18 16.2 C 20 %
1560 08-04-2020 20:51:17 15.6 C 20 %
1561 08-04-2020 21:01:18 14.6 C 20 %
1562 08-04-2020 21:11:18 13.9 C 20 %
1563 08-04-2020 21:21:17 14.2 C 20 %
1564 08-04-2020 21:31:17 13.7 C 20 %
1565 08-04-2020 21:41:17 13.5 C 20 %
1566 08-04-2020 21:51:17 13.4 C 20 %
1567 08-04-2020 22:01:17 12.9 C 21 %
1568 08-04-2020 22:11:18 12.7 C 21 %
1569 08-04-2020 22:21:17 12.5 C 24 %
1570 08-04-2020 22:31:17 12.2 C 25 %
1571 08-04-2020 22:41:17 11.8 C 26 %
1572 08-04-2020 22:51:18 11.6 C 26 %
1573 08-04-2020 23:01:17 12 C 25 %
1574 08-04-2020 23:11:17 11.5 C 26 %
1575 08-04-2020 23:21:17 10.9 C 28 %
Sensor: Nr:Datum:Temp:Feuchte:
Aussen-T/F 1576 08-04-2020 23:31:17 10.5 C 29 %
1577 08-04-2020 23:41:17 10.7 C 28 %
1578 08-04-2020 23:51:17 11.2 C 28 %
1579 09-04-2020 00:01:18 10.7 C 29 %
1580 09-04-2020 00:11:18 10.7 C 29 %
1581 09-04-2020 00:21:17 10.3 C 30 %
1582 09-04-2020 00:31:18 10 C 30 %
1583 09-04-2020 00:41:18 10.5 C 30 %
1584 09-04-2020 00:51:17 10.5 C 30 %
1585 09-04-2020 01:01:17 10 C 30 %
1586 09-04-2020 01:11:17 9.6 C 31 %
1587 09-04-2020 01:21:17 9.2 C 32 %
1588 09-04-2020 01:31:17 9.9 C 33 %
1589 09-04-2020 01:41:17 9.3 C 33 %
1590 09-04-2020 01:51:17 9.6 C 33 %
1591 09-04-2020 02:01:17 8.8 C 35 %
1592 09-04-2020 02:11:17 9.1 C 34 %
1593 09-04-2020 02:21:18 9 C 34 %
1594 09-04-2020 02:31:18 8.8 C 35 %
1595 09-04-2020 02:41:18 8.7 C 35 %
1596 09-04-2020 02:51:17 8.8 C 35 %
1597 09-04-2020 03:01:17 9.2 C 34 %
1598 09-04-2020 03:11:17 9.7 C 33 %
1599 09-04-2020 03:21:17 9.5 C 33 %
1600 09-04-2020 03:31:17 9.4 C 34 %
Sensor: Nr:Datum:Temp:Feuchte:
Aussen-T/F 1601 09-04-2020 03:41:17 9.5 C 34 %
1602 09-04-2020 03:51:17 10.2 C 32 %
1603 09-04-2020 04:01:17 9.9 C 34 %
1604 09-04-2020 04:11:17 10.1 C 33 %
1605 09-04-2020 04:21:17 10 C 33 %
1606 09-04-2020 04:31:18 9.4 C 34 %
1607 09-04-2020 04:41:18 9.3 C 35 %
1608 09-04-2020 04:51:17 8.9 C 35 %
1609 09-04-2020 05:01:17 8.7 C 36 %
1610 09-04-2020 05:11:17 8.6 C 35 %
1611 09-04-2020 05:21:17 8.5 C 36 %
1612 09-04-2020 05:31:18 8.2 C 36 %
1613 09-04-2020 05:41:18 8.1 C 36 %
1614 09-04-2020 05:51:17 8.1 C 37 %
1615 09-04-2020 06:01:18 8.1 C 37 %
1616 09-04-2020 06:11:18 7.7 C 38 %
1617 09-04-2020 06:21:17 7.1 C 38 %
1618 09-04-2020 06:31:17 7 C 38 %
1619 09-04-2020 06:41:17 6.6 C 39 %
1620 09-04-2020 06:51:17 6.8 C 40 %
1621 09-04-2020 07:01:17 6.9 C 40 %
1622 09-04-2020 07:11:17 7.3 C 39 %
1623 09-04-2020 07:21:17 7.3 C 39 %
1624 09-04-2020 07:31:17 7 C 39 %
1625 09-04-2020 07:41:17 6.9 C 40 %
Sensor: Nr:Datum:Temp:Feuchte:
Aussen-T/F 1626 09-04-2020 07:51:17 7 C 40 %
1627 09-04-2020 08:01:17 7 C 40 %
1628 09-04-2020 08:11:17 7.3 C 40 %
1629 09-04-2020 08:21:18 7.4 C 40 %
1630 09-04-2020 08:31:17 7.6 C 40 %
1631 09-04-2020 08:41:17 8 C 39 %
1632 09-04-2020 08:51:17 8.3 C 39 %
1633 09-04-2020 09:01:17 8.5 C 38 %
1634 09-04-2020 09:11:17 8.7 C 39 %
1635 09-04-2020 09:21:17 9 C 38 %
1636 09-04-2020 09:31:17 9.3 C 38 %
1637 09-04-2020 09:41:17 9.8 C 37 %
1638 09-04-2020 09:51:17 10.4 C 36 %
1639 09-04-2020 10:01:17 10.8 C 36 %
1640 09-04-2020 10:11:17 11.2 C 35 %
1641 09-04-2020 10:21:17 11.8 C 35 %
1642 09-04-2020 10:31:17 12.6 C 34 %
1643 09-04-2020 10:41:17 13.3 C 32 %
1644 09-04-2020 10:51:18 14.6 C 31 %
1645 09-04-2020 11:01:17 15.4 C 30 %
1646 09-04-2020 11:11:18 16.2 C 28 %
1647 09-04-2020 11:21:17 17 C 25 %
1648 09-04-2020 11:31:17 17.9 C 23 %
1649 09-04-2020 11:41:17 18.5 C 21 %
1650 09-04-2020 11:51:18 19 C 20 %
Sensor: Nr:Datum:Temp:Feuchte:
Aussen-T/F 1651 09-04-2020 12:01:17 19.3 C 20 %
1652 09-04-2020 12:11:17 19.8 C 20 %
1653 09-04-2020 12:21:17 20.7 C 20 %
1654 09-04-2020 12:31:17 22 C 20 %
1655 09-04-2020 12:41:17 23 C 20 %
1656 09-04-2020 12:51:18 22.3 C 20 %
1657 09-04-2020 13:01:17 23.2 C 20 %
1658 09-04-2020 13:11:17 23.3 C 20 %
1659 09-04-2020 13:21:17 22.9 C 20 %
1660 09-04-2020 13:31:17 22.4 C 20 %
1661 09-04-2020 13:41:18 22.6 C 20 %
1662 09-04-2020 13:51:17 22.8 C 20 %
1663 09-04-2020 14:01:17 24.1 C 20 %
1664 09-04-2020 14:11:17 23.8 C 20 %
1665 09-04-2020 14:21:17 24.3 C 20 %
1666 09-04-2020 14:31:17 26.8 C 20 %
1667 09-04-2020 14:41:17 28 C 20 %
1668 09-04-2020 14:51:17 29.2 C 20 %
1669 09-04-2020 15:01:17 28.6 C 20 %
1670 09-04-2020 15:11:17 31.7 C 20 %
1671 09-04-2020 15:21:17 28.2 C 20 %
1672 09-04-2020 15:31:18 28.7 C 20 %
1673 09-04-2020 15:41:18 28.4 C 20 %
1674 09-04-2020 15:51:17 30.1 C 20 %
1675 09-04-2020 16:01:18 29.2 C 20 %
Sensor: Nr:Datum:Temp:Feuchte:
Aussen-T/F 1676 09-04-2020 16:11:18 29.3 C 20 %
1677 09-04-2020 16:21:17 31.4 C 20 %
1678 09-04-2020 16:31:17 28.8 C 20 %
1679 09-04-2020 16:41:17 28.8 C 20 %
1680 09-04-2020 16:51:17 29.2 C 20 %
1681 09-04-2020 17:01:17 28.7 C 20 %
1682 09-04-2020 17:11:17 28.4 C 20 %
1683 09-04-2020 17:21:17 29.8 C 20 %
1684 09-04-2020 17:31:17 28 C 20 %
1685 09-04-2020 17:41:17 27.6 C 20 %
1686 09-04-2020 17:51:18 27.1 C 20 %
1687 09-04-2020 18:01:18 25.2 C 20 %
1688 09-04-2020 18:11:18 24 C 20 %
1689 09-04-2020 18:21:17 23.7 C 20 %
1690 09-04-2020 18:31:17 23.4 C 20 %
1691 09-04-2020 18:41:17 23.5 C 20 %
1692 09-04-2020 18:51:17 22.9 C 20 %
1693 09-04-2020 19:01:18 22.7 C 20 %
1694 09-04-2020 19:11:18 22.4 C 20 %
1695 09-04-2020 19:21:17 21.8 C 20 %
1696 09-04-2020 19:31:17 21.1 C 20 %
1697 09-04-2020 19:41:17 20.6 C 20 %
1698 09-04-2020 19:51:17 20.1 C 20 %
1699 09-04-2020 20:01:17 19.7 C 20 %
1700 09-04-2020 20:11:17 17.9 C 20 %
Sensor: Nr:Datum:Temp:Feuchte:
Aussen-T/F 1701 09-04-2020 20:21:17 16.6 C 20 %
1702 09-04-2020 20:31:17 16.6 C 20 %
1703 09-04-2020 20:41:17 16.1 C 21 %
1704 09-04-2020 20:51:17 16.4 C 20 %
1705 09-04-2020 21:01:17 16.2 C 20 %
1706 09-04-2020 21:11:17 16.4 C 20 %
1707 09-04-2020 21:21:17 16.5 C 20 %
1708 09-04-2020 21:31:17 15.9 C 21 %
1709 09-04-2020 21:41:17 15.4 C 22 %
1710 09-04-2020 21:51:17 15.5 C 22 %
1711 09-04-2020 22:01:17 15.5 C 22 %
1712 09-04-2020 22:11:17 15.2 C 22 %
1713 09-04-2020 22:21:17 15.1 C 22 %
1714 09-04-2020 22:31:18 14.8 C 24 %
1715 09-04-2020 22:41:18 14.6 C 25 %
1716 09-04-2020 22:51:17 14.3 C 25 %
1717 09-04-2020 23:01:18 14.2 C 25 %
1718 09-04-2020 23:11:18 14.2 C 25 %
1719 09-04-2020 23:21:17 13.6 C 26 %
1720 09-04-2020 23:31:17 13.8 C 26 %
1721 09-04-2020 23:41:18 13.7 C 26 %
1722 09-04-2020 23:51:17 12.7 C 28 %
1723 10-04-2020 00:01:17 12.7 C 29 %
1724 10-04-2020 00:11:17 11.7 C 31 %
1725 10-04-2020 00:21:18 11.8 C 31 %
Sensor: Nr:Datum:Temp:Feuchte:
Aussen-T/F 1726 10-04-2020 00:31:18 11.1 C 32 %
1727 10-04-2020 00:41:18 10.7 C 34 %
1728 10-04-2020 00:51:17 10.5 C 34 %
1729 10-04-2020 01:01:17 10.1 C 35 %
1730 10-04-2020 01:11:17 10 C 35 %
1731 10-04-2020 01:21:17 9.7 C 36 %
1732 10-04-2020 01:31:17 9.6 C 36 %
1733 10-04-2020 01:41:17 9.5 C 36 %
1734 10-04-2020 01:51:17 9 C 36 %
1735 10-04-2020 02:01:17 9.2 C 36 %
1736 10-04-2020 02:11:17 8.9 C 37 %
1737 10-04-2020 02:21:18 8.7 C 37 %
1738 10-04-2020 02:31:18 8.6 C 37 %
1739 10-04-2020 02:41:18 8.3 C 38 %
1740 10-04-2020 02:51:17 8.2 C 38 %
1741 10-04-2020 03:01:18 8.3 C 38 %
1742 10-04-2020 03:11:18 7.9 C 39 %
1743 10-04-2020 03:21:17 7.6 C 39 %
1744 10-04-2020 03:31:17 7.4 C 40 %
1745 10-04-2020 03:41:17 7.2 C 40 %
1746 10-04-2020 03:51:17 7.1 C 40 %
1747 10-04-2020 04:01:18 7 C 40 %
1748 10-04-2020 04:11:18 6.8 C 41 %
1749 10-04-2020 04:21:17 6.9 C 41 %
1750 10-04-2020 04:31:17 6.6 C 41 %
Sensor: Nr:Datum:Temp:Feuchte:
Aussen-T/F 1751 10-04-2020 04:41:17 6.6 C 41 %
1752 10-04-2020 04:51:18 6.6 C 41 %
1753 10-04-2020 05:01:17 6.3 C 41 %
1754 10-04-2020 05:11:17 6.3 C 42 %
1755 10-04-2020 05:21:18 6.4 C 42 %
1756 10-04-2020 05:31:17 6.2 C 42 %
1757 10-04-2020 05:41:17 5.9 C 43 %
1758 10-04-2020 05:51:17 5.7 C 43 %
1759 10-04-2020 06:01:17 5.8 C 44 %
1760 10-04-2020 06:11:17 5.8 C 44 %
1761 10-04-2020 06:21:17 5.6 C 44 %
1762 10-04-2020 06:31:18 5.4 C 44 %
1763 10-04-2020 06:41:18 5.4 C 44 %
1764 10-04-2020 06:51:17 5.4 C 44 %
1765 10-04-2020 07:01:18 5.3 C 44 %
1766 10-04-2020 07:11:18 5.3 C 45 %
1767 10-04-2020 07:21:17 5.3 C 45 %
1768 10-04-2020 07:31:18 5.3 C 45 %
1769 10-04-2020 07:41:18 5.3 C 45 %
1770 10-04-2020 07:51:17 5.9 C 46 %
1771 10-04-2020 08:01:17 5.8 C 45 %
1772 10-04-2020 08:11:17 5.8 C 45 %
1773 10-04-2020 08:21:17 6 C 44 %
1774 10-04-2020 08:31:17 6.1 C 45 %
1775 10-04-2020 08:41:17 6.2 C 44 %
Sensor: Nr:Datum:Temp:Feuchte:
Aussen-T/F 1776 10-04-2020 08:51:17 6.5 C 45 %
1777 10-04-2020 09:01:17 6.9 C 45 %
1778 10-04-2020 09:11:17 7.8 C 42 %
1779 10-04-2020 09:21:18 8.2 C 41 %
1780 10-04-2020 09:31:18 8.5 C 40 %
1781 10-04-2020 09:41:18 9.1 C 39 %
1782 10-04-2020 09:51:17 9.4 C 39 %
1783 10-04-2020 10:01:17 9.9 C 38 %
1784 10-04-2020 10:11:17 10.2 C 37 %
1785 10-04-2020 10:21:17 10.8 C 37 %
1786 10-04-2020 10:31:17 11.6 C 36 %
1787 10-04-2020 10:41:17 12.3 C 35 %
1788 10-04-2020 10:51:17 13.4 C 33 %
1789 10-04-2020 11:01:17 14 C 31 %
1790 10-04-2020 11:11:17 14.7 C 31 %
1791 10-04-2020 11:21:17 15.9 C 28 %
1792 10-04-2020 11:31:17 16.3 C 27 %
1793 10-04-2020 11:41:17 16.8 C 26 %
1794 10-04-2020 11:51:17 17.5 C 25 %
1795 10-04-2020 12:01:17 17.9 C 24 %
1796 10-04-2020 12:11:17 18.4 C 21 %
1797 10-04-2020 12:21:17 19.2 C 20 %
1798 10-04-2020 12:31:17 19.7 C 20 %
1799 10-04-2020 12:41:17 20.6 C 20 %
1800 10-04-2020 12:51:17 20.4 C 20 %
Sensor: Nr:Datum:Temp:Feuchte:
Aussen-T/F 1801 10-04-2020 13:01:17 20.8 C 20 %
1802 10-04-2020 13:11:17 20.2 C 20 %
1803 10-04-2020 13:21:17 20.4 C 20 %
1804 10-04-2020 13:31:17 20.2 C 20 %
1805 10-04-2020 13:41:17 20.4 C 20 %
1806 10-04-2020 13:51:17 20.7 C 20 %
1807 10-04-2020 14:01:17 21.7 C 20 %
1808 10-04-2020 14:11:17 21.6 C 20 %
1809 10-04-2020 14:21:18 22 C 20 %
1810 10-04-2020 14:31:18 25.1 C 20 %
1811 10-04-2020 14:41:18 29.1 C 20 %
1812 10-04-2020 14:51:17 27.6 C 20 %
1813 10-04-2020 15:01:17 27.9 C 20 %
1814 10-04-2020 15:11:17 31.6 C 20 %
1815 10-04-2020 15:21:17 30.1 C 20 %
1816 10-04-2020 15:31:17 30.5 C 20 %
1817 10-04-2020 15:41:17 30.2 C 20 %
1818 10-04-2020 15:51:17 29.1 C 20 %
1819 10-04-2020 16:01:17 29.8 C 20 %
1820 10-04-2020 16:11:17 30.3 C 20 %
1821 10-04-2020 16:21:17 28.8 C 20 %
1822 10-04-2020 16:31:17 29.1 C 20 %
1823 10-04-2020 16:41:17 28.3 C 20 %
1824 10-04-2020 16:51:17 30.8 C 20 %
1825 10-04-2020 17:01:17 29.6 C 20 %
Sensor: Nr:Datum:Temp:Feuchte:
Aussen-T/F 1826 10-04-2020 17:11:17 28.8 C 20 %
1827 10-04-2020 17:21:17 26.8 C 20 %
1828 10-04-2020 17:31:17 28.5 C 20 %
1829 10-04-2020 17:41:17 27.6 C 20 %
1830 10-04-2020 17:51:18 26.4 C 20 %
1831 10-04-2020 18:01:17 23.6 C 20 %
1832 10-04-2020 18:11:17 23 C 20 %
1833 10-04-2020 18:21:18 22.5 C 20 %
1834 10-04-2020 18:31:18 22.2 C 20 %
1835 10-04-2020 18:41:18 22.3 C 20 %
1836 10-04-2020 18:51:17 22 C 20 %
1837 10-04-2020 19:01:17 21.6 C 20 %
1838 10-04-2020 19:11:17 21.4 C 20 %
1839 10-04-2020 19:21:17 21.1 C 20 %
1840 10-04-2020 19:31:17 20.9 C 20 %
1841 10-04-2020 19:41:17 20.7 C 20 %
1842 10-04-2020 19:51:18 20.2 C 20 %
1843 10-04-2020 20:01:17 19.6 C 20 %
1844 10-04-2020 20:11:17 18.5 C 20 %
1845 10-04-2020 20:21:18 16 C 20 %
1846 10-04-2020 20:31:17 15.9 C 20 %
1847 10-04-2020 20:41:17 15.3 C 20 %
1848 10-04-2020 20:51:17 15 C 20 %
1849 10-04-2020 21:01:17 15.3 C 20 %
1850 10-04-2020 21:11:17 14.7 C 20 %
Sensor: Nr:Datum:Temp:Feuchte:
Aussen-T/F 1851 10-04-2020 21:21:17 14.3 C 21 %
1852 10-04-2020 21:31:17 13.8 C 21 %
1853 10-04-2020 21:41:17 14.2 C 21 %
1854 10-04-2020 21:51:17 14.3 C 21 %
1855 10-04-2020 22:01:18 14.5 C 21 %
1856 10-04-2020 22:11:18 14.9 C 20 %
1857 10-04-2020 22:21:18 14.5 C 22 %
1858 10-04-2020 22:31:17 14.5 C 22 %
1859 10-04-2020 22:41:17 13.9 C 24 %
1860 10-04-2020 22:51:17 13.1 C 25 %
1861 10-04-2020 23:01:17 12.7 C 25 %
1862 10-04-2020 23:11:17 12.8 C 25 %
1863 10-04-2020 23:21:17 12 C 26 %
1864 10-04-2020 23:31:17 12.2 C 26 %
1865 10-04-2020 23:41:17 11.2 C 28 %
1866 10-04-2020 23:51:17 11.1 C 29 %
1867 11-04-2020 00:01:18 10.5 C 30 %
1868 11-04-2020 00:11:18 10.8 C 30 %
1869 11-04-2020 00:21:17 10.8 C 30 %
1870 11-04-2020 00:31:17 10.1 C 31 %
1871 11-04-2020 00:41:18 9.9 C 32 %
1872 11-04-2020 00:51:18 10 C 31 %
1873 11-04-2020 01:01:17 9.6 C 31 %
1874 11-04-2020 01:11:17 9.6 C 32 %
1875 11-04-2020 01:21:17 9.1 C 32 %
Sensor: Nr:Datum:Temp:Feuchte:
Aussen-T/F 1876 11-04-2020 01:31:18 9.2 C 32 %
1877 11-04-2020 01:41:18 9 C 32 %
1878 11-04-2020 01:51:18 8.7 C 32 %
1879 11-04-2020 02:01:17 8.4 C 32 %
1880 11-04-2020 02:11:17 8.2 C 32 %
1881 11-04-2020 02:21:18 8.1 C 32 %
1882 11-04-2020 02:31:17 8.3 C 32 %
1883 11-04-2020 02:41:17 8.1 C 32 %
1884 11-04-2020 02:51:17 7.9 C 33 %
1885 11-04-2020 03:01:17 8.5 C 31 %
1886 11-04-2020 03:11:17 8.7 C 31 %
1887 11-04-2020 03:21:17 8.8 C 30 %
1888 11-04-2020 03:31:18 8.8 C 30 %
1889 11-04-2020 03:41:18 8.2 C 30 %
1890 11-04-2020 03:51:17 8.6 C 30 %
1891 11-04-2020 04:01:17 8.3 C 30 %
1892 11-04-2020 04:11:17 8.3 C 30 %
1893 11-04-2020 04:21:17 7.7 C 30 %
1894 11-04-2020 04:31:17 7.4 C 30 %
1895 11-04-2020 04:41:17 7.5 C 30 %
1896 11-04-2020 04:51:17 7.6 C 29 %
1897 11-04-2020 05:01:17 7.4 C 29 %
1898 11-04-2020 05:11:17 6.9 C 30 %
1899 11-04-2020 05:21:17 6.8 C 30 %
1900 11-04-2020 05:31:18 6.1 C 31 %
Sensor: Nr:Datum:Temp:Feuchte:
Aussen-T/F 1901 11-04-2020 05:41:18 5.8 C 32 %
1902 11-04-2020 05:51:17 5.7 C 32 %
1903 11-04-2020 06:01:17 5.6 C 32 %
1904 11-04-2020 06:11:17 5 C 33 %
1905 11-04-2020 06:21:17 4.9 C 35 %
1906 11-04-2020 06:31:18 5 C 33 %
1907 11-04-2020 06:41:18 4.6 C 35 %
1908 11-04-2020 06:51:17 4.6 C 35 %
1909 11-04-2020 07:01:18 4.4 C 35 %
1910 11-04-2020 07:11:18 4.5 C 35 %
1911 11-04-2020 07:21:17 4.4 C 35 %
1912 11-04-2020 07:31:18 4.4 C 36 %
1913 11-04-2020 07:41:18 4.7 C 35 %
1914 11-04-2020 07:51:17 5 C 34 %
1915 11-04-2020 08:01:18 5 C 34 %
1916 11-04-2020 08:11:18 5 C 35 %
1917 11-04-2020 08:21:18 5.1 C 35 %
1918 11-04-2020 08:31:18 5.5 C 34 %
1919 11-04-2020 08:41:18 6 C 33 %
1920 11-04-2020 08:51:18 6.4 C 32 %
1921 11-04-2020 09:01:17 6.5 C 33 %
1922 11-04-2020 09:11:18 7.1 C 31 %
1923 11-04-2020 09:21:17 7.3 C 31 %
1924 11-04-2020 09:31:18 7.8 C 31 %
1925 11-04-2020 09:41:18 8.2 C 30 %
Sensor: Nr:Datum:Temp:Feuchte:
Aussen-T/F 1926 11-04-2020 09:51:17 8.6 C 30 %
1927 11-04-2020 10:01:17 9.1 C 29 %
1928 11-04-2020 10:11:17 9.5 C 29 %
1929 11-04-2020 10:21:17 10.2 C 26 %
1930 11-04-2020 10:31:17 10.7 C 27 %
1931 11-04-2020 10:41:17 11.5 C 25 %
1932 11-04-2020 10:51:17 12.3 C 21 %
1933 11-04-2020 11:01:18 12.9 C 20 %
1934 11-04-2020 11:11:18 13.7 C 20 %
1935 11-04-2020 11:21:17 14.5 C 20 %
1936 11-04-2020 11:31:17 15.3 C 20 %
1937 11-04-2020 11:41:18 16 C 20 %
1938 11-04-2020 11:51:17 16.5 C 20 %
1939 11-04-2020 12:01:17 17.2 C 20 %
1940 11-04-2020 12:11:17 17.5 C 20 %
1941 11-04-2020 12:21:18 18.1 C 20 %
1942 11-04-2020 12:31:17 19.1 C 20 %
1943 11-04-2020 12:41:17 19.4 C 20 %
1944 11-04-2020 12:51:17 19.5 C 20 %
1945 11-04-2020 13:01:17 19.6 C 20 %
1946 11-04-2020 13:11:17 19.5 C 20 %
1947 11-04-2020 13:21:17 19.5 C 20 %
1948 11-04-2020 13:31:17 19.6 C 20 %
1949 11-04-2020 13:41:17 19.9 C 20 %
1950 11-04-2020 13:51:17 20.2 C 20 %
Sensor: Nr:Datum:Temp:Feuchte:
Aussen-T/F 1951 11-04-2020 14:01:18 20.9 C 20 %
1952 11-04-2020 14:11:18 21.3 C 20 %
1953 11-04-2020 14:21:17 21.5 C 20 %
1954 11-04-2020 14:31:17 24.4 C 20 %
1955 11-04-2020 14:41:17 27.5 C 20 %
1956 11-04-2020 14:51:18 27.4 C 20 %
1957 11-04-2020 15:01:18 28.6 C 20 %
1958 11-04-2020 15:11:18 30.4 C 20 %
1959 11-04-2020 15:21:17 29.9 C 20 %
1960 11-04-2020 15:31:17 30.4 C 20 %
1961 11-04-2020 15:41:17 31.2 C 20 %
1962 11-04-2020 15:51:18 31.8 C 20 %
1963 11-04-2020 16:01:17 28.5 C 20 %
1964 11-04-2020 16:11:17 31.4 C 20 %
1965 11-04-2020 16:21:18 30.7 C 20 %
1966 11-04-2020 16:31:17 31.5 C 20 %
1967 11-04-2020 16:41:17 31.3 C 20 %
1968 11-04-2020 16:51:17 32.1 C 20 %
1969 11-04-2020 17:01:17 31.8 C 20 %
1970 11-04-2020 17:11:17 29.5 C 20 %
1971 11-04-2020 17:21:17 29.8 C 20 %
1972 11-04-2020 17:31:17 28.7 C 20 %
1973 11-04-2020 17:41:17 26.5 C 20 %
1974 11-04-2020 17:51:17 27.5 C 20 %
1975 11-04-2020 18:01:17 24.2 C 20 %
Sensor: Nr:Datum:Temp:Feuchte:
Aussen-T/F 1976 11-04-2020 18:11:17 23.4 C 20 %
1977 11-04-2020 18:21:17 23.6 C 20 %
1978 11-04-2020 18:31:17 23.6 C 20 %
1979 11-04-2020 18:41:17 23.3 C 20 %
1980 11-04-2020 18:51:17 22.9 C 20 %
1981 11-04-2020 19:01:17 22.9 C 20 %
1982 11-04-2020 19:11:17 22.7 C 20 %
1983 11-04-2020 19:21:18 22 C 20 %
1984 11-04-2020 19:31:17 21.7 C 20 %
1985 11-04-2020 19:41:17 21.2 C 20 %
1986 11-04-2020 19:51:17 18.9 C 20 %
1987 11-04-2020 20:01:17 18 C 20 %
1988 11-04-2020 20:11:17 17.1 C 20 %
1989 11-04-2020 20:21:17 16.6 C 20 %
1990 11-04-2020 20:31:17 16.5 C 20 %
1991 11-04-2020 20:41:17 16.5 C 20 %
1992 11-04-2020 20:51:17 16.2 C 20 %
1993 11-04-2020 21:01:18 16 C 20 %
1994 11-04-2020 21:11:18 15.5 C 20 %
1995 11-04-2020 21:21:18 15.4 C 20 %
1996 11-04-2020 21:31:17 15.1 C 20 %
1997 11-04-2020 21:41:17 14.8 C 20 %
1998 11-04-2020 21:51:17 14.5 C 20 %
1999 11-04-2020 22:01:17 14.3 C 20 %
2000 11-04-2020 22:11:17 14.4 C 20 %
Sensor: Nr:Datum:Temp:Feuchte:
Aussen-T/F 2001 11-04-2020 22:21:17 14 C 20 %
2002 11-04-2020 22:31:18 14 C 21 %
2003 11-04-2020 22:41:18 14.4 C 21 %
2004 11-04-2020 22:51:17 14.4 C 22 %
2005 11-04-2020 23:01:17 13.7 C 23 %
2006 11-04-2020 23:11:17 13 C 24 %
2007 11-04-2020 23:21:18 12.3 C 26 %
2008 11-04-2020 23:31:18 12.1 C 26 %
2009 11-04-2020 23:41:18 11.8 C 27 %
2010 11-04-2020 23:51:17 11.7 C 28 %
2011 12-04-2020 00:01:17 11.6 C 29 %
2012 12-04-2020 00:11:17 11.3 C 28 %
2013 12-04-2020 00:21:17 11.3 C 29 %
2014 12-04-2020 00:31:17 11.5 C 29 %
2015 12-04-2020 00:41:17 11.6 C 29 %
2016 12-04-2020 00:51:17 11.4 C 28 %
2017 12-04-2020 01:01:17 11.3 C 28 %
2018 12-04-2020 01:11:17 11 C 28 %
2019 12-04-2020 01:21:17 10.6 C 29 %
2020 12-04-2020 01:31:18 10.3 C 29 %
2021 12-04-2020 01:41:18 10.2 C 30 %
2022 12-04-2020 01:51:17 10.6 C 29 %
2023 12-04-2020 02:01:18 10.8 C 30 %
2024 12-04-2020 02:11:18 10.7 C 31 %
2025 12-04-2020 02:21:18 10.3 C 31 %
Sensor: Nr:Datum:Temp:Feuchte:
Aussen-T/F 2026 12-04-2020 02:31:17 10.4 C 30 %
2027 12-04-2020 02:41:17 10.2 C 31 %
2028 12-04-2020 02:51:17 10.1 C 31 %
2029 12-04-2020 03:01:17 10.3 C 31 %
2030 12-04-2020 03:11:17 10.2 C 31 %
2031 12-04-2020 03:21:17 10.1 C 32 %
2032 12-04-2020 03:31:17 10 C 32 %
2033 12-04-2020 03:41:18 9.9 C 33 %
2034 12-04-2020 03:51:17 10 C 32 %
2035 12-04-2020 04:01:17 9.8 C 33 %
2036 12-04-2020 04:11:17 9.7 C 33 %
2037 12-04-2020 04:21:17 8.9 C 35 %
2038 12-04-2020 04:31:17 8.8 C 34 %
2039 12-04-2020 04:41:17 8.9 C 35 %
2040 12-04-2020 04:51:17 8.5 C 35 %
2041 12-04-2020 05:01:18 8.2 C 36 %
2042 12-04-2020 05:11:18 8.4 C 36 %
2043 12-04-2020 05:21:17 8.5 C 36 %
2044 12-04-2020 05:31:17 8.2 C 36 %
2045 12-04-2020 05:41:17 8 C 36 %
2046 12-04-2020 05:51:17 7.6 C 37 %
2047 12-04-2020 06:01:17 7.7 C 37 %
2048 12-04-2020 06:11:17 7.5 C 38 %
2049 12-04-2020 06:21:17 7.2 C 38 %
2050 12-04-2020 06:31:17 7.1 C 39 %
Sensor: Nr:Datum:Temp:Feuchte:
Aussen-T/F 2051 12-04-2020 06:41:17 7.2 C 39 %
2052 12-04-2020 06:51:17 7.3 C 39 %
2053 12-04-2020 07:01:17 6.9 C 39 %
2054 12-04-2020 07:11:17 6.7 C 40 %
2055 12-04-2020 07:21:17 6.5 C 40 %
2056 12-04-2020 07:31:17 6.7 C 40 %
2057 12-04-2020 07:41:17 7.1 C 40 %
2058 12-04-2020 07:51:18 7 C 40 %
2059 12-04-2020 08:01:17 7.3 C 40 %
2060 12-04-2020 08:11:17 7.5 C 40 %
2061 12-04-2020 08:21:17 7.5 C 40 %
2062 12-04-2020 08:31:17 7.6 C 40 %
2063 12-04-2020 08:41:18 7.9 C 40 %
2064 12-04-2020 08:51:17 8.2 C 40 %
2065 12-04-2020 09:01:18 8.8 C 39 %
2066 12-04-2020 09:11:18 9.2 C 38 %
2067 12-04-2020 09:21:17 9.5 C 38 %
2068 12-04-2020 09:31:17 10 C 37 %
2069 12-04-2020 09:41:17 10.1 C 37 %
2070 12-04-2020 09:51:17 11 C 36 %
2071 12-04-2020 10:01:17 11.3 C 36 %
2072 12-04-2020 10:11:17 11.7 C 35 %
2073 12-04-2020 10:21:17 12.2 C 35 %
2074 12-04-2020 10:31:18 13.2 C 33 %
2075 12-04-2020 10:41:18 14.4 C 31 %
Sensor: Nr:Datum:Temp:Feuchte:
Aussen-T/F 2076 12-04-2020 10:51:17 14.9 C 31 %
2077 12-04-2020 11:01:17 15.6 C 30 %
2078 12-04-2020 11:11:17 17 C 27 %
2079 12-04-2020 11:21:17 17.6 C 27 %
2080 12-04-2020 11:31:17 18 C 26 %
2081 12-04-2020 11:41:17 18.5 C 24 %
2082 12-04-2020 11:51:17 19.1 C 20 %
2083 12-04-2020 12:01:17 20.6 C 20 %
2084 12-04-2020 12:11:17 20.8 C 20 %
2085 12-04-2020 12:21:17 21.7 C 20 %
2086 12-04-2020 12:31:17 21.6 C 20 %
2087 12-04-2020 12:41:17 21.8 C 20 %
2088 12-04-2020 12:51:18 21.2 C 20 %
2089 12-04-2020 13:01:17 21.7 C 20 %
2090 12-04-2020 13:11:17 21.7 C 20 %
2091 12-04-2020 13:21:17 22 C 20 %
2092 12-04-2020 13:31:17 21.7 C 20 %
2093 12-04-2020 13:41:17 22 C 20 %
2094 12-04-2020 13:51:17 22.1 C 20 %
2095 12-04-2020 14:01:17 22.4 C 20 %
2096 12-04-2020 14:11:17 22.8 C 20 %
2097 12-04-2020 14:21:17 22.9 C 20 %
2098 12-04-2020 14:31:17 26.2 C 20 %
2099 12-04-2020 14:41:17 28.6 C 20 %
2100 12-04-2020 14:51:17 28.5 C 20 %
Sensor: Nr:Datum:Temp:Feuchte:
Aussen-T/F 2101 12-04-2020 15:01:17 30.3 C 20 %
2102 12-04-2020 15:11:17 27.7 C 20 %
2103 12-04-2020 15:21:17 27.9 C 20 %
2104 12-04-2020 15:31:18 30.7 C 20 %
2105 12-04-2020 15:41:18 30.5 C 20 %
2106 12-04-2020 15:51:18 28.3 C 20 %
2107 12-04-2020 16:01:17 30.5 C 20 %
2108 12-04-2020 16:11:17 33.2 C 20 %
2109 12-04-2020 16:21:17 32.8 C 20 %
2110 12-04-2020 16:31:17 27.8 C 20 %
2111 12-04-2020 16:41:17 26 C 20 %
2112 12-04-2020 16:51:17 24.7 C 20 %
2113 12-04-2020 17:01:17 29.6 C 20 %
2114 12-04-2020 17:11:18 29.6 C 20 %
2115 12-04-2020 17:21:17 29.5 C 20 %
2116 12-04-2020 17:31:17 26.5 C 20 %
2117 12-04-2020 17:41:17 29.3 C 20 %
2118 12-04-2020 17:51:17 29.8 C 20 %
2119 12-04-2020 18:01:18 24.6 C 20 %
2120 12-04-2020 18:11:18 24 C 20 %
2121 12-04-2020 18:21:17 24 C 20 %
2122 12-04-2020 18:31:17 23.6 C 20 %
2123 12-04-2020 18:41:17 22.9 C 20 %
2124 12-04-2020 18:51:17 22.4 C 20 %
2125 12-04-2020 19:01:17 22.5 C 20 %
Sensor: Nr:Datum:Temp:Feuchte:
Aussen-T/F 2126 12-04-2020 19:11:17 22.4 C 20 %
2127 12-04-2020 19:21:17 22 C 20 %
2128 12-04-2020 19:31:17 21.6 C 20 %
2129 12-04-2020 19:41:17 20.3 C 20 %
2130 12-04-2020 19:51:18 19.1 C 20 %
2131 12-04-2020 20:01:18 18.2 C 20 %
2132 12-04-2020 20:11:18 17.9 C 20 %
2133 12-04-2020 20:21:17 17.5 C 20 %
2134 12-04-2020 20:31:18 17 C 20 %
2135 12-04-2020 20:41:18 16.8 C 20 %
2136 12-04-2020 20:51:17 16 C 20 %
2137 12-04-2020 21:01:17 15.5 C 20 %
2138 12-04-2020 21:11:17 14 C 20 %
2139 12-04-2020 21:22:17 13.5 C 20 %
2140 12-04-2020 21:31:17 13.2 C 21 %
2141 12-04-2020 21:41:17 13.2 C 20 %
2142 12-04-2020 21:51:17 13.3 C 21 %
2143 12-04-2020 22:01:17 13.4 C 20 %
2144 12-04-2020 22:11:17 13 C 21 %
2145 12-04-2020 22:22:17 12.9 C 22 %
2146 12-04-2020 22:32:17 12.2 C 23 %
2147 12-04-2020 22:42:17 11.8 C 26 %
2148 12-04-2020 22:51:17 11.7 C 25 %
2149 12-04-2020 23:01:18 11.5 C 25 %
2150 12-04-2020 23:11:18 11.1 C 26 %
Sensor: Nr:Datum:Temp:Feuchte:
Aussen-T/F 2151 12-04-2020 23:21:17 10.9 C 27 %
2152 12-04-2020 23:32:17 10.7 C 28 %
2153 12-04-2020 23:41:17 10.3 C 28 %
2154 12-04-2020 23:52:17 10.5 C 28 %
2155 13-04-2020 00:01:17 10.6 C 28 %
2156 13-04-2020 00:11:17 10.4 C 29 %
2157 13-04-2020 00:21:18 10.4 C 30 %
2158 13-04-2020 00:31:17 10.1 C 30 %
2159 13-04-2020 00:41:17 9.9 C 31 %
2160 13-04-2020 00:51:17 9.7 C 31 %
2161 13-04-2020 01:01:18 9.5 C 31 %
2162 13-04-2020 01:11:18 9.4 C 32 %
2163 13-04-2020 01:21:18 9 C 32 %
2164 13-04-2020 01:31:18 9.3 C 32 %
2165 13-04-2020 01:41:18 9.2 C 32 %
2166 13-04-2020 01:51:18 9.3 C 32 %
2167 13-04-2020 02:02:17 9.2 C 32 %
2168 13-04-2020 02:12:17 9.2 C 32 %
2169 13-04-2020 02:21:17 9.1 C 32 %
2170 13-04-2020 02:31:18 9 C 33 %
2171 13-04-2020 02:41:18 8.6 C 34 %
2172 13-04-2020 02:51:17 8.6 C 34 %
2173 13-04-2020 03:01:18 8.4 C 34 %
2174 13-04-2020 03:11:18 8.2 C 35 %
2175 13-04-2020 03:22:17 7.9 C 35 %
Sensor: Nr:Datum:Temp:Feuchte:
Aussen-T/F 2176 13-04-2020 03:32:17 8.1 C 35 %
2177 13-04-2020 03:42:17 8 C 35 %
2178 13-04-2020 03:51:17 7.8 C 35 %
2179 13-04-2020 04:02:17 7.5 C 36 %
2180 13-04-2020 04:12:17 7.2 C 36 %
2181 13-04-2020 04:21:18 6.8 C 38 %
2182 13-04-2020 04:32:17 6.8 C 38 %
2183 13-04-2020 04:41:17 6.7 C 39 %
2184 13-04-2020 04:52:17 7.7 C 37 %
2185 13-04-2020 05:02:17 7.3 C 37 %
2186 13-04-2020 05:12:17 7.5 C 38 %
2187 13-04-2020 05:22:17 7.8 C 38 %
2188 13-04-2020 05:32:17 7.6 C 37 %
2189 13-04-2020 05:42:17 7.4 C 37 %
2190 13-04-2020 05:52:17 7.2 C 38 %
2191 13-04-2020 06:02:17 7.2 C 38 %
2192 13-04-2020 06:12:17 6.6 C 39 %
2193 13-04-2020 06:22:17 6.2 C 39 %
2194 13-04-2020 06:32:17 6.3 C 40 %
2195 13-04-2020 06:42:17 6.3 C 40 %
2196 13-04-2020 06:52:17 6.4 C 40 %
2197 13-04-2020 07:02:17 6.5 C 40 %
2198 13-04-2020 07:12:17 7.2 C 39 %
2199 13-04-2020 07:22:17 7.6 C 38 %
2200 13-04-2020 07:32:17 8.1 C 37 %
Sensor: Nr:Datum:Temp:Feuchte:
Aussen-T/F 2201 13-04-2020 07:42:17 8.3 C 37 %
2202 13-04-2020 07:52:17 8.5 C 37 %
2203 13-04-2020 08:02:17 8.6 C 36 %
2204 13-04-2020 08:12:18 8.9 C 36 %
2205 13-04-2020 08:22:17 9 C 36 %
2206 13-04-2020 08:32:17 9.4 C 36 %
2207 13-04-2020 08:42:17 10.7 C 37 %
2208 13-04-2020 08:52:17 11.1 C 36 %
2209 13-04-2020 09:02:17 10.7 C 37 %
2210 13-04-2020 09:12:17 10.7 C 37 %
2211 13-04-2020 09:22:17 11 C 36 %
2212 13-04-2020 09:32:17 11.5 C 36 %
2213 13-04-2020 09:42:17 11.9 C 35 %
2214 13-04-2020 09:52:17 11.4 C 35 %
2215 13-04-2020 10:02:17 11.2 C 35 %
2216 13-04-2020 10:12:17 11.1 C 35 %
2217 13-04-2020 10:22:17 11 C 34 %
2218 13-04-2020 10:32:17 11.1 C 34 %
2219 13-04-2020 10:42:17 11.3 C 34 %
2220 13-04-2020 10:52:17 11.6 C 33 %
2221 13-04-2020 11:02:17 11.6 C 33 %
2222 13-04-2020 11:12:17 11.4 C 32 %
2223 13-04-2020 11:22:17 11.8 C 32 %
2224 13-04-2020 11:32:17 11.5 C 31 %
2225 13-04-2020 11:42:17 11.1 C 31 %
Sensor: Nr:Datum:Temp:Feuchte:
Aussen-T/F 2226 13-04-2020 11:52:16 10.8 C 32 %
2227 13-04-2020 12:02:17 10.9 C 32 %
2228 13-04-2020 12:12:17 10.5 C 33 %
2229 13-04-2020 12:22:17 10.4 C 33 %
2230 13-04-2020 12:32:17 10.7 C 32 %
2231 13-04-2020 12:42:17 11.1 C 32 %
2232 13-04-2020 12:52:17 10.6 C 32 %
2233 13-04-2020 13:02:16 10.3 C 32 %
2234 13-04-2020 13:12:16 10.2 C 32 %
2235 13-04-2020 13:22:17 10.2 C 32 %
2236 13-04-2020 13:32:17 9.6 C 33 %
2237 13-04-2020 13:42:17 8.6 C 35 %
2238 13-04-2020 13:52:17 7.6 C 39 %
2239 13-04-2020 14:02:17 7.5 C 40 %
2240 13-04-2020 14:12:17 7.7 C 38 %
2241 13-04-2020 14:22:16 8.7 C 36 %
2242 13-04-2020 14:32:17 9.2 C 35 %
2243 13-04-2020 14:42:17 9.6 C 34 %
2244 13-04-2020 14:52:16 10.9 C 31 %
2245 13-04-2020 15:02:17 12.4 C 26 %
2246 13-04-2020 15:12:17 12.3 C 25 %
2247 13-04-2020 15:22:17 12.7 C 20 %
2248 13-04-2020 15:32:17 11.8 C 20 %
2249 13-04-2020 15:42:17 12.4 C 20 %
2250 13-04-2020 15:52:16 13.2 C 20 %
Sensor: Nr:Datum:Temp:Feuchte:
Aussen-T/F 2251 13-04-2020 16:02:16 12.2 C 20 %
2252 13-04-2020 16:12:16 14.4 C 20 %
2253 13-04-2020 16:22:16 15 C 20 %
2254 13-04-2020 16:32:17 16 C 20 %
2255 13-04-2020 16:42:17 14.9 C 20 %
2256 13-04-2020 16:52:16 16.5 C 20 %
2257 13-04-2020 17:02:17 15.2 C 20 %
2258 13-04-2020 17:12:17 15.6 C 20 %
2259 13-04-2020 17:22:16 15 C 20 %
2260 13-04-2020 17:32:16 15 C 20 %
2261 13-04-2020 17:42:16 14.5 C 20 %
2262 13-04-2020 17:52:16 15.4 C 20 %
2263 13-04-2020 18:02:16 13.2 C 20 %
2264 13-04-2020 18:12:16 12.5 C 20 %
2265 13-04-2020 18:22:17 12.1 C 20 %
2266 13-04-2020 18:32:17 11.9 C 20 %
2267 13-04-2020 18:42:18 11.1 C 20 %
2268 13-04-2020 18:52:16 11.1 C 20 %
2269 13-04-2020 19:02:16 10.8 C 20 %
2270 13-04-2020 19:12:16 10.5 C 20 %
2271 13-04-2020 19:22:16 10.2 C 20 %
2272 13-04-2020 19:32:17 10 C 20 %
2273 13-04-2020 19:42:17 9.8 C 20 %
2274 13-04-2020 19:52:16 9.6 C 20 %
2275 13-04-2020 20:02:16 9 C 20 %
Sensor: Nr:Datum:Temp:Feuchte:
Aussen-T/F 2276 13-04-2020 20:12:16 8.6 C 20 %
2277 13-04-2020 20:22:16 8.5 C 20 %
2278 13-04-2020 20:32:16 8.4 C 20 %
2279 13-04-2020 20:42:16 8.2 C 20 %
2280 13-04-2020 20:52:16 7.5 C 20 %
2281 13-04-2020 21:02:16 7.5 C 20 %
2282 13-04-2020 21:12:16 7.4 C 20 %
2283 13-04-2020 21:22:16 7.3 C 20 %
2284 13-04-2020 21:32:17 7.2 C 20 %
2285 13-04-2020 21:42:17 6.7 C 20 %
2286 13-04-2020 21:52:16 6.5 C 20 %
2287 13-04-2020 22:02:16 6.1 C 20 %
2288 13-04-2020 22:12:16 5.5 C 20 %
2289 13-04-2020 22:22:16 5.1 C 20 %
2290 13-04-2020 22:32:16 4.6 C 23 %
2291 13-04-2020 22:42:16 4.4 C 25 %
2292 13-04-2020 22:52:16 4.1 C 25 %
2293 13-04-2020 23:02:16 3.9 C 26 %
2294 13-04-2020 23:12:16 3.8 C 27 %
2295 13-04-2020 23:22:16 3.5 C 30 %
2296 13-04-2020 23:32:17 3.3 C 29 %
2297 13-04-2020 23:42:17 4 C 26 %
2298 13-04-2020 23:52:16 4 C 25 %
2299 14-04-2020 00:02:16 3.3 C 28 %
2300 14-04-2020 00:12:16 4.1 C 25 %
Sensor: Nr:Datum:Temp:Feuchte:
Aussen-T/F 2301 14-04-2020 00:22:16 3.2 C 27 %
2302 14-04-2020 00:32:16 3.3 C 27 %
2303 14-04-2020 00:42:16 2.8 C 29 %
2304 14-04-2020 00:52:16 2.9 C 29 %
2305 14-04-2020 01:02:16 3.1 C 27 %
2306 14-04-2020 01:12:16 3.4 C 27 %
2307 14-04-2020 01:22:16 2.8 C 28 %
2308 14-04-2020 01:32:16 2.1 C 30 %
2309 14-04-2020 01:42:16 1.9 C 33 %
2310 14-04-2020 01:52:16 1.2 C 35 %
2311 14-04-2020 02:02:16 1.6 C 35 %
2312 14-04-2020 02:12:16 1.3 C 35 %
2313 14-04-2020 02:22:16 0.9 C 36 %
2314 14-04-2020 02:32:16 0.8 C 36 %
2315 14-04-2020 02:42:16 1.1 C 35 %
2316 14-04-2020 02:52:18 1 C 35 %
2317 14-04-2020 03:02:18 1.1 C 35 %
2318 14-04-2020 03:12:18 1.1 C 35 %
2319 14-04-2020 03:22:17 0.7 C 36 %
2320 14-04-2020 03:32:18 1.1 C 36 %
2321 14-04-2020 03:42:18 0.9 C 36 %
2322 14-04-2020 03:52:17 1 C 35 %
2323 14-04-2020 04:02:18 0.9 C 36 %
2324 14-04-2020 04:12:18 0.9 C 36 %
2325 14-04-2020 04:22:17 0.6 C 36 %
Sensor: Nr:Datum:Temp:Feuchte:
Aussen-T/F 2326 14-04-2020 04:32:17 0.7 C 36 %
2327 14-04-2020 04:42:17 0.7 C 36 %
2328 14-04-2020 04:52:18 0.6 C 36 %
2329 14-04-2020 05:02:17 0 C 37 %
2330 14-04-2020 05:12:17 0 C 38 %
2331 14-04-2020 05:22:17 0.6 C 38 %
2332 14-04-2020 05:32:17 0.6 C 39 %
2333 14-04-2020 05:42:17 0.7 C 39 %
2334 14-04-2020 05:52:17 0 C 39 %
2335 14-04-2020 06:02:17 -0.2 C 40 %
2336 14-04-2020 06:12:17 -0.7 C 41 %
2337 14-04-2020 06:22:17 -0.9 C 41 %
2338 14-04-2020 06:32:17 -0.4 C 41 %
2339 14-04-2020 06:42:17 -0.1 C 41 %
2340 14-04-2020 06:52:17 0.5 C 41 %
2341 14-04-2020 07:02:17 0.7 C 41 %
2342 14-04-2020 07:12:17 1.1 C 40 %
2343 14-04-2020 07:22:17 1.3 C 39 %
2344 14-04-2020 07:32:17 1.6 C 39 %
2345 14-04-2020 07:42:17 1.8 C 39 %
2346 14-04-2020 07:52:18 2.1 C 37 %
2347 14-04-2020 08:02:17 2.2 C 38 %
2348 14-04-2020 08:12:17 2.3 C 37 %
2349 14-04-2020 08:22:18 1.7 C 39 %
2350 14-04-2020 08:32:17 1.7 C 40 %
Sensor: Nr:Datum:Temp:Feuchte:
Aussen-T/F 2351 14-04-2020 08:42:17 2.2 C 38 %
2352 14-04-2020 08:52:17 2.4 C 38 %
2353 14-04-2020 09:02:18 3 C 37 %
2354 14-04-2020 09:12:18 3.8 C 36 %
2355 14-04-2020 09:22:17 4.7 C 34 %
2356 14-04-2020 09:32:18 5.7 C 32 %
2357 14-04-2020 09:42:18 5.3 C 31 %
2358 14-04-2020 09:52:17 6 C 31 %
2359 14-04-2020 10:02:17 6.6 C 30 %
2360 14-04-2020 10:12:17 5.8 C 30 %
2361 14-04-2020 10:22:17 5.9 C 30 %
2362 14-04-2020 10:32:17 6.7 C 30 %
2363 14-04-2020 10:42:17 7.4 C 26 %
2364 14-04-2020 10:52:18 8.4 C 23 %
2365 14-04-2020 11:02:17 8.2 C 21 %
2366 14-04-2020 11:12:17 8 C 20 %
2367 14-04-2020 11:22:17 7.9 C 20 %
2368 14-04-2020 11:32:17 8.2 C 20 %
2369 14-04-2020 11:42:17 9.1 C 20 %
2370 14-04-2020 11:52:18 8.4 C 20 %
2371 14-04-2020 12:02:17 8.5 C 20 %
2372 14-04-2020 12:12:17 8.6 C 20 %
2373 14-04-2020 12:22:17 8.9 C 20 %
2374 14-04-2020 12:32:17 8.6 C 20 %
2375 14-04-2020 12:42:17 9.8 C 20 %
Sensor: Nr:Datum:Temp:Feuchte:
Aussen-T/F 2376 14-04-2020 12:52:17 10.6 C 20 %
2377 14-04-2020 13:02:18 10.2 C 20 %
2378 14-04-2020 13:12:18 10 C 20 %
2379 14-04-2020 13:22:17 10.4 C 20 %
2380 14-04-2020 13:32:17 10.7 C 20 %
2381 14-04-2020 13:42:17 10 C 20 %
2382 14-04-2020 13:52:18 9.5 C 20 %
2383 14-04-2020 14:02:17 9.8 C 20 %
2384 14-04-2020 14:12:18 10.3 C 20 %
2385 14-04-2020 14:22:18 11.8 C 20 %
2386 14-04-2020 14:32:18 14.5 C 20 %
2387 14-04-2020 14:42:18 17.4 C 20 %
2388 14-04-2020 14:52:17 16.8 C 20 %
2389 14-04-2020 15:02:17 17.6 C 20 %
2390 14-04-2020 15:12:18 21 C 20 %
2391 14-04-2020 15:22:17 14.7 C 20 %
2392 14-04-2020 15:32:17 16.7 C 20 %
2393 14-04-2020 15:42:17 14 C 20 %
2394 14-04-2020 15:52:17 14 C 20 %
2395 14-04-2020 16:02:17 15 C 20 %
2396 14-04-2020 16:12:17 17.2 C 20 %
2397 14-04-2020 16:22:17 17.7 C 20 %
2398 14-04-2020 16:32:18 16.3 C 20 %
2399 14-04-2020 16:42:18 14 C 20 %
2400 14-04-2020 16:52:17 14.5 C 20 %
Sensor: Nr:Datum:Temp:Feuchte:
Aussen-T/F 2401 14-04-2020 17:02:18 12.2 C 20 %
2402 14-04-2020 17:12:18 14.2 C 20 %
2403 14-04-2020 17:22:17 19.2 C 20 %
2404 14-04-2020 17:32:17 16.8 C 20 %
2405 14-04-2020 17:42:18 15.5 C 20 %
2406 14-04-2020 17:52:17 16 C 20 %
2407 14-04-2020 18:02:18 13.4 C 20 %
2408 14-04-2020 18:12:18 12.4 C 20 %
2409 14-04-2020 18:22:17 12.1 C 20 %
2410 14-04-2020 18:32:18 11.9 C 20 %
2411 14-04-2020 18:42:18 11.7 C 20 %
2412 14-04-2020 18:52:17 11.3 C 20 %
2413 14-04-2020 19:02:17 11.2 C 20 %
2414 14-04-2020 19:12:18 11 C 20 %
2415 14-04-2020 19:22:18 10.6 C 20 %
2416 14-04-2020 19:32:18 10.3 C 20 %
2417 14-04-2020 19:42:18 10.1 C 20 %
2418 14-04-2020 19:52:17 9.7 C 20 %
2419 14-04-2020 20:02:17 9.3 C 20 %
2420 14-04-2020 20:12:17 8.9 C 20 %
2421 14-04-2020 20:22:17 7.7 C 20 %
2422 14-04-2020 20:32:17 7 C 23 %
2423 14-04-2020 20:42:18 6.7 C 25 %
2424 14-04-2020 20:52:17 6.8 C 25 %
2425 14-04-2020 21:02:17 6.5 C 25 %
Sensor: Nr:Datum:Temp:Feuchte:
Aussen-T/F 2426 14-04-2020 21:12:17 6.3 C 25 %
2427 14-04-2020 21:22:17 6 C 26 %
2428 14-04-2020 21:32:17 6.1 C 26 %
2429 14-04-2020 21:42:17 5.8 C 27 %
2430 14-04-2020 21:52:17 5.6 C 27 %
2431 14-04-2020 22:02:18 5.6 C 27 %
2432 14-04-2020 22:12:18 5.1 C 29 %
2433 14-04-2020 22:22:17 5.2 C 28 %
2434 14-04-2020 22:32:18 5 C 29 %
2435 14-04-2020 22:42:18 4.7 C 30 %
2436 14-04-2020 22:52:18 4.7 C 30 %
2437 14-04-2020 23:02:18 4.3 C 32 %
2438 14-04-2020 23:12:18 3.6 C 34 %
2439 14-04-2020 23:22:17 3.2 C 35 %
2440 14-04-2020 23:32:17 3 C 35 %
2441 14-04-2020 23:42:17 2.8 C 36 %
2442 14-04-2020 23:52:17 2.6 C 36 %
2443 15-04-2020 00:02:18 2.4 C 37 %
2444 15-04-2020 00:12:18 2.1 C 37 %
2445 15-04-2020 00:22:17 1.7 C 39 %
2446 15-04-2020 00:32:18 1.6 C 39 %
2447 15-04-2020 00:42:18 1.6 C 40 %
2448 15-04-2020 00:52:17 1.6 C 39 %
2449 15-04-2020 01:02:17 1.5 C 40 %
2450 15-04-2020 01:12:17 1.3 C 40 %
Sensor: Nr:Datum:Temp:Feuchte:
Aussen-T/F 2451 15-04-2020 01:22:17 1.2 C 40 %
2452 15-04-2020 01:32:17 1.3 C 40 %
2453 15-04-2020 01:42:17 1.2 C 40 %
2454 15-04-2020 01:52:17 1 C 40 %
2455 15-04-2020 02:02:17 0.8 C 41 %
2456 15-04-2020 02:12:17 0.8 C 42 %
2457 15-04-2020 02:22:17 0.8 C 42 %
2458 15-04-2020 02:32:17 0.7 C 42 %
2459 15-04-2020 02:42:17 0.6 C 42 %
2460 15-04-2020 02:52:17 0.1 C 42 %
2461 15-04-2020 03:02:17 0.2 C 43 %
2462 15-04-2020 03:12:17 0.3 C 43 %
2463 15-04-2020 03:22:17 0.2 C 43 %
2464 15-04-2020 03:32:18 0.5 C 43 %
2465 15-04-2020 03:42:18 0.1 C 43 %
2466 15-04-2020 03:52:18 0 C 43 %
2467 15-04-2020 04:02:18 0.2 C 43 %
2468 15-04-2020 04:12:18 -0.2 C 43 %
2469 15-04-2020 04:22:17 0 C 44 %
2470 15-04-2020 04:32:18 -0.2 C 43 %
2471 15-04-2020 04:42:18 -0.3 C 44 %
2472 15-04-2020 04:52:17 -0.4 C 44 %
2473 15-04-2020 05:02:18 -0.4 C 44 %
2474 15-04-2020 05:12:18 -0.3 C 44 %
2475 15-04-2020 05:22:17 -0.4 C 45 %
Sensor: Nr:Datum:Temp:Feuchte:
Aussen-T/F 2476 15-04-2020 05:32:17 -0.5 C 45 %
2477 15-04-2020 05:42:17 -0.4 C 45 %
2478 15-04-2020 05:52:17 -0.7 C 45 %
2479 15-04-2020 06:02:17 -0.7 C 45 %
2480 15-04-2020 06:12:17 -0.7 C 45 %
2481 15-04-2020 06:22:17 -0.7 C 45 %
2482 15-04-2020 06:32:17 -0.6 C 45 %
2483 15-04-2020 06:42:17 -0.7 C 45 %
2484 15-04-2020 06:52:17 -0.9 C 45 %
2485 15-04-2020 07:02:17 -0.7 C 45 %
2486 15-04-2020 07:12:17 -0.6 C 45 %
2487 15-04-2020 07:22:17 -0.5 C 45 %
2488 15-04-2020 07:32:17 -0.1 C 46 %
2489 15-04-2020 07:42:17 0.1 C 45 %
2490 15-04-2020 07:52:18 0.4 C 45 %
2491 15-04-2020 08:02:17 0.7 C 45 %
2492 15-04-2020 08:12:17 1 C 43 %
2493 15-04-2020 08:22:18 1.4 C 42 %
2494 15-04-2020 08:32:18 1.6 C 41 %
2495 15-04-2020 08:42:18 1.9 C 41 %
2496 15-04-2020 08:52:18 2.4 C 40 %
2497 15-04-2020 09:02:17 2.8 C 40 %
2498 15-04-2020 09:12:17 3 C 38 %
2499 15-04-2020 09:22:18 3.4 C 38 %
2500 15-04-2020 09:32:18 3.5 C 37 %
Sensor: Nr:Datum:Temp:Feuchte:
Aussen-T/F 2501 15-04-2020 09:42:18 4.2 C 36 %
2502 15-04-2020 09:52:17 4.4 C 36 %
2503 15-04-2020 10:02:18 4.9 C 35 %
2504 15-04-2020 10:12:18 5.4 C 35 %
2505 15-04-2020 10:22:18 6.2 C 34 %
2506 15-04-2020 10:32:18 6.9 C 33 %
2507 15-04-2020 10:42:18 7.4 C 31 %
2508 15-04-2020 10:52:18 8.1 C 30 %
2509 15-04-2020 11:02:17 8.5 C 30 %
2510 15-04-2020 11:12:17 9.2 C 29 %
2511 15-04-2020 11:22:18 9.9 C 28 %
2512 15-04-2020 11:32:17 10.4 C 26 %
2513 15-04-2020 11:42:17 11 C 22 %
2514 15-04-2020 11:52:18 11.6 C 20 %
2515 15-04-2020 12:02:17 12.3 C 20 %
2516 15-04-2020 12:12:17 12.2 C 20 %
2517 15-04-2020 12:22:18 13.3 C 20 %
2518 15-04-2020 12:32:18 13.2 C 20 %
2519 15-04-2020 12:42:18 13.3 C 20 %
2520 15-04-2020 12:52:17 13.2 C 20 %
2521 15-04-2020 13:02:17 13.4 C 20 %
2522 15-04-2020 13:12:17 13.5 C 20 %
2523 15-04-2020 13:22:18 13.4 C 20 %
2524 15-04-2020 13:32:18 14.2 C 20 %
2525 15-04-2020 13:42:18 14.4 C 20 %
Sensor: Nr:Datum:Temp:Feuchte:
Aussen-T/F 2526 15-04-2020 13:52:17 14.7 C 20 %
2527 15-04-2020 14:02:17 15.2 C 20 %
2528 15-04-2020 14:12:17 15.5 C 20 %
2529 15-04-2020 14:22:17 16.9 C 20 %
2530 15-04-2020 14:32:17 21.6 C 20 %
2531 15-04-2020 14:42:17 23.9 C 20 %
2532 15-04-2020 14:52:17 25.2 C 20 %
2533 15-04-2020 15:02:18 24.8 C 20 %
2534 15-04-2020 15:12:18 23.5 C 20 %
2535 15-04-2020 15:22:18 24.4 C 20 %
2536 15-04-2020 15:32:18 23.9 C 20 %
2537 15-04-2020 15:42:18 24.5 C 20 %
2538 15-04-2020 15:52:17 24.4 C 20 %
2539 15-04-2020 16:02:18 24.8 C 20 %
2540 15-04-2020 16:12:18 24.6 C 20 %
2541 15-04-2020 16:22:17 23.3 C 20 %
2542 15-04-2020 16:32:18 23.7 C 20 %
2543 15-04-2020 16:42:18 25.4 C 20 %
2544 15-04-2020 16:52:18 25.9 C 20 %
2545 15-04-2020 17:02:17 25.4 C 20 %
2546 15-04-2020 17:12:17 26.8 C 20 %
2547 15-04-2020 17:22:18 24.8 C 20 %
2548 15-04-2020 17:32:17 24 C 20 %
2549 15-04-2020 17:42:17 22.4 C 20 %
2550 15-04-2020 17:52:18 24.4 C 20 %
Sensor: Nr:Datum:Temp:Feuchte:
Aussen-T/F 2551 15-04-2020 18:02:18 20.6 C 20 %
2552 15-04-2020 18:12:18 20.2 C 20 %
2553 15-04-2020 18:22:18 19.7 C 20 %
2554 15-04-2020 18:32:18 19.1 C 20 %
2555 15-04-2020 18:42:18 19.4 C 20 %
2556 15-04-2020 18:52:17 19.4 C 20 %
2557 15-04-2020 19:02:17 18.8 C 20 %
2558 15-04-2020 19:12:17 18.7 C 20 %
2559 15-04-2020 19:22:17 18.2 C 20 %
2560 15-04-2020 19:32:17 18 C 20 %
2561 15-04-2020 19:42:18 17.3 C 20 %
2562 15-04-2020 19:52:17 15.3 C 20 %
2563 15-04-2020 20:02:18 14 C 20 %
2564 15-04-2020 20:12:18 13.6 C 20 %
2565 15-04-2020 20:22:18 13.4 C 20 %
2566 15-04-2020 20:32:17 13.1 C 20 %
2567 15-04-2020 20:42:18 12.7 C 20 %
2568 15-04-2020 20:52:17 12 C 20 %
2569 15-04-2020 21:02:18 12 C 20 %
2570 15-04-2020 21:12:18 11 C 20 %
2571 15-04-2020 21:22:17 11 C 20 %
2572 15-04-2020 21:32:17 10.5 C 20 %
2573 15-04-2020 21:42:17 9.4 C 25 %
2574 15-04-2020 21:52:17 9 C 26 %
2575 15-04-2020 22:02:17 8.9 C 27 %
Sensor: Nr:Datum:Temp:Feuchte:
Aussen-T/F 2576 15-04-2020 22:12:17 8.6 C 28 %
2577 15-04-2020 22:22:17 8.8 C 28 %
2578 15-04-2020 22:32:18 8.1 C 28 %
2579 15-04-2020 22:42:18 7.7 C 29 %
2580 15-04-2020 22:52:17 7.3 C 30 %
2581 15-04-2020 23:02:17 7.1 C 30 %
2582 15-04-2020 23:12:17 7.2 C 30 %
2583 15-04-2020 23:22:17 7 C 30 %
2584 15-04-2020 23:32:17 6.6 C 31 %
2585 15-04-2020 23:42:18 6.4 C 32 %
2586 15-04-2020 23:52:17 6.2 C 32 %
2587 16-04-2020 00:02:17 6.2 C 32 %
2588 16-04-2020 00:12:17 6 C 33 %
2589 16-04-2020 00:22:17 5.8 C 34 %
2590 16-04-2020 00:32:18 5.5 C 35 %
2591 16-04-2020 00:42:18 5.3 C 35 %
2592 16-04-2020 00:52:17 5.2 C 35 %
2593 16-04-2020 01:02:17 4.8 C 35 %
2594 16-04-2020 01:12:17 4.8 C 35 %
2595 16-04-2020 01:22:17 5.1 C 35 %
2596 16-04-2020 01:32:18 5.1 C 35 %
2597 16-04-2020 01:42:18 4.7 C 36 %
2598 16-04-2020 01:52:17 4.8 C 36 %
2599 16-04-2020 02:02:18 4.6 C 36 %
2600 16-04-2020 02:12:18 4.3 C 36 %
Sensor: Nr:Datum:Temp:Feuchte:
Aussen-T/F 2601 16-04-2020 02:22:18 3.9 C 38 %
2602 16-04-2020 02:32:17 4.1 C 38 %
2603 16-04-2020 02:42:17 4 C 38 %
2604 16-04-2020 02:52:17 3.7 C 39 %
2605 16-04-2020 03:02:17 3.6 C 40 %
2606 16-04-2020 03:12:17 3.6 C 39 %
2607 16-04-2020 03:22:17 3.5 C 39 %
2608 16-04-2020 03:32:17 3.3 C 39 %
2609 16-04-2020 03:42:17 3 C 40 %
2610 16-04-2020 03:52:17 2.9 C 41 %
2611 16-04-2020 04:02:17 3.2 C 40 %
2612 16-04-2020 04:12:17 3.2 C 40 %
2613 16-04-2020 04:22:17 2.7 C 41 %
2614 16-04-2020 04:32:18 2.6 C 41 %
2615 16-04-2020 04:42:18 3 C 41 %
2616 16-04-2020 04:52:17 2.6 C 42 %
2617 16-04-2020 05:02:17 2.7 C 42 %
2618 16-04-2020 05:12:17 2.7 C 42 %
2619 16-04-2020 05:22:17 2.6 C 42 %
2620 16-04-2020 05:32:17 2.3 C 42 %
2621 16-04-2020 05:42:17 2 C 42 %
2622 16-04-2020 05:52:17 2.1 C 43 %
2623 16-04-2020 06:02:18 2.4 C 43 %
2624 16-04-2020 06:12:18 2 C 42 %
2625 16-04-2020 06:22:17 1.6 C 44 %
Sensor: Nr:Datum:Temp:Feuchte:
Aussen-T/F 2626 16-04-2020 06:32:17 1.4 C 44 %
2627 16-04-2020 06:42:17 1.8 C 45 %
2628 16-04-2020 06:52:17 1.8 C 45 %
2629 16-04-2020 07:02:17 1.8 C 45 %
2630 16-04-2020 07:12:17 1.8 C 45 %
2631 16-04-2020 07:22:17 2.2 C 44 %
2632 16-04-2020 07:32:17 2.1 C 44 %
2633 16-04-2020 07:42:17 2.1 C 44 %
2634 16-04-2020 07:52:17 2.5 C 44 %
2635 16-04-2020 08:02:17 2.5 C 44 %
2636 16-04-2020 08:12:17 2.6 C 44 %
2637 16-04-2020 08:22:17 3 C 43 %
2638 16-04-2020 08:32:18 3.2 C 42 %
2639 16-04-2020 08:42:18 3.5 C 42 %
2640 16-04-2020 08:52:17 3.6 C 41 %
2641 16-04-2020 09:02:18 3.9 C 41 %
2642 16-04-2020 09:12:18 4.2 C 41 %
2643 16-04-2020 09:22:17 4.5 C 40 %
2644 16-04-2020 09:32:17 5.1 C 40 %
2645 16-04-2020 09:42:17 5.8 C 39 %
2646 16-04-2020 09:52:17 6.6 C 37 %
2647 16-04-2020 10:02:18 7 C 36 %
2648 16-04-2020 10:12:18 7.5 C 36 %
2649 16-04-2020 10:22:17 8.1 C 35 %
2650 16-04-2020 10:32:17 9.4 C 34 %
Sensor: Nr:Datum:Temp:Feuchte:
Aussen-T/F 2651 16-04-2020 10:42:18 10.4 C 31 %
2652 16-04-2020 10:52:17 11.2 C 30 %
2653 16-04-2020 11:02:18 12.2 C 29 %
2654 16-04-2020 11:12:18 14.2 C 25 %
2655 16-04-2020 11:22:17 15.5 C 20 %
2656 16-04-2020 11:32:17 16.8 C 20 %
2657 16-04-2020 11:42:17 17.6 C 20 %
2658 16-04-2020 11:52:17 18 C 20 %
2659 16-04-2020 12:02:18 18.4 C 20 %
2660 16-04-2020 12:12:18 18.7 C 20 %
2661 16-04-2020 12:22:17 19.1 C 20 %
2662 16-04-2020 12:32:18 19.3 C 20 %
2663 16-04-2020 12:42:18 19.5 C 20 %
2664 16-04-2020 12:52:17 19.6 C 20 %
2665 16-04-2020 13:02:18 20.1 C 20 %
2666 16-04-2020 13:12:18 20.5 C 20 %
2667 16-04-2020 13:22:17 20.8 C 20 %
2668 16-04-2020 13:32:18 21.1 C 20 %
2669 16-04-2020 13:42:18 21.5 C 20 %
2670 16-04-2020 13:52:17 21.7 C 20 %
2671 16-04-2020 14:02:17 22 C 20 %
2672 16-04-2020 14:12:17 22.4 C 20 %
2673 16-04-2020 14:22:17 22.8 C 20 %
2674 16-04-2020 14:32:17 26.2 C 20 %
2675 16-04-2020 14:42:17 28 C 20 %
Sensor: Nr:Datum:Temp:Feuchte:
Aussen-T/F 2676 16-04-2020 14:52:17 29.6 C 20 %
2677 16-04-2020 15:02:17 29.8 C 20 %
2678 16-04-2020 15:12:17 29.5 C 20 %
2679 16-04-2020 15:22:17 28.5 C 20 %
2680 16-04-2020 15:32:18 30.1 C 20 %
2681 16-04-2020 15:42:18 25.8 C 20 %
2682 16-04-2020 15:52:17 27.1 C 20 %
2683 16-04-2020 16:02:17 29.5 C 20 %
2684 16-04-2020 16:12:17 28.4 C 20 %
2685 16-04-2020 16:22:17 26.5 C 20 %
2686 16-04-2020 16:32:17 26.6 C 20 %
2687 16-04-2020 16:42:18 27.2 C 20 %
2688 16-04-2020 16:52:17 24.9 C 20 %
2689 16-04-2020 17:02:17 25 C 20 %
2690 16-04-2020 17:12:17 26.1 C 20 %
2691 16-04-2020 17:22:18 28.3 C 20 %
2692 16-04-2020 17:32:17 27.6 C 20 %
2693 16-04-2020 17:42:17 27.3 C 20 %
2694 16-04-2020 17:52:17 26.5 C 20 %
2695 16-04-2020 18:02:17 25.6 C 20 %
2696 16-04-2020 18:12:17 24.3 C 20 %
2697 16-04-2020 18:22:17 24.4 C 20 %
2698 16-04-2020 18:32:17 24.2 C 20 %
2699 16-04-2020 18:42:17 23.9 C 20 %
2700 16-04-2020 18:52:17 24 C 20 %
Sensor: Nr:Datum:Temp:Feuchte:
Aussen-T/F 2701 16-04-2020 19:02:17 23.2 C 20 %
2702 16-04-2020 19:12:17 22.9 C 20 %
2703 16-04-2020 19:22:17 22.2 C 20 %
2704 16-04-2020 19:32:18 21.9 C 20 %
2705 16-04-2020 19:42:18 21.2 C 20 %
2706 16-04-2020 19:52:17 20.5 C 20 %
2707 16-04-2020 20:02:17 19.5 C 20 %
2708 16-04-2020 20:12:17 19.2 C 20 %
2709 16-04-2020 20:22:17 19.3 C 20 %
2710 16-04-2020 20:32:18 19.1 C 20 %
2711 16-04-2020 20:42:18 18.9 C 20 %
2712 16-04-2020 20:52:18 18.5 C 20 %
2713 16-04-2020 21:02:17 17.9 C 20 %
2714 16-04-2020 21:12:17 16.5 C 20 %
2715 16-04-2020 21:22:17 16.1 C 20 %
2716 16-04-2020 21:32:18 15.5 C 20 %
2717 16-04-2020 21:42:18 14.7 C 21 %
2718 16-04-2020 21:52:17 14.4 C 22 %
2719 16-04-2020 22:02:17 14.5 C 22 %
2720 16-04-2020 22:12:17 13.5 C 25 %
2721 16-04-2020 22:22:17 14.1 C 25 %
2722 16-04-2020 22:32:17 13.8 C 25 %
2723 16-04-2020 22:42:18 13.1 C 26 %
2724 16-04-2020 22:52:17 12.4 C 28 %
2725 16-04-2020 23:02:17 12.5 C 29 %
Sensor: Nr:Datum:Temp:Feuchte:
Aussen-T/F 2726 16-04-2020 23:12:17 12.2 C 30 %
2727 16-04-2020 23:22:17 11.7 C 30 %
2728 16-04-2020 23:32:18 11.6 C 31 %
2729 16-04-2020 23:42:18 11.6 C 31 %
2730 16-04-2020 23:52:17 11.8 C 31 %
2731 17-04-2020 00:02:18 11.4 C 31 %
2732 17-04-2020 00:12:18 11 C 31 %
2733 17-04-2020 00:22:17 11 C 32 %
2734 17-04-2020 00:32:17 11 C 32 %
2735 17-04-2020 00:42:17 11 C 32 %
2736 17-04-2020 00:52:18 10.4 C 33 %
2737 17-04-2020 01:02:17 10.1 C 34 %
2738 17-04-2020 01:12:18 10.1 C 34 %
2739 17-04-2020 01:22:18 9.8 C 35 %
2740 17-04-2020 01:32:18 10 C 35 %
2741 17-04-2020 01:42:18 10 C 35 %
2742 17-04-2020 01:52:17 9.5 C 36 %
2743 17-04-2020 02:02:17 9.7 C 36 %
2744 17-04-2020 02:12:17 9.6 C 36 %
2745 17-04-2020 02:22:17 9.1 C 36 %
2746 17-04-2020 02:32:17 8.9 C 37 %
2747 17-04-2020 02:42:17 8.5 C 38 %
2748 17-04-2020 02:52:17 8.1 C 38 %
2749 17-04-2020 03:02:17 7.9 C 39 %
2750 17-04-2020 03:12:18 7.9 C 40 %
Sensor: Nr:Datum:Temp:Feuchte:
Aussen-T/F 2751 17-04-2020 03:22:18 7.8 C 40 %
2752 17-04-2020 03:32:17 7.8 C 40 %
2753 17-04-2020 03:42:18 7.8 C 40 %
2754 17-04-2020 03:52:18 8.5 C 39 %
2755 17-04-2020 04:02:17 8.4 C 39 %
2756 17-04-2020 04:12:17 8.3 C 39 %
2757 17-04-2020 04:22:17 8 C 39 %
2758 17-04-2020 04:32:17 7.9 C 40 %
2759 17-04-2020 04:42:17 8 C 40 %
2760 17-04-2020 04:52:17 7.8 C 40 %
2761 17-04-2020 05:02:17 7.5 C 40 %
2762 17-04-2020 05:12:18 6.9 C 41 %
2763 17-04-2020 05:22:17 6.7 C 42 %
2764 17-04-2020 05:32:18 6.6 C 42 %
2765 17-04-2020 05:42:18 6.7 C 43 %
2766 17-04-2020 05:52:18 6.5 C 42 %
2767 17-04-2020 06:02:18 6.5 C 43 %
2768 17-04-2020 06:12:18 6.2 C 43 %
2769 17-04-2020 06:22:17 6 C 43 %
2770 17-04-2020 06:32:17 6 C 44 %
2771 17-04-2020 06:42:17 5.8 C 44 %
2772 17-04-2020 06:52:17 5.8 C 44 %
2773 17-04-2020 07:02:18 5.8 C 45 %
2774 17-04-2020 07:12:18 5.9 C 45 %
2775 17-04-2020 07:22:18 6.1 C 45 %
Sensor: Nr:Datum:Temp:Feuchte:
Aussen-T/F 2776 17-04-2020 07:32:17 6.1 C 45 %
2777 17-04-2020 07:42:17 6.3 C 45 %
2778 17-04-2020 07:52:17 6.3 C 45 %
2779 17-04-2020 08:02:17 6.5 C 45 %
2780 17-04-2020 08:12:17 6.7 C 45 %
2781 17-04-2020 08:22:17 6.9 C 45 %
2782 17-04-2020 08:32:18 7 C 44 %
2783 17-04-2020 08:42:18 7.6 C 44 %
2784 17-04-2020 08:52:17 7.9 C 44 %
2785 17-04-2020 09:02:18 8.4 C 42 %
2786 17-04-2020 09:12:18 8.6 C 42 %
2787 17-04-2020 09:22:17 8.8 C 41 %
2788 17-04-2020 09:32:17 9.3 C 41 %
2789 17-04-2020 09:42:17 9.6 C 40 %
2790 17-04-2020 09:52:18 10.3 C 39 %
2791 17-04-2020 10:02:17 10.8 C 38 %
2792 17-04-2020 10:12:17 11 C 37 %
2793 17-04-2020 10:22:18 11.8 C 36 %
2794 17-04-2020 10:32:18 12.4 C 35 %
2795 17-04-2020 10:42:18 13 C 34 %
2796 17-04-2020 10:52:17 13.9 C 34 %
2797 17-04-2020 11:02:17 14.6 C 32 %
2798 17-04-2020 11:12:17 15.8 C 30 %
2799 17-04-2020 11:22:18 16.5 C 28 %
2800 17-04-2020 11:32:17 17.1 C 28 %
Sensor: Nr:Datum:Temp:Feuchte:
Aussen-T/F 2801 17-04-2020 11:42:17 17.7 C 26 %
2802 17-04-2020 11:52:17 17.9 C 25 %
2803 17-04-2020 12:02:18 18.5 C 25 %
2804 17-04-2020 12:12:18 18.7 C 24 %
2805 17-04-2020 12:22:17 19.1 C 22 %
2806 17-04-2020 12:32:17 19.7 C 20 %
2807 17-04-2020 12:42:17 19.7 C 20 %
2808 17-04-2020 12:52:17 19.7 C 20 %
2809 17-04-2020 13:02:18 20 C 20 %
2810 17-04-2020 13:12:18 20.4 C 20 %
2811 17-04-2020 13:22:17 20.6 C 20 %
2812 17-04-2020 13:32:17 20.8 C 20 %
2813 17-04-2020 13:42:17 21.1 C 20 %
2814 17-04-2020 13:52:17 21.6 C 20 %
2815 17-04-2020 14:02:18 21.8 C 20 %
2816 17-04-2020 14:12:18 22.6 C 20 %
2817 17-04-2020 14:22:17 23.2 C 20 %
2818 17-04-2020 14:32:17 25.2 C 20 %
2819 17-04-2020 14:42:17 29 C 20 %
2820 17-04-2020 14:52:17 32.1 C 20 %
2821 17-04-2020 15:02:17 30.9 C 20 %
2822 17-04-2020 15:12:17 31.4 C 20 %
2823 17-04-2020 15:22:17 29.6 C 20 %
2824 17-04-2020 15:32:17 29.2 C 20 %
2825 17-04-2020 15:42:17 29 C 20 %
Sensor: Nr:Datum:Temp:Feuchte:
Aussen-T/F 2826 17-04-2020 15:52:18 25.7 C 20 %
2827 17-04-2020 16:02:17 30.3 C 20 %
2828 17-04-2020 16:12:17 30.2 C 20 %
2829 17-04-2020 16:22:17 27.5 C 20 %
2830 17-04-2020 16:32:17 28.2 C 20 %
2831 17-04-2020 16:42:17 28.2 C 20 %
2832 17-04-2020 16:52:17 27.7 C 20 %
2833 17-04-2020 17:02:18 29.6 C 20 %
2834 17-04-2020 17:12:18 29.4 C 20 %
2835 17-04-2020 17:22:17 29.5 C 20 %
2836 17-04-2020 17:32:17 30.4 C 20 %
2837 17-04-2020 17:42:18 27.7 C 20 %
2838 17-04-2020 17:52:17 28.5 C 20 %
2839 17-04-2020 18:02:17 26.6 C 20 %
2840 17-04-2020 18:12:17 26.2 C 20 %
2841 17-04-2020 18:22:17 25.7 C 20 %
2842 17-04-2020 18:32:17 24.8 C 20 %
2843 17-04-2020 18:42:17 24.7 C 20 %
2844 17-04-2020 18:52:18 24.2 C 20 %
2845 17-04-2020 19:02:17 24.1 C 20 %
2846 17-04-2020 19:12:17 23.7 C 20 %
2847 17-04-2020 19:22:17 23 C 20 %
2848 17-04-2020 19:32:17 22.2 C 20 %
2849 17-04-2020 19:42:17 21.7 C 20 %
2850 17-04-2020 19:52:17 20.7 C 20 %
Sensor: Nr:Datum:Temp:Feuchte:
Aussen-T/F 2851 17-04-2020 20:02:17 20 C 20 %
2852 17-04-2020 20:12:17 19.5 C 20 %
2853 17-04-2020 20:22:17 18.8 C 21 %
2854 17-04-2020 20:32:17 18.4 C 21 %
2855 17-04-2020 20:42:17 18.2 C 21 %
2856 17-04-2020 20:52:17 17.7 C 23 %
2857 17-04-2020 21:02:17 17.5 C 23 %
2858 17-04-2020 21:12:17 17.7 C 24 %
2859 17-04-2020 21:22:17 17.6 C 25 %
2860 17-04-2020 21:32:18 17.8 C 24 %
2861 17-04-2020 21:42:18 17 C 25 %
2862 17-04-2020 21:52:18 16.8 C 25 %
2863 17-04-2020 22:02:17 16 C 26 %
2864 17-04-2020 22:12:17 16 C 26 %
2865 17-04-2020 22:22:17 15.8 C 26 %
2866 17-04-2020 22:32:17 15.7 C 26 %
2867 17-04-2020 22:42:17 15.1 C 27 %
2868 17-04-2020 22:52:17 14.6 C 29 %
2869 17-04-2020 23:02:17 14.7 C 30 %
2870 17-04-2020 23:12:17 14.4 C 29 %
2871 17-04-2020 23:22:18 14.1 C 30 %
2872 17-04-2020 23:32:17 14 C 30 %
2873 17-04-2020 23:42:17 13.6 C 31 %
2874 17-04-2020 23:52:17 13.5 C 31 %
2875 18-04-2020 00:02:17 13.4 C 31 %
Sensor: Nr:Datum:Temp:Feuchte:
Aussen-T/F 2876 18-04-2020 00:12:17 13.1 C 32 %
2877 18-04-2020 00:22:18 12.6 C 33 %
2878 18-04-2020 00:32:17 12.2 C 33 %
2879 18-04-2020 00:42:18 12 C 33 %
2880 18-04-2020 00:52:17 11.8 C 34 %
2881 18-04-2020 01:02:18 11.8 C 34 %
2882 18-04-2020 01:12:18 11.8 C 34 %
2883 18-04-2020 01:22:17 11.4 C 34 %
2884 18-04-2020 01:32:18 11.1 C 35 %
2885 18-04-2020 01:42:18 10.9 C 36 %
2886 18-04-2020 01:52:17 10.9 C 36 %
2887 18-04-2020 02:02:18 10.8 C 36 %
2888 18-04-2020 02:12:18 10.6 C 36 %
2889 18-04-2020 02:22:17 10.7 C 36 %
2890 18-04-2020 02:32:17 10.1 C 37 %
2891 18-04-2020 02:42:17 10 C 38 %
2892 18-04-2020 02:52:18 9.8 C 38 %
2893 18-04-2020 03:02:17 9.7 C 39 %
2894 18-04-2020 03:12:17 9.6 C 39 %
2895 18-04-2020 03:22:18 9.2 C 39 %
2896 18-04-2020 03:32:18 9 C 39 %
2897 18-04-2020 03:42:18 9 C 39 %
2898 18-04-2020 03:52:18 8.9 C 40 %
2899 18-04-2020 04:02:17 9 C 40 %
2900 18-04-2020 04:12:17 9 C 40 %
Sensor: Nr:Datum:Temp:Feuchte:
Aussen-T/F 2901 18-04-2020 04:22:17 9 C 40 %
2902 18-04-2020 04:32:18 8.9 C 41 %
2903 18-04-2020 04:42:18 8.8 C 41 %
2904 18-04-2020 04:52:17 8.6 C 41 %
2905 18-04-2020 05:02:17 8.4 C 41 %
2906 18-04-2020 05:12:17 8.5 C 41 %
2907 18-04-2020 05:22:17 8.7 C 40 %
2908 18-04-2020 05:32:17 8.6 C 41 %
2909 18-04-2020 05:42:17 8.3 C 41 %
2910 18-04-2020 05:52:18 8.6 C 41 %
2911 18-04-2020 06:02:17 8.7 C 41 %
2912 18-04-2020 06:12:17 8.6 C 41 %
2913 18-04-2020 06:22:17 8.7 C 41 %
2914 18-04-2020 06:32:17 8.3 C 41 %
2915 18-04-2020 06:42:17 8.1 C 41 %
2916 18-04-2020 06:52:17 8.2 C 41 %
2917 18-04-2020 07:02:17 8.4 C 42 %
2918 18-04-2020 07:12:17 8.7 C 42 %
2919 18-04-2020 07:22:17 9.4 C 42 %
2920 18-04-2020 07:32:17 9.6 C 41 %
2921 18-04-2020 07:42:17 9.7 C 41 %
2922 18-04-2020 07:52:17 9.7 C 41 %
2923 18-04-2020 08:02:18 9.7 C 41 %
2924 18-04-2020 08:12:18 10 C 40 %
2925 18-04-2020 08:22:17 10.1 C 40 %
Sensor: Nr:Datum:Temp:Feuchte:
Aussen-T/F 2926 18-04-2020 08:32:17 10.2 C 40 %
2927 18-04-2020 08:42:18 10.6 C 40 %
2928 18-04-2020 08:52:18 11.1 C 39 %
2929 18-04-2020 09:02:17 11.7 C 38 %
2930 18-04-2020 09:12:17 12.1 C 37 %
2931 18-04-2020 09:22:17 12.5 C 36 %
2932 18-04-2020 09:32:18 13.4 C 35 %
2933 18-04-2020 09:42:18 13.8 C 34 %
2934 18-04-2020 09:52:18 14.4 C 32 %
2935 18-04-2020 10:02:18 15 C 31 %
2936 18-04-2020 10:12:18 14.9 C 31 %
2937 18-04-2020 10:22:18 16.2 C 30 %
2938 18-04-2020 10:32:18 15.8 C 30 %
2939 18-04-2020 10:42:18 17.2 C 29 %
2940 18-04-2020 10:52:18 17.9 C 29 %
2941 18-04-2020 11:02:18 18.5 C 27 %
2942 18-04-2020 11:12:18 18.3 C 27 %
2943 18-04-2020 11:22:17 18.5 C 26 %
2944 18-04-2020 11:32:18 17.8 C 27 %
2945 18-04-2020 11:42:18 18.6 C 26 %
2946 18-04-2020 11:52:18 18.9 C 27 %
2947 18-04-2020 12:02:17 19.1 C 26 %
2948 18-04-2020 12:12:17 20 C 25 %
2949 18-04-2020 12:22:18 20.2 C 24 %
2950 18-04-2020 12:32:18 20.1 C 24 %
Sensor: Nr:Datum:Temp:Feuchte:
Aussen-T/F 2951 18-04-2020 12:42:18 19.6 C 25 %
2952 18-04-2020 12:52:17 19.3 C 25 %
2953 18-04-2020 13:02:17 20.8 C 24 %
2954 18-04-2020 13:12:17 21.8 C 21 %
2955 18-04-2020 13:22:18 21.5 C 20 %
2956 18-04-2020 13:32:18 21.8 C 20 %
2957 18-04-2020 13:42:18 22.4 C 20 %
2958 18-04-2020 13:52:18 21.6 C 20 %
2959 18-04-2020 14:02:18 21.2 C 20 %
2960 18-04-2020 14:12:18 21.7 C 20 %
2961 18-04-2020 14:22:18 22.4 C 20 %
2962 18-04-2020 14:32:17 22.4 C 20 %
2963 18-04-2020 14:42:17 22.8 C 20 %
2964 18-04-2020 14:52:17 22.6 C 20 %
2965 18-04-2020 15:02:17 25.4 C 20 %
2966 18-04-2020 15:12:18 30.4 C 20 %
2967 18-04-2020 15:22:17 28.2 C 20 %
2968 18-04-2020 15:32:17 23.8 C 20 %
2969 18-04-2020 15:42:17 23.2 C 20 %
2970 18-04-2020 15:52:17 22.2 C 20 %
2971 18-04-2020 16:02:18 21.8 C 20 %
2972 18-04-2020 16:12:18 21.8 C 20 %
2973 18-04-2020 16:22:18 20.6 C 20 %
2974 18-04-2020 16:32:17 19.7 C 25 %
2975 18-04-2020 16:42:17 20 C 25 %
Sensor: Nr:Datum:Temp:Feuchte:
Aussen-T/F 2976 18-04-2020 16:52:17 19.9 C 25 %
2977 18-04-2020 17:02:17 19.1 C 26 %
2978 18-04-2020 17:12:17 18.9 C 27 %
2979 18-04-2020 17:22:17 18.7 C 28 %
2980 18-04-2020 17:32:18 17.6 C 33 %
2981 18-04-2020 17:42:18 17.5 C 33 %
2982 18-04-2020 17:52:18 17.4 C 33 %
2983 18-04-2020 18:02:18 17.3 C 34 %
2984 18-04-2020 18:12:18 17.1 C 34 %
2985 18-04-2020 18:22:17 17.3 C 33 %
2986 18-04-2020 18:32:18 17.7 C 31 %
2987 18-04-2020 18:42:18 17.7 C 31 %
2988 18-04-2020 18:52:17 17.9 C 30 %
2989 18-04-2020 19:02:18 18.1 C 30 %
2990 18-04-2020 19:12:18 17.9 C 30 %
2991 18-04-2020 19:22:17 17.6 C 30 %
2992 18-04-2020 19:32:17 17.8 C 30 %
2993 18-04-2020 19:42:17 18.1 C 29 %
2994 18-04-2020 19:52:18 17.7 C 30 %
2995 18-04-2020 20:02:17 17.3 C 30 %
2996 18-04-2020 20:12:17 16.5 C 30 %
2997 18-04-2020 20:22:17 15.9 C 31 %
2998 18-04-2020 20:32:17 15 C 32 %
2999 18-04-2020 20:42:17 14.8 C 34 %
3000 18-04-2020 20:52:17 14.5 C 34 %
Sensor: Nr:Datum:Temp:Feuchte:
Aussen-T/F 3001 18-04-2020 21:02:18 14.5 C 35 %
3002 18-04-2020 21:12:18 14.9 C 34 %
3003 18-04-2020 21:22:17 15 C 33 %
3004 18-04-2020 21:32:17 15.1 C 33 %
3005 18-04-2020 21:42:17 15 C 33 %
3006 18-04-2020 21:52:18 14.8 C 34 %
3007 18-04-2020 22:02:17 14.4 C 34 %
3008 18-04-2020 22:12:17 14.5 C 35 %
3009 18-04-2020 22:22:17 13.7 C 35 %
3010 18-04-2020 22:32:18 13.4 C 36 %
3011 18-04-2020 22:42:18 12.8 C 37 %
3012 18-04-2020 22:52:17 12.8 C 37 %
3013 18-04-2020 23:02:18 12.7 C 38 %
3014 18-04-2020 23:12:18 12.3 C 38 %
3015 18-04-2020 23:22:17 12.1 C 38 %
3016 18-04-2020 23:32:17 11.7 C 40 %
3017 18-04-2020 23:42:17 11.1 C 40 %
3018 18-04-2020 23:52:17 10.9 C 42 %
3019 19-04-2020 00:02:18 10.6 C 43 %
3020 19-04-2020 00:12:18 10.7 C 43 %
3021 19-04-2020 00:22:17 10.2 C 43 %
3022 19-04-2020 00:32:17 10.2 C 43 %
3023 19-04-2020 00:42:17 10.1 C 44 %
3024 19-04-2020 00:52:17 9.8 C 44 %
3025 19-04-2020 01:02:17 9.8 C 45 %
Sensor: Nr:Datum:Temp:Feuchte:
Aussen-T/F 3026 19-04-2020 01:12:17 9.9 C 45 %
3027 19-04-2020 01:22:17 9.6 C 44 %
3028 19-04-2020 01:32:17 9.6 C 45 %
3029 19-04-2020 01:42:17 9.9 C 45 %
3030 19-04-2020 01:52:17 9.5 C 45 %
3031 19-04-2020 02:02:17 9.5 C 45 %
3032 19-04-2020 02:12:18 9.6 C 45 %
3033 19-04-2020 02:22:17 9.7 C 45 %
3034 19-04-2020 02:32:17 10 C 45 %
3035 19-04-2020 02:42:17 10 C 44 %
3036 19-04-2020 02:52:17 9.8 C 45 %
3037 19-04-2020 03:02:17 9.6 C 45 %
3038 19-04-2020 03:12:17 9.3 C 44 %
3039 19-04-2020 03:22:17 9.1 C 45 %
3040 19-04-2020 03:32:17 8.9 C 45 %
3041 19-04-2020 03:42:17 8.7 C 45 %
3042 19-04-2020 03:52:17 8.7 C 45 %
3043 19-04-2020 04:02:17 8.5 C 45 %
3044 19-04-2020 04:12:17 9.2 C 45 %
3045 19-04-2020 04:22:17 9.2 C 45 %
3046 19-04-2020 04:32:17 9.4 C 45 %
3047 19-04-2020 04:42:17 9.6 C 45 %
3048 19-04-2020 04:52:17 9.6 C 45 %
3049 19-04-2020 05:02:17 9.7 C 45 %
3050 19-04-2020 05:12:17 9.6 C 45 %
Sensor: Nr:Datum:Temp:Feuchte:
Aussen-T/F 3051 19-04-2020 05:22:18 9.6 C 45 %
3052 19-04-2020 05:32:17 9.7 C 45 %
3053 19-04-2020 05:42:17 9.7 C 45 %
3054 19-04-2020 05:52:17 9.8 C 45 %
3055 19-04-2020 06:02:17 9.9 C 45 %
3056 19-04-2020 06:12:17 10.1 C 44 %
3057 19-04-2020 06:22:17 10.1 C 44 %
3058 19-04-2020 06:32:17 10.2 C 44 %
3059 19-04-2020 06:42:17 10.2 C 44 %
3060 19-04-2020 06:52:18 10.3 C 44 %
3061 19-04-2020 07:02:18 10.3 C 44 %
3062 19-04-2020 07:12:18 10.4 C 44 %
3063 19-04-2020 07:22:17 10.6 C 44 %
3064 19-04-2020 07:32:18 10.5 C 43 %
3065 19-04-2020 07:42:18 10.6 C 43 %
3066 19-04-2020 07:52:17 10.6 C 43 %
3067 19-04-2020 08:02:17 10.7 C 43 %
3068 19-04-2020 08:12:17 11.3 C 42 %
3069 19-04-2020 08:22:17 11.5 C 41 %
3070 19-04-2020 08:32:17 12 C 40 %
3071 19-04-2020 08:42:17 12.4 C 39 %
3072 19-04-2020 08:52:17 13.2 C 37 %
3073 19-04-2020 09:02:17 12.5 C 38 %
3074 19-04-2020 09:12:18 13 C 37 %
3075 19-04-2020 09:22:18 13.2 C 36 %
Sensor: Nr:Datum:Temp:Feuchte:
Aussen-T/F 3076 19-04-2020 09:32:17 13.5 C 36 %
3077 19-04-2020 09:42:17 13.8 C 36 %
3078 19-04-2020 09:52:17 13.8 C 35 %
3079 19-04-2020 10:02:17 13.7 C 35 %
3080 19-04-2020 10:12:17 14.2 C 35 %
3081 19-04-2020 10:22:17 14.7 C 34 %
3082 19-04-2020 10:32:17 15.5 C 33 %
3083 19-04-2020 10:42:17 16.4 C 31 %
3084 19-04-2020 10:52:17 16.4 C 31 %
3085 19-04-2020 11:02:17 15.7 C 32 %
3086 19-04-2020 11:12:17 14.7 C 33 %
3087 19-04-2020 11:22:17 14.7 C 33 %
3088 19-04-2020 11:32:17 14.4 C 34 %
3089 19-04-2020 11:42:17 14 C 34 %
3090 19-04-2020 11:52:17 13.8 C 35 %
3091 19-04-2020 12:02:17 14.2 C 34 %
3092 19-04-2020 12:12:17 14.7 C 34 %
3093 19-04-2020 12:22:17 16 C 31 %
3094 19-04-2020 12:32:18 16 C 31 %
3095 19-04-2020 12:42:18 16.3 C 30 %
3096 19-04-2020 12:52:17 16.9 C 30 %
3097 19-04-2020 13:02:17 17.4 C 28 %
3098 19-04-2020 13:12:17 16.9 C 29 %
3099 19-04-2020 13:22:17 17.4 C 27 %
3100 19-04-2020 13:32:17 18.8 C 26 %
Sensor: Nr:Datum:Temp:Feuchte:
Aussen-T/F 3101 19-04-2020 13:42:17 19.1 C 25 %
3102 19-04-2020 13:52:17 19.3 C 25 %
3103 19-04-2020 14:02:18 18.8 C 25 %
3104 19-04-2020 14:12:18 18.6 C 25 %
3105 19-04-2020 14:22:17 18.1 C 25 %
3106 19-04-2020 14:32:17 17.4 C 26 %
3107 19-04-2020 14:42:17 18 C 26 %
3108 19-04-2020 14:52:17 17.1 C 26 %
3109 19-04-2020 15:02:18 16.9 C 26 %
3110 19-04-2020 15:12:18 16.6 C 26 %
3111 19-04-2020 15:22:17 17 C 25 %
3112 19-04-2020 15:32:17 17.2 C 25 %
3113 19-04-2020 15:42:18 17.8 C 25 %
3114 19-04-2020 15:52:18 18.1 C 24 %
3115 19-04-2020 16:02:17 19.2 C 22 %
3116 19-04-2020 16:12:17 22.2 C 20 %
3117 19-04-2020 16:22:17 20.2 C 20 %
3118 19-04-2020 16:32:17 18.6 C 20 %
3119 19-04-2020 16:42:17 20.5 C 20 %
3120 19-04-2020 16:52:17 21.3 C 20 %
3121 19-04-2020 17:02:17 17.5 C 20 %
3122 19-04-2020 17:12:17 18.6 C 20 %
3123 19-04-2020 17:22:17 19.7 C 20 %
3124 19-04-2020 17:32:18 18.9 C 20 %
3125 19-04-2020 17:42:18 19.2 C 20 %
Sensor: Nr:Datum:Temp:Feuchte:
Aussen-T/F 3126 19-04-2020 17:52:17 18.6 C 20 %
3127 19-04-2020 18:02:18 17.4 C 20 %
3128 19-04-2020 18:12:18 17.3 C 20 %
3129 19-04-2020 18:22:17 17.3 C 20 %
3130 19-04-2020 18:32:17 17.3 C 20 %
3131 19-04-2020 18:42:17 16.8 C 20 %
3132 19-04-2020 18:52:17 16.8 C 20 %
3133 19-04-2020 19:02:17 16.8 C 20 %
3134 19-04-2020 19:12:17 16.7 C 20 %
3135 19-04-2020 19:22:17 16.3 C 20 %
3136 19-04-2020 19:32:18 16 C 20 %
3137 19-04-2020 19:42:18 15.6 C 20 %
3138 19-04-2020 19:52:17 15.1 C 20 %
3139 19-04-2020 20:02:18 14.7 C 20 %
3140 19-04-2020 20:12:18 13.7 C 23 %
3141 19-04-2020 20:22:17 13.3 C 24 %
3142 19-04-2020 20:32:17 13 C 25 %
3143 19-04-2020 20:42:17 12.5 C 26 %
3144 19-04-2020 20:52:17 12.3 C 26 %
3145 19-04-2020 21:02:18 12 C 26 %
3146 19-04-2020 21:12:18 12 C 26 %
3147 19-04-2020 21:22:17 11.7 C 27 %
3148 19-04-2020 21:32:17 11.5 C 27 %
3149 19-04-2020 21:42:17 11.4 C 27 %
3150 19-04-2020 21:52:17 11 C 27 %
Sensor: Nr:Datum:Temp:Feuchte:
Aussen-T/F 3151 19-04-2020 22:02:17 11.2 C 26 %
3152 19-04-2020 22:12:17 11 C 26 %
3153 19-04-2020 22:22:17 11.1 C 26 %
3154 19-04-2020 22:32:17 10.9 C 26 %
3155 19-04-2020 22:42:17 10.3 C 26 %
3156 19-04-2020 22:52:17 10.2 C 26 %
3157 19-04-2020 23:02:18 11.1 C 25 %
3158 19-04-2020 23:12:18 10.1 C 25 %
3159 19-04-2020 23:22:18 9.7 C 27 %
3160 19-04-2020 23:32:17 10.3 C 22 %
3161 19-04-2020 23:42:17 10.3 C 25 %
3162 19-04-2020 23:52:17 10.3 C 23 %
3163 20-04-2020 00:02:17 10.1 C 25 %
3164 20-04-2020 00:12:17 9.6 C 25 %
3165 20-04-2020 00:22:17 10.1 C 21 %
3166 20-04-2020 00:32:18 9.9 C 23 %
3167 20-04-2020 00:42:18 9.6 C 25 %
3168 20-04-2020 00:52:18 9.3 C 25 %
3169 20-04-2020 01:02:17 9.8 C 23 %
3170 20-04-2020 01:12:17 9.3 C 23 %
3171 20-04-2020 01:22:17 9.1 C 21 %
3172 20-04-2020 01:32:17 9.6 C 21 %
3173 20-04-2020 01:42:17 9.1 C 21 %
3174 20-04-2020 01:52:17 8.5 C 25 %
3175 20-04-2020 02:02:18 8.1 C 26 %
Sensor: Nr:Datum:Temp:Feuchte:
Aussen-T/F 3176 20-04-2020 02:12:18 7.9 C 26 %
3177 20-04-2020 02:22:17 7.5 C 27 %
3178 20-04-2020 02:32:18 7.3 C 27 %
3179 20-04-2020 02:42:18 7.3 C 27 %
3180 20-04-2020 02:52:17 7.3 C 27 %
3181 20-04-2020 03:02:17 7 C 27 %
3182 20-04-2020 03:12:17 6.9 C 28 %
3183 20-04-2020 03:22:17 6.7 C 29 %
3184 20-04-2020 03:32:17 6.9 C 28 %
3185 20-04-2020 03:42:17 6.9 C 28 %
3186 20-04-2020 03:52:17 6.7 C 29 %
3187 20-04-2020 04:02:17 6.6 C 28 %
3188 20-04-2020 04:12:17 6.5 C 28 %
3189 20-04-2020 04:22:17 6.4 C 29 %
3190 20-04-2020 04:32:18 6.4 C 28 %
3191 20-04-2020 04:42:18 6.4 C 28 %
3192 20-04-2020 04:52:17 6.2 C 29 %
3193 20-04-2020 05:02:18 6.4 C 29 %
3194 20-04-2020 05:12:18 6.3 C 29 %
3195 20-04-2020 05:22:17 6.3 C 29 %
3196 20-04-2020 05:32:17 6.2 C 30 %
3197 20-04-2020 05:42:18 6.3 C 29 %
3198 20-04-2020 05:52:17 6.3 C 29 %
3199 20-04-2020 06:02:18 6 C 30 %
3200 20-04-2020 06:12:18 5.9 C 30 %
Sensor: Nr:Datum:Temp:Feuchte:
Aussen-T/F 3201 20-04-2020 06:22:17 5.9 C 30 %
3202 20-04-2020 06:32:17 6.1 C 30 %
3203 20-04-2020 06:42:17 6.1 C 30 %
3204 20-04-2020 06:52:17 5.9 C 30 %
3205 20-04-2020 07:02:17 6.1 C 30 %
3206 20-04-2020 07:12:17 6.2 C 30 %
3207 20-04-2020 07:22:17 6.2 C 30 %
3208 20-04-2020 07:32:17 6.4 C 30 %
3209 20-04-2020 07:42:17 7.2 C 27 %
3210 20-04-2020 07:52:17 7.4 C 27 %
3211 20-04-2020 08:02:18 7.3 C 27 %
3212 20-04-2020 08:12:18 7.9 C 26 %
3213 20-04-2020 08:22:17 7.8 C 27 %
3214 20-04-2020 08:32:17 7.7 C 28 %
3215 20-04-2020 08:42:18 7.9 C 26 %
3216 20-04-2020 08:52:18 8.1 C 26 %
3217 20-04-2020 09:02:17 8.3 C 26 %
3218 20-04-2020 09:12:17 8.2 C 27 %
3219 20-04-2020 09:22:17 8.4 C 27 %
3220 20-04-2020 09:32:17 9 C 25 %
3221 20-04-2020 09:42:17 9.4 C 25 %
3222 20-04-2020 09:52:18 9.4 C 26 %
3223 20-04-2020 10:02:18 9.9 C 26 %
3224 20-04-2020 10:12:18 10.7 C 22 %
3225 20-04-2020 10:22:17 11.4 C 20 %
Sensor: Nr:Datum:Temp:Feuchte:
Aussen-T/F 3226 20-04-2020 10:32:17 12.1 C 20 %
3227 20-04-2020 10:42:18 12.7 C 20 %
3228 20-04-2020 10:52:17 13.1 C 20 %
3229 20-04-2020 11:02:18 13.7 C 20 %
3230 20-04-2020 11:12:18 14 C 20 %
3231 20-04-2020 11:22:17 14.4 C 20 %
3232 20-04-2020 11:32:17 14.7 C 20 %
3233 20-04-2020 11:42:18 14.8 C 20 %
3234 20-04-2020 11:52:17 15 C 20 %
3235 20-04-2020 12:02:17 15.2 C 20 %
3236 20-04-2020 12:12:17 15 C 20 %
3237 20-04-2020 12:22:17 15 C 20 %
3238 20-04-2020 12:32:17 15.1 C 20 %
3239 20-04-2020 12:42:17 15.1 C 20 %
3240 20-04-2020 12:52:17 15.4 C 20 %
3241 20-04-2020 13:02:17 15.4 C 20 %
3242 20-04-2020 13:12:17 16 C 20 %
3243 20-04-2020 13:22:17 15.8 C 20 %
3244 20-04-2020 13:32:17 16.1 C 20 %
3245 20-04-2020 13:42:17 16.1 C 20 %
3246 20-04-2020 13:52:17 16.8 C 20 %
3247 20-04-2020 14:02:17 16.9 C 20 %
3248 20-04-2020 14:12:17 17.3 C 20 %
3249 20-04-2020 14:22:17 18.3 C 20 %
3250 20-04-2020 14:32:18 21 C 20 %
Sensor: Nr:Datum:Temp:Feuchte:
Aussen-T/F 3251 20-04-2020 14:42:18 23 C 20 %
3252 20-04-2020 14:52:18 23.2 C 20 %
3253 20-04-2020 15:02:17 22.9 C 20 %
3254 20-04-2020 15:12:17 21.8 C 20 %
3255 20-04-2020 15:22:17 22.9 C 20 %
3256 20-04-2020 15:32:17 23.3 C 20 %
3257 20-04-2020 15:42:17 24.7 C 20 %
3258 20-04-2020 15:52:17 22.5 C 20 %
3259 20-04-2020 16:02:17 24.5 C 20 %
3260 20-04-2020 16:12:17 22.7 C 20 %
3261 20-04-2020 16:22:17 23 C 20 %
3262 20-04-2020 16:32:17 23.5 C 20 %
3263 20-04-2020 16:42:17 23.6 C 20 %
3264 20-04-2020 16:52:17 23.4 C 20 %
3265 20-04-2020 17:02:17 23.7 C 20 %
3266 20-04-2020 17:12:17 22.3 C 20 %
3267 20-04-2020 17:22:17 21.6 C 20 %
3268 20-04-2020 17:32:17 20.4 C 20 %
3269 20-04-2020 17:42:17 22.4 C 20 %
3270 20-04-2020 17:52:17 20.9 C 20 %
3271 20-04-2020 18:02:18 19.1 C 20 %
3272 20-04-2020 18:12:18 19 C 20 %
3273 20-04-2020 18:22:18 18.5 C 20 %
3274 20-04-2020 18:32:17 18.4 C 20 %
3275 20-04-2020 18:42:18 18.2 C 20 %
Sensor: Nr:Datum:Temp:Feuchte:
Aussen-T/F 3276 20-04-2020 18:52:18 18.3 C 20 %
3277 20-04-2020 19:02:17 17.8 C 20 %
3278 20-04-2020 19:12:17 17.6 C 20 %
3279 20-04-2020 19:22:17 17.2 C 20 %
3280 20-04-2020 19:32:17 17 C 20 %
3281 20-04-2020 19:42:17 16.6 C 20 %
3282 20-04-2020 19:52:17 16.3 C 20 %
3283 20-04-2020 20:02:17 16 C 20 %
3284 20-04-2020 20:12:17 15.6 C 20 %
3285 20-04-2020 20:22:17 15 C 20 %
3286 20-04-2020 20:32:17 14.4 C 20 %
3287 20-04-2020 20:42:17 14.5 C 20 %
3288 20-04-2020 20:52:17 13.8 C 20 %
3289 20-04-2020 21:02:17 13.7 C 20 %
3290 20-04-2020 21:12:17 12.9 C 20 %
3291 20-04-2020 21:22:17 12.6 C 20 %
3292 20-04-2020 21:32:17 12 C 20 %
3293 20-04-2020 21:42:17 12.2 C 20 %
3294 20-04-2020 21:52:17 12.6 C 20 %
3295 20-04-2020 22:02:17 11.8 C 20 %
3296 20-04-2020 22:12:17 11.9 C 20 %
3297 20-04-2020 22:22:17 12.1 C 20 %
3298 20-04-2020 22:32:17 12.2 C 20 %
3299 20-04-2020 22:42:17 11.9 C 20 %
3300 20-04-2020 22:52:18 11.5 C 20 %
Sensor: Nr:Datum:Temp:Feuchte:
Aussen-T/F 3301 20-04-2020 23:02:17 11.5 C 20 %
3302 20-04-2020 23:12:17 11.6 C 20 %
3303 20-04-2020 23:22:17 11 C 20 %
3304 20-04-2020 23:32:18 11.6 C 20 %
3305 20-04-2020 23:42:18 11 C 20 %
3306 20-04-2020 23:52:17 11 C 20 %
3307 21-04-2020 00:02:17 10.9 C 20 %
3308 21-04-2020 00:12:17 10.3 C 20 %
3309 21-04-2020 00:22:17 10.4 C 20 %
3310 21-04-2020 00:32:17 9.9 C 20 %
3311 21-04-2020 00:42:17 10.5 C 20 %
3312 21-04-2020 00:52:17 10 C 20 %
3313 21-04-2020 01:02:18 9.4 C 20 %
3314 21-04-2020 01:12:18 8.9 C 20 %
3315 21-04-2020 01:22:18 9 C 20 %
3316 21-04-2020 01:32:18 8.9 C 20 %
3317 21-04-2020 01:42:18 9.2 C 20 %
3318 21-04-2020 01:52:17 8.4 C 20 %
3319 21-04-2020 02:02:17 9.2 C 20 %
3320 21-04-2020 02:12:18 9.1 C 20 %
3321 21-04-2020 02:22:17 9.1 C 20 %
3322 21-04-2020 02:32:18 8.9 C 20 %
3323 21-04-2020 02:42:18 9.2 C 20 %
3324 21-04-2020 02:52:17 9 C 20 %
3325 21-04-2020 03:02:17 9.3 C 20 %
Sensor: Nr:Datum:Temp:Feuchte:
Aussen-T/F 3326 21-04-2020 03:12:17 9.1 C 20 %
3327 21-04-2020 03:22:18 9.2 C 20 %
3328 21-04-2020 03:32:17 9.1 C 20 %
3329 21-04-2020 03:42:17 8.3 C 20 %
3330 21-04-2020 03:52:18 8.6 C 20 %
3331 21-04-2020 04:02:18 8.1 C 20 %
3332 21-04-2020 04:12:18 7.4 C 23 %
3333 21-04-2020 04:22:17 7.8 C 20 %
3334 21-04-2020 04:32:17 7.7 C 23 %
3335 21-04-2020 04:42:17 7.5 C 25 %
3336 21-04-2020 04:52:17 7.5 C 25 %
3337 21-04-2020 05:02:17 7.1 C 25 %
3338 21-04-2020 05:12:17 7.7 C 25 %
3339 21-04-2020 05:22:17 7.3 C 25 %
3340 21-04-2020 05:32:18 7 C 25 %
3341 21-04-2020 05:42:18 6.8 C 26 %
3342 21-04-2020 05:52:17 6.5 C 27 %
3343 21-04-2020 06:02:17 6.9 C 27 %
3344 21-04-2020 06:12:17 6.6 C 27 %
3345 21-04-2020 06:22:18 6.6 C 27 %
3346 21-04-2020 06:32:18 6.3 C 28 %
3347 21-04-2020 06:42:18 6.4 C 28 %
3348 21-04-2020 06:52:17 6.3 C 29 %
3349 21-04-2020 07:02:18 6.1 C 30 %
3350 21-04-2020 07:12:18 6.2 C 29 %
Sensor: Nr:Datum:Temp:Feuchte:
Aussen-T/F 3351 21-04-2020 07:22:17 6.3 C 30 %
3352 21-04-2020 07:32:17 6.5 C 30 %
3353 21-04-2020 07:42:17 7.3 C 27 %
3354 21-04-2020 07:52:17 6.9 C 29 %
3355 21-04-2020 08:02:17 7.4 C 27 %
3356 21-04-2020 08:12:17 7.7 C 26 %
3357 21-04-2020 08:22:17 7.6 C 26 %
3358 21-04-2020 08:32:17 7.2 C 28 %
3359 21-04-2020 08:42:18 7.5 C 27 %
3360 21-04-2020 08:52:17 8.3 C 27 %
3361 21-04-2020 09:02:17 8.7 C 25 %
3362 21-04-2020 09:12:17 9.2 C 23 %
3363 21-04-2020 09:22:17 9.7 C 21 %
3364 21-04-2020 09:32:17 10.2 C 20 %
3365 21-04-2020 09:42:17 10.7 C 20 %
3366 21-04-2020 09:52:17 10.9 C 20 %
3367 21-04-2020 10:02:17 10.9 C 20 %
3368 21-04-2020 10:12:17 11.7 C 20 %
3369 21-04-2020 10:22:17 12.2 C 20 %
3370 21-04-2020 10:32:17 12.8 C 20 %
3371 21-04-2020 10:42:17 13.2 C 20 %
3372 21-04-2020 10:52:17 13.5 C 20 %
3373 21-04-2020 11:02:17 13.9 C 20 %
3374 21-04-2020 11:12:17 14.6 C 20 %
3375 21-04-2020 11:22:17 14.6 C 20 %
Sensor: Nr:Datum:Temp:Feuchte:
Aussen-T/F 3376 21-04-2020 11:32:18 14.7 C 20 %
3377 21-04-2020 11:42:18 15.2 C 20 %
3378 21-04-2020 11:52:18 15.7 C 20 %
3379 21-04-2020 12:02:17 16.4 C 20 %
3380 21-04-2020 12:12:18 16.1 C 20 %
3381 21-04-2020 12:22:17 16.1 C 20 %
3382 21-04-2020 12:32:17 16.2 C 20 %
3383 21-04-2020 12:42:17 16.4 C 20 %
3384 21-04-2020 12:52:17 16.6 C 20 %
3385 21-04-2020 13:02:17 16.9 C 20 %
3386 21-04-2020 13:12:17 17.4 C 20 %
3387 21-04-2020 13:22:17 17.2 C 20 %
3388 21-04-2020 13:32:17 17.3 C 20 %
3389 21-04-2020 13:42:17 17.9 C 20 %
3390 21-04-2020 13:52:17 18.1 C 20 %
3391 21-04-2020 14:02:17 18.5 C 20 %
3392 21-04-2020 14:12:17 19 C 20 %
3393 21-04-2020 14:22:17 19.4 C 20 %
3394 21-04-2020 14:32:17 22 C 20 %
3395 21-04-2020 14:42:17 24.4 C 20 %
3396 21-04-2020 14:52:17 24.2 C 20 %
3397 21-04-2020 15:02:17 24.5 C 20 %
3398 21-04-2020 15:12:17 22.2 C 20 %
3399 21-04-2020 15:22:17 23.7 C 20 %
3400 21-04-2020 15:32:18 23.2 C 20 %
Sensor: Nr:Datum:Temp:Feuchte:
Aussen-T/F 3401 21-04-2020 15:42:18 24 C 20 %
3402 21-04-2020 15:52:17 23.4 C 20 %
3403 21-04-2020 16:02:18 22.8 C 20 %
3404 21-04-2020 16:12:18 23.2 C 20 %
3405 21-04-2020 16:22:17 22.9 C 20 %
3406 21-04-2020 16:32:17 23.2 C 20 %
3407 21-04-2020 16:42:17 24.3 C 20 %
3408 21-04-2020 16:52:17 22.8 C 20 %
3409 21-04-2020 17:02:17 23.6 C 20 %
3410 21-04-2020 17:12:17 24.8 C 20 %
3411 21-04-2020 17:22:18 22.8 C 20 %
3412 21-04-2020 17:32:17 21.9 C 20 %
3413 21-04-2020 17:42:17 22.3 C 20 %
3414 21-04-2020 17:52:17 22.9 C 20 %
3415 21-04-2020 18:02:18 21.1 C 20 %
3416 21-04-2020 18:12:18 20.9 C 20 %
3417 21-04-2020 18:22:17 20.5 C 20 %
3418 21-04-2020 18:32:17 20.3 C 20 %
3419 21-04-2020 18:42:17 20 C 20 %
3420 21-04-2020 18:52:18 20 C 20 %
3421 21-04-2020 19:02:17 19.6 C 20 %
3422 21-04-2020 19:12:17 19.4 C 20 %
3423 21-04-2020 19:22:17 19.1 C 20 %
3424 21-04-2020 19:32:18 18.9 C 20 %
3425 21-04-2020 19:42:18 18.7 C 20 %
Sensor: Nr:Datum:Temp:Feuchte:
Aussen-T/F 3426 21-04-2020 19:52:17 18.3 C 20 %
3427 21-04-2020 20:02:17 17.9 C 20 %
3428 21-04-2020 20:12:17 17.4 C 20 %
3429 21-04-2020 20:22:17 16.7 C 20 %
3430 21-04-2020 20:32:17 16.2 C 20 %
3431 21-04-2020 20:42:17 15.5 C 20 %
3432 21-04-2020 20:52:17 14.8 C 20 %
3433 21-04-2020 21:02:18 14.2 C 20 %
3434 21-04-2020 21:12:18 14.5 C 20 %
3435 21-04-2020 21:22:17 14.1 C 20 %
3436 21-04-2020 21:32:17 13.9 C 20 %
3437 21-04-2020 21:42:17 13.2 C 20 %
3438 21-04-2020 21:52:18 12.9 C 20 %
3439 21-04-2020 22:02:17 13.2 C 20 %
3440 21-04-2020 22:12:17 13 C 20 %
3441 21-04-2020 22:22:17 13.4 C 20 %
3442 21-04-2020 22:32:17 12.6 C 20 %
3443 21-04-2020 22:42:17 12 C 20 %
3444 21-04-2020 22:52:18 11.8 C 20 %
3445 21-04-2020 23:02:18 12.1 C 20 %
3446 21-04-2020 23:12:18 11.8 C 20 %
3447 21-04-2020 23:22:17 11.5 C 20 %
3448 21-04-2020 23:32:18 11.3 C 20 %
3449 21-04-2020 23:42:18 11.3 C 20 %
3450 21-04-2020 23:52:18 11.1 C 20 %
Sensor: Nr:Datum:Temp:Feuchte:
Aussen-T/F 3451 22-04-2020 00:02:18 11.1 C 20 %
3452 22-04-2020 00:12:18 10.6 C 20 %
3453 22-04-2020 00:22:17 11.1 C 20 %
3454 22-04-2020 00:32:18 11.4 C 20 %
3455 22-04-2020 00:42:18 10.9 C 20 %
3456 22-04-2020 00:52:17 11 C 20 %
3457 22-04-2020 01:02:17 10.8 C 20 %
3458 22-04-2020 01:12:17 10 C 21 %
3459 22-04-2020 01:22:17 9.9 C 25 %
3460 22-04-2020 01:32:18 9.7 C 25 %
3461 22-04-2020 01:42:18 10.2 C 21 %
3462 22-04-2020 01:52:17 9.9 C 23 %
3463 22-04-2020 02:02:17 9.9 C 23 %
3464 22-04-2020 02:12:17 9.8 C 25 %
3465 22-04-2020 02:22:17 9.5 C 25 %
3466 22-04-2020 02:32:17 9.3 C 25 %
3467 22-04-2020 02:42:17 9.7 C 25 %
3468 22-04-2020 02:52:17 9.3 C 25 %
3469 22-04-2020 03:02:17 9.5 C 25 %
3470 22-04-2020 03:12:17 9 C 25 %
3471 22-04-2020 03:22:18 8.8 C 26 %
3472 22-04-2020 03:32:18 8.5 C 27 %
3473 22-04-2020 03:42:18 8.4 C 27 %
3474 22-04-2020 03:52:17 8.3 C 27 %
3475 22-04-2020 04:02:18 8.4 C 27 %
Sensor: Nr:Datum:Temp:Feuchte:
Aussen-T/F 3476 22-04-2020 04:12:18 8.3 C 27 %
3477 22-04-2020 04:22:17 8 C 27 %
3478 22-04-2020 04:32:18 7.9 C 27 %
3479 22-04-2020 04:42:18 7.9 C 27 %
3480 22-04-2020 04:52:17 7.4 C 28 %
3481 22-04-2020 05:02:18 7.5 C 28 %
3482 22-04-2020 05:12:18 7.3 C 28 %
3483 22-04-2020 05:22:17 7.1 C 29 %
3484 22-04-2020 05:32:17 7.1 C 29 %
3485 22-04-2020 05:42:18 6.9 C 30 %
3486 22-04-2020 05:52:17 6.7 C 30 %
3487 22-04-2020 06:02:18 6.7 C 30 %
3488 22-04-2020 06:12:18 6.1 C 31 %
3489 22-04-2020 06:22:17 5.8 C 32 %
3490 22-04-2020 06:32:17 5.6 C 33 %
3491 22-04-2020 06:42:17 5.3 C 35 %
3492 22-04-2020 06:52:17 5.6 C 35 %
3493 22-04-2020 07:02:17 5.6 C 35 %
3494 22-04-2020 07:12:17 5.4 C 35 %
3495 22-04-2020 07:22:18 5.9 C 35 %
3496 22-04-2020 07:32:17 5.5 C 35 %
3497 22-04-2020 07:42:17 5.7 C 35 %
3498 22-04-2020 07:52:17 5.9 C 35 %
3499 22-04-2020 08:02:17 6.5 C 34 %
3500 22-04-2020 08:12:17 6.6 C 34 %
Sensor: Nr:Datum:Temp:Feuchte:
Aussen-T/F 3501 22-04-2020 08:22:17 7 C 33 %
3502 22-04-2020 08:32:17 7.5 C 32 %
3503 22-04-2020 08:42:17 8 C 31 %
3504 22-04-2020 08:52:18 8.9 C 30 %
3505 22-04-2020 09:02:18 9.1 C 30 %
3506 22-04-2020 09:12:18 9.1 C 30 %
3507 22-04-2020 09:22:17 10.1 C 26 %
3508 22-04-2020 09:32:17 10.7 C 26 %
3509 22-04-2020 09:42:17 10.7 C 26 %
3510 22-04-2020 09:52:17 11.3 C 24 %
3511 22-04-2020 10:02:17 11.5 C 24 %
3512 22-04-2020 10:12:17 12.5 C 20 %
3513 22-04-2020 10:22:17 13 C 20 %
3514 22-04-2020 10:32:17 13.7 C 20 %
3515 22-04-2020 10:42:17 14.2 C 20 %
3516 22-04-2020 10:52:17 14.8 C 20 %
3517 22-04-2020 11:02:17 15.4 C 20 %
3518 22-04-2020 11:12:17 15.7 C 20 %
3519 22-04-2020 11:22:17 16.2 C 20 %
3520 22-04-2020 11:32:17 16.4 C 20 %
3521 22-04-2020 11:42:17 17.1 C 20 %
3522 22-04-2020 11:52:18 17.1 C 20 %
3523 22-04-2020 12:02:18 17.9 C 20 %
3524 22-04-2020 12:12:18 17.6 C 20 %
3525 22-04-2020 12:22:17 17.7 C 20 %
Sensor: Nr:Datum:Temp:Feuchte:
Aussen-T/F 3526 22-04-2020 12:32:17 17.7 C 20 %
3527 22-04-2020 12:42:17 17.7 C 20 %
3528 22-04-2020 12:52:18 18 C 20 %
3529 22-04-2020 13:02:17 18.6 C 20 %
3530 22-04-2020 13:12:17 19.3 C 20 %
3531 22-04-2020 13:22:17 19 C 20 %
3532 22-04-2020 13:32:17 18.9 C 20 %
3533 22-04-2020 13:42:17 19.1 C 20 %
3534 22-04-2020 13:52:17 19.4 C 20 %
3535 22-04-2020 14:02:17 19.8 C 20 %
3536 22-04-2020 14:12:17 20.3 C 20 %
3537 22-04-2020 14:22:17 21.2 C 20 %
3538 22-04-2020 14:32:17 25.4 C 20 %
3539 22-04-2020 14:42:17 27.1 C 20 %
3540 22-04-2020 14:52:17 25.8 C 20 %
3541 22-04-2020 15:02:17 24.9 C 20 %
3542 22-04-2020 15:12:18 26.4 C 20 %
3543 22-04-2020 15:22:17 27.6 C 20 %
3544 22-04-2020 15:32:17 27 C 20 %
3545 22-04-2020 15:42:17 25.4 C 20 %
3546 22-04-2020 15:52:17 25.7 C 20 %
3547 22-04-2020 16:02:17 25.3 C 20 %
3548 22-04-2020 16:12:17 27.2 C 20 %
3549 22-04-2020 16:22:17 26.8 C 20 %
3550 22-04-2020 16:32:18 27.7 C 20 %
Sensor: Nr:Datum:Temp:Feuchte:
Aussen-T/F 3551 22-04-2020 16:42:18 25.2 C 20 %
3552 22-04-2020 16:52:17 26.3 C 20 %
3553 22-04-2020 17:02:17 25.2 C 20 %
3554 22-04-2020 17:12:17 24.6 C 20 %
3555 22-04-2020 17:22:17 25.1 C 20 %
3556 22-04-2020 17:32:17 25.5 C 20 %
3557 22-04-2020 17:42:17 25.6 C 20 %
3558 22-04-2020 17:52:17 25.2 C 20 %
3559 22-04-2020 18:02:17 23.1 C 20 %
3560 22-04-2020 18:12:17 22 C 20 %
3561 22-04-2020 18:22:17 22.1 C 20 %
3562 22-04-2020 18:32:17 21.9 C 20 %
3563 22-04-2020 18:42:17 21.9 C 20 %
3564 22-04-2020 18:52:17 21.6 C 20 %
3565 22-04-2020 19:02:17 21.1 C 20 %
3566 22-04-2020 19:12:17 21.2 C 20 %
3567 22-04-2020 19:22:17 20.8 C 20 %
3568 22-04-2020 19:32:18 20.4 C 20 %
3569 22-04-2020 19:42:18 20.3 C 20 %
3570 22-04-2020 19:52:17 20 C 20 %
3571 22-04-2020 20:02:18 19.4 C 20 %
3572 22-04-2020 20:12:18 18.4 C 20 %
3573 22-04-2020 20:22:17 17 C 20 %
3574 22-04-2020 20:32:17 16.3 C 20 %
3575 22-04-2020 20:42:17 16.2 C 20 %
Sensor: Nr:Datum:Temp:Feuchte:
Aussen-T/F 3576 22-04-2020 20:52:17 15.9 C 20 %
3577 22-04-2020 21:02:17 15.7 C 20 %
3578 22-04-2020 21:12:17 15 C 20 %
3579 22-04-2020 21:22:17 14.6 C 20 %
3580 22-04-2020 21:32:17 14.4 C 20 %
3581 22-04-2020 21:42:17 14.4 C 20 %
3582 22-04-2020 21:52:17 14.1 C 20 %
3583 22-04-2020 22:02:17 13.7 C 20 %
3584 22-04-2020 22:12:17 13.8 C 20 %
3585 22-04-2020 22:22:17 14.2 C 20 %
3586 22-04-2020 22:32:17 13.6 C 20 %
3587 22-04-2020 22:42:17 13.5 C 20 %
3588 22-04-2020 22:52:18 13.5 C 20 %
3589 22-04-2020 23:02:17 13.7 C 20 %
3590 22-04-2020 23:12:17 13.5 C 20 %
3591 22-04-2020 23:22:17 13.2 C 20 %
3592 22-04-2020 23:32:17 12.9 C 20 %
3593 22-04-2020 23:42:17 13.2 C 20 %
3594 22-04-2020 23:52:18 12.8 C 20 %
3595 23-04-2020 00:02:17 12.6 C 20 %
3596 23-04-2020 00:12:17 12.4 C 20 %
3597 23-04-2020 00:22:17 12.4 C 20 %
3598 23-04-2020 00:32:17 12.2 C 20 %
3599 23-04-2020 00:42:17 12.2 C 20 %
3600 23-04-2020 00:52:17 12.3 C 20 %
Sensor: Nr:Datum:Temp:Feuchte:
Aussen-T/F 3601 23-04-2020 01:02:17 12.1 C 20 %
3602 23-04-2020 01:12:17 11.9 C 20 %
3603 23-04-2020 01:22:18 11 C 20 %
3604 23-04-2020 01:32:17 12 C 20 %
3605 23-04-2020 01:42:17 10.9 C 20 %
3606 23-04-2020 01:52:17 10.5 C 22 %
3607 23-04-2020 02:02:17 9.7 C 25 %
3608 23-04-2020 02:12:17 9.7 C 26 %
3609 23-04-2020 02:22:18 9.7 C 25 %
3610 23-04-2020 02:32:17 9.8 C 26 %
3611 23-04-2020 02:42:17 9.6 C 25 %
3612 23-04-2020 02:52:17 9.3 C 26 %
3613 23-04-2020 03:02:18 9.2 C 26 %
3614 23-04-2020 03:12:18 9.2 C 26 %
3615 23-04-2020 03:22:17 9.4 C 26 %
3616 23-04-2020 03:32:17 9.4 C 26 %
3617 23-04-2020 03:42:17 9.3 C 26 %
3618 23-04-2020 03:52:17 9.1 C 26 %
3619 23-04-2020 04:02:17 8.6 C 27 %
3620 23-04-2020 04:12:17 8.1 C 29 %
3621 23-04-2020 04:22:17 7.5 C 30 %
3622 23-04-2020 04:32:17 7.2 C 32 %
3623 23-04-2020 04:42:17 7.2 C 32 %
3624 23-04-2020 04:52:17 6.9 C 33 %
3625 23-04-2020 05:02:17 6.4 C 34 %
Sensor: Nr:Datum:Temp:Feuchte:
Aussen-T/F 3626 23-04-2020 05:12:17 6.2 C 34 %
3627 23-04-2020 05:22:17 5.9 C 35 %
3628 23-04-2020 05:32:17 6 C 35 %
3629 23-04-2020 05:42:17 6 C 35 %
3630 23-04-2020 05:52:17 5.8 C 36 %
3631 23-04-2020 06:02:17 5.8 C 36 %
3632 23-04-2020 06:12:18 5.4 C 36 %
3633 23-04-2020 06:22:17 5.4 C 36 %
3634 23-04-2020 06:32:18 5.3 C 36 %
3635 23-04-2020 06:42:18 5.3 C 36 %
3636 23-04-2020 06:52:17 5.3 C 36 %
3637 23-04-2020 07:02:17 5.3 C 37 %
3638 23-04-2020 07:12:17 5.3 C 37 %
3639 23-04-2020 07:22:17 5.2 C 37 %
3640 23-04-2020 07:32:17 5.2 C 39 %
3641 23-04-2020 07:42:17 5.2 C 39 %
3642 23-04-2020 07:52:17 5.3 C 39 %
3643 23-04-2020 08:02:17 5.4 C 39 %
3644 23-04-2020 08:12:18 5.5 C 39 %
3645 23-04-2020 08:22:18 5.9 C 39 %
3646 23-04-2020 08:32:18 6.2 C 38 %
3647 23-04-2020 08:42:18 6.5 C 38 %
3648 23-04-2020 08:52:17 6.9 C 38 %
3649 23-04-2020 09:02:17 7.7 C 36 %
3650 23-04-2020 09:12:17 8.1 C 36 %
Sensor: Nr:Datum:Temp:Feuchte:
Aussen-T/F 3651 23-04-2020 09:22:17 8.6 C 35 %
3652 23-04-2020 09:32:17 9.2 C 35 %
3653 23-04-2020 09:42:17 9.7 C 34 %
3654 23-04-2020 09:52:17 9.9 C 34 %
3655 23-04-2020 10:02:18 10.5 C 33 %
3656 23-04-2020 10:12:18 11 C 32 %
3657 23-04-2020 10:22:17 11.8 C 30 %
3658 23-04-2020 10:32:17 12.7 C 28 %
3659 23-04-2020 10:42:17 13.2 C 27 %
3660 23-04-2020 10:52:17 14.8 C 22 %
3661 23-04-2020 11:02:18 16 C 20 %
3662 23-04-2020 11:12:18 16.3 C 20 %
3663 23-04-2020 11:22:17 17.2 C 20 %
3664 23-04-2020 11:32:17 17.4 C 20 %
3665 23-04-2020 11:42:17 17.7 C 20 %
3666 23-04-2020 11:52:18 17.9 C 20 %
3667 23-04-2020 12:02:17 18.9 C 20 %
3668 23-04-2020 12:12:17 18.2 C 20 %
3669 23-04-2020 12:22:17 18 C 20 %
3670 23-04-2020 12:32:18 18.5 C 20 %
3671 23-04-2020 12:42:18 18.3 C 20 %
3672 23-04-2020 12:52:17 18.4 C 20 %
3673 23-04-2020 13:02:17 19.2 C 20 %
3674 23-04-2020 13:12:17 19.5 C 20 %
3675 23-04-2020 13:22:17 19.1 C 20 %
Sensor: Nr:Datum:Temp:Feuchte:
Aussen-T/F 3676 23-04-2020 13:32:17 19.2 C 20 %
3677 23-04-2020 13:42:17 19.7 C 20 %
3678 23-04-2020 13:52:17 20.1 C 20 %
3679 23-04-2020 14:02:17 20.4 C 20 %
3680 23-04-2020 14:12:17 20.7 C 20 %
3681 23-04-2020 14:22:17 21.6 C 20 %
3682 23-04-2020 14:32:17 27.4 C 20 %
3683 23-04-2020 14:42:17 29.1 C 20 %
3684 23-04-2020 14:52:17 29 C 20 %
3685 23-04-2020 15:02:17 29.3 C 20 %
3686 23-04-2020 15:12:17 29.5 C 20 %
3687 23-04-2020 15:22:18 28.8 C 20 %
3688 23-04-2020 15:32:17 30.3 C 20 %
3689 23-04-2020 15:42:17 31.4 C 20 %
3690 23-04-2020 15:52:17 28.9 C 20 %
3691 23-04-2020 16:02:18 27.7 C 20 %
3692 23-04-2020 16:12:18 28.1 C 20 %
3693 23-04-2020 16:22:17 28.4 C 20 %
3694 23-04-2020 16:32:18 28.3 C 20 %
3695 23-04-2020 16:42:18 29 C 20 %
3696 23-04-2020 16:52:17 29.2 C 20 %
3697 23-04-2020 17:02:17 31.6 C 20 %
3698 23-04-2020 17:12:18 28.2 C 20 %
3699 23-04-2020 17:22:17 28.6 C 20 %
3700 23-04-2020 17:32:18 28.1 C 20 %
Sensor: Nr:Datum:Temp:Feuchte:
Aussen-T/F 3701 23-04-2020 17:42:18 28 C 20 %
3702 23-04-2020 17:52:18 30.1 C 20 %
3703 23-04-2020 18:02:17 27.1 C 20 %
3704 23-04-2020 18:12:17 24.5 C 20 %
3705 23-04-2020 18:22:17 23.9 C 20 %
3706 23-04-2020 18:32:17 23.6 C 20 %
3707 23-04-2020 18:42:17 23.7 C 20 %
3708 23-04-2020 18:52:17 23.2 C 20 %
3709 23-04-2020 19:02:17 22.5 C 20 %
3710 23-04-2020 19:12:17 22.4 C 20 %
3711 23-04-2020 19:22:17 22 C 20 %
3712 23-04-2020 19:32:18 21.2 C 20 %
3713 23-04-2020 19:42:18 20 C 20 %
3714 23-04-2020 19:52:17 18.6 C 20 %
3715 23-04-2020 20:02:18 18.6 C 20 %
3716 23-04-2020 20:12:18 17.9 C 20 %
3717 23-04-2020 20:22:17 17.2 C 20 %
3718 23-04-2020 20:32:18 16.5 C 20 %
3719 23-04-2020 20:42:18 15.5 C 20 %
3720 23-04-2020 20:52:18 14.3 C 20 %
3721 23-04-2020 21:02:18 14 C 20 %
3722 23-04-2020 21:12:18 14.1 C 20 %
3723 23-04-2020 21:22:17 13.5 C 20 %
3724 23-04-2020 21:32:17 13.1 C 20 %
3725 23-04-2020 21:42:17 12.9 C 20 %
Sensor: Nr:Datum:Temp:Feuchte:
Aussen-T/F 3726 23-04-2020 21:52:17 12.5 C 20 %
3727 23-04-2020 22:02:17 12 C 23 %
3728 23-04-2020 22:12:17 11.6 C 25 %
3729 23-04-2020 22:22:17 11.5 C 25 %
3730 23-04-2020 22:32:18 11 C 26 %
3731 23-04-2020 22:42:18 11.1 C 26 %
3732 23-04-2020 22:52:18 10.8 C 26 %
3733 23-04-2020 23:02:18 10.4 C 27 %
3734 23-04-2020 23:12:18 10.3 C 27 %
3735 23-04-2020 23:22:18 9.6 C 29 %
3736 23-04-2020 23:32:17 9.6 C 29 %
3737 23-04-2020 23:42:17 9.6 C 29 %
3738 23-04-2020 23:52:17 9.2 C 30 %
3739 24-04-2020 00:02:18 9.2 C 30 %
3740 24-04-2020 00:12:18 9.3 C 30 %
3741 24-04-2020 00:22:17 9.2 C 30 %
3742 24-04-2020 00:32:18 8.6 C 31 %
3743 24-04-2020 00:42:18 8.4 C 31 %
3744 24-04-2020 00:52:17 8.3 C 32 %
3745 24-04-2020 01:02:18 8.1 C 32 %
3746 24-04-2020 01:12:18 8.3 C 33 %
3747 24-04-2020 01:22:17 8.1 C 32 %
3748 24-04-2020 01:32:18 8.1 C 33 %
3749 24-04-2020 01:42:18 8.2 C 33 %
3750 24-04-2020 01:52:17 7.8 C 33 %
Sensor: Nr:Datum:Temp:Feuchte:
Aussen-T/F 3751 24-04-2020 02:02:17 7.5 C 34 %
3752 24-04-2020 02:12:17 7.1 C 34 %
3753 24-04-2020 02:22:17 7 C 35 %
3754 24-04-2020 02:32:18 7.2 C 35 %
3755 24-04-2020 02:42:18 6.8 C 36 %
3756 24-04-2020 02:52:18 7 C 35 %
3757 24-04-2020 03:02:17 7 C 35 %
3758 24-04-2020 03:12:18 6.8 C 36 %
3759 24-04-2020 03:22:17 6.2 C 36 %
3760 24-04-2020 03:32:17 6.4 C 37 %
3761 24-04-2020 03:42:17 6.3 C 37 %
3762 24-04-2020 03:52:17 6.2 C 37 %
3763 24-04-2020 04:02:17 6.2 C 37 %
3764 24-04-2020 04:12:17 6.1 C 37 %
3765 24-04-2020 04:22:17 6 C 37 %
3766 24-04-2020 04:32:17 5.9 C 38 %
3767 24-04-2020 04:42:17 6.2 C 38 %
3768 24-04-2020 04:52:17 6.3 C 38 %
3769 24-04-2020 05:02:17 6.2 C 38 %
3770 24-04-2020 05:12:17 6 C 38 %
3771 24-04-2020 05:22:17 5.9 C 39 %
3772 24-04-2020 05:32:18 6.3 C 38 %
3773 24-04-2020 05:42:18 6.2 C 38 %
3774 24-04-2020 05:52:17 6.1 C 38 %
3775 24-04-2020 06:02:17 6.1 C 38 %
Sensor: Nr:Datum:Temp:Feuchte:
Aussen-T/F 3776 24-04-2020 06:12:17 5.9 C 39 %
3777 24-04-2020 06:22:18 6 C 39 %
3778 24-04-2020 06:32:17 6 C 38 %
3779 24-04-2020 06:42:17 6 C 39 %
3780 24-04-2020 06:52:17 6.2 C 39 %
3781 24-04-2020 07:02:17 6.3 C 38 %
3782 24-04-2020 07:12:17 6.3 C 39 %
3783 24-04-2020 07:22:17 6.3 C 39 %
3784 24-04-2020 07:32:18 6.3 C 39 %
3785 24-04-2020 07:42:18 6.5 C 39 %
3786 24-04-2020 07:52:17 6.7 C 39 %
3787 24-04-2020 08:02:18 6.8 C 39 %
3788 24-04-2020 08:12:18 7.3 C 38 %
3789 24-04-2020 08:22:17 8.2 C 36 %
3790 24-04-2020 08:32:17 9 C 35 %
3791 24-04-2020 08:42:17 9.6 C 35 %
3792 24-04-2020 08:52:17 9.9 C 34 %
3793 24-04-2020 09:02:17 10.4 C 33 %
3794 24-04-2020 09:12:18 11 C 32 %
3795 24-04-2020 09:22:17 11.5 C 31 %
3796 24-04-2020 09:32:18 11.9 C 31 %
3797 24-04-2020 09:42:18 12.5 C 30 %
3798 24-04-2020 09:52:17 12.4 C 30 %
3799 24-04-2020 10:02:17 12.8 C 30 %
3800 24-04-2020 10:12:17 13.1 C 29 %
Sensor: Nr:Datum:Temp:Feuchte:
Aussen-T/F 3801 24-04-2020 10:22:17 14 C 28 %
3802 24-04-2020 10:32:17 14.2 C 28 %
3803 24-04-2020 10:42:17 14.6 C 27 %
3804 24-04-2020 10:52:17 15 C 26 %
3805 24-04-2020 11:02:17 15.6 C 26 %
3806 24-04-2020 11:12:18 15.6 C 26 %
3807 24-04-2020 11:22:17 16.5 C 25 %
3808 24-04-2020 11:32:18 16.6 C 24 %
3809 24-04-2020 11:42:18 17 C 24 %
3810 24-04-2020 11:52:17 17 C 23 %
3811 24-04-2020 12:02:17 17.9 C 23 %
3812 24-04-2020 12:12:17 18.1 C 21 %
3813 24-04-2020 12:22:17 18.2 C 21 %
3814 24-04-2020 12:32:18 18.4 C 21 %
3815 24-04-2020 12:42:18 18.9 C 20 %
3816 24-04-2020 12:52:18 19.3 C 20 %
3817 24-04-2020 13:02:17 19.6 C 20 %
3818 24-04-2020 13:12:17 20.2 C 20 %
3819 24-04-2020 13:22:17 20.5 C 20 %
3820 24-04-2020 13:32:18 20.7 C 20 %
3821 24-04-2020 13:42:18 21 C 20 %
3822 24-04-2020 13:52:17 21.3 C 20 %
3823 24-04-2020 14:02:17 21.8 C 20 %
3824 24-04-2020 14:12:17 22.2 C 20 %
3825 24-04-2020 14:22:17 23.5 C 20 %
Sensor: Nr:Datum:Temp:Feuchte:
Aussen-T/F 3826 24-04-2020 14:32:17 26.8 C 20 %
3827 24-04-2020 14:42:17 28.5 C 20 %
3828 24-04-2020 14:52:17 27.1 C 20 %
3829 24-04-2020 15:02:18 28 C 20 %
3830 24-04-2020 15:12:18 31 C 20 %
3831 24-04-2020 15:22:17 27.6 C 20 %
3832 24-04-2020 15:32:17 28.1 C 20 %
3833 24-04-2020 15:42:18 27.5 C 20 %
3834 24-04-2020 15:52:17 28.8 C 20 %
3835 24-04-2020 16:02:18 28.7 C 20 %
3836 24-04-2020 16:12:18 28.7 C 20 %
3837 24-04-2020 16:22:18 27.2 C 20 %
3838 24-04-2020 16:32:18 26.8 C 20 %
3839 24-04-2020 16:42:18 28 C 20 %
3840 24-04-2020 16:52:17 26.3 C 20 %
3841 24-04-2020 17:02:17 26 C 20 %
3842 24-04-2020 17:12:17 26.7 C 20 %
3843 24-04-2020 17:22:18 26.4 C 20 %
3844 24-04-2020 17:32:18 26.3 C 20 %
3845 24-04-2020 17:42:18 24.2 C 20 %
3846 24-04-2020 17:52:17 26 C 20 %
3847 24-04-2020 18:02:18 24.1 C 20 %
3848 24-04-2020 18:12:18 22.3 C 20 %
3849 24-04-2020 18:22:17 22.2 C 20 %
3850 24-04-2020 18:32:17 22 C 20 %
Sensor: Nr:Datum:Temp:Feuchte:
Aussen-T/F 3851 24-04-2020 18:42:17 20.9 C 20 %
3852 24-04-2020 18:52:18 21 C 20 %
3853 24-04-2020 19:02:17 20.5 C 20 %
3854 24-04-2020 19:12:17 20.3 C 20 %
3855 24-04-2020 19:23:17 20 C 20 %
3856 24-04-2020 19:32:17 19.9 C 20 %
3857 24-04-2020 19:42:18 19.6 C 20 %
3858 24-04-2020 19:53:17 19.2 C 20 %
3859 24-04-2020 20:02:18 19 C 20 %
3860 24-04-2020 20:12:18 18.5 C 20 %
3861 24-04-2020 20:22:17 17.7 C 20 %
3862 24-04-2020 20:32:18 17.3 C 20 %
3863 24-04-2020 20:42:18 16.8 C 20 %
3864 24-04-2020 20:52:18 16.1 C 20 %
3865 24-04-2020 21:02:18 15.9 C 20 %
3866 24-04-2020 21:12:18 15.5 C 20 %
3867 24-04-2020 21:23:17 15.4 C 20 %
3868 24-04-2020 21:33:17 15 C 20 %
3869 24-04-2020 21:42:17 15.1 C 20 %
3870 24-04-2020 21:52:17 14.7 C 20 %
3871 24-04-2020 22:03:17 14.4 C 20 %
3872 24-04-2020 22:13:17 14.1 C 20 %
3873 24-04-2020 22:22:18 14.2 C 20 %
3874 24-04-2020 22:32:18 14.4 C 20 %
3875 24-04-2020 22:42:18 13.9 C 20 %
Sensor: Nr:Datum:Temp:Feuchte:
Aussen-T/F 3876 24-04-2020 22:52:18 13.3 C 20 %
3877 24-04-2020 23:02:18 13.2 C 20 %
3878 24-04-2020 23:12:18 13.2 C 20 %
3879 24-04-2020 23:22:17 12.7 C 20 %
3880 24-04-2020 23:33:17 12.5 C 20 %
3881 24-04-2020 23:43:17 13 C 20 %
3882 24-04-2020 23:53:17 12.4 C 20 %
3883 25-04-2020 00:02:18 12.6 C 20 %
3884 25-04-2020 00:12:18 12.7 C 20 %
3885 25-04-2020 00:23:17 12.6 C 20 %
3886 25-04-2020 00:32:18 12.3 C 20 %
3887 25-04-2020 00:42:18 11.8 C 20 %
3888 25-04-2020 00:52:18 11.7 C 20 %
3889 25-04-2020 01:03:17 11.7 C 20 %
3890 25-04-2020 01:12:17 11.7 C 20 %
3891 25-04-2020 01:23:17 11.3 C 22 %
3892 25-04-2020 01:33:17 11 C 25 %
3893 25-04-2020 01:43:17 11.1 C 25 %
3894 25-04-2020 01:52:17 11.1 C 25 %
3895 25-04-2020 02:02:18 10.4 C 26 %
3896 25-04-2020 02:12:18 10.3 C 26 %
3897 25-04-2020 02:23:17 9.7 C 29 %
3898 25-04-2020 02:33:17 9.5 C 29 %
3899 25-04-2020 02:43:17 9.4 C 30 %
3900 25-04-2020 02:53:17 9.8 C 29 %
Sensor: Nr:Datum:Temp:Feuchte:
Aussen-T/F 3901 25-04-2020 03:03:17 10.1 C 28 %
3902 25-04-2020 03:13:17 10 C 28 %
3903 25-04-2020 03:22:18 10 C 28 %
3904 25-04-2020 03:33:17 9.7 C 30 %
3905 25-04-2020 03:43:17 9 C 30 %
3906 25-04-2020 03:53:17 9 C 30 %
3907 25-04-2020 04:02:18 9.3 C 30 %
3908 25-04-2020 04:12:18 8.9 C 30 %
3909 25-04-2020 04:23:17 8.9 C 30 %
3910 25-04-2020 04:33:18 8.7 C 31 %
3911 25-04-2020 04:42:18 8.2 C 32 %
3912 25-04-2020 04:53:17 8.3 C 33 %
3913 25-04-2020 05:03:17 8.1 C 33 %
3914 25-04-2020 05:13:18 7.5 C 35 %
3915 25-04-2020 05:23:18 7 C 36 %
3916 25-04-2020 05:32:18 7.1 C 37 %
3917 25-04-2020 05:42:18 7.2 C 38 %
3918 25-04-2020 05:53:18 7.6 C 38 %
3919 25-04-2020 06:02:18 8 C 36 %
3920 25-04-2020 06:12:18 8.2 C 36 %
3921 25-04-2020 06:23:17 8.3 C 36 %
3922 25-04-2020 06:33:17 8.3 C 36 %
3923 25-04-2020 06:43:18 8.4 C 35 %
3924 25-04-2020 06:53:17 8.3 C 35 %
3925 25-04-2020 07:03:18 8.3 C 35 %
Sensor: Nr:Datum:Temp:Feuchte:
Aussen-T/F 3926 25-04-2020 07:12:18 8.4 C 35 %
3927 25-04-2020 07:23:17 8.3 C 35 %
3928 25-04-2020 07:32:18 8.4 C 35 %
3929 25-04-2020 07:42:18 8.4 C 35 %
3930 25-04-2020 07:52:18 8.4 C 35 %
3931 25-04-2020 08:03:17 8.4 C 34 %
3932 25-04-2020 08:13:17 8.7 C 34 %
3933 25-04-2020 08:23:17 8.6 C 34 %
3934 25-04-2020 08:33:17 8.7 C 34 %
3935 25-04-2020 08:43:17 8.8 C 34 %
3936 25-04-2020 08:53:17 8.8 C 32 %
3937 25-04-2020 09:03:17 9.3 C 32 %
3938 25-04-2020 09:13:17 9.6 C 31 %
3939 25-04-2020 09:23:17 9.7 C 31 %
3940 25-04-2020 09:33:17 9.8 C 31 %
3941 25-04-2020 09:43:17 10.2 C 30 %
3942 25-04-2020 09:53:17 10.4 C 30 %
3943 25-04-2020 10:03:17 10.8 C 30 %
3944 25-04-2020 10:13:17 10.5 C 28 %
3945 25-04-2020 10:23:17 11 C 28 %
3946 25-04-2020 10:32:18 11.1 C 27 %
3947 25-04-2020 10:42:18 10.5 C 27 %
3948 25-04-2020 10:53:17 11.5 C 26 %
3949 25-04-2020 11:03:17 12.4 C 25 %
3950 25-04-2020 11:13:18 12 C 24 %
Sensor: Nr:Datum:Temp:Feuchte:
Aussen-T/F 3951 25-04-2020 11:23:17 10.9 C 25 %
3952 25-04-2020 11:32:18 11.6 C 25 %
3953 25-04-2020 11:42:18 11.2 C 25 %
3954 25-04-2020 11:53:17 11.8 C 25 %
3955 25-04-2020 12:03:18 11.2 C 25 %
3956 25-04-2020 12:13:18 11.5 C 25 %
3957 25-04-2020 12:23:18 11.7 C 25 %
3958 25-04-2020 12:33:17 11.7 C 25 %
3959 25-04-2020 12:43:18 11.4 C 25 %
3960 25-04-2020 12:53:17 12.3 C 24 %
3961 25-04-2020 13:03:17 12.4 C 22 %
3962 25-04-2020 13:13:17 12.5 C 23 %
3963 25-04-2020 13:23:17 13.2 C 21 %
3964 25-04-2020 13:33:17 13.1 C 21 %
3965 25-04-2020 13:43:17 13.2 C 21 %
3966 25-04-2020 13:53:17 13.7 C 20 %
3967 25-04-2020 14:03:17 13.8 C 20 %
3968 25-04-2020 14:13:17 14.1 C 20 %
3969 25-04-2020 14:23:17 15.8 C 20 %
3970 25-04-2020 14:33:17 21 C 20 %
3971 25-04-2020 14:43:17 22.5 C 20 %
3972 25-04-2020 14:53:17 20.7 C 20 %
3973 25-04-2020 15:03:17 23.8 C 20 %
3974 25-04-2020 15:13:17 23.8 C 20 %
3975 25-04-2020 15:23:17 23.7 C 20 %
Sensor: Nr:Datum:Temp:Feuchte:
Aussen-T/F 3976 25-04-2020 15:33:18 25.7 C 20 %
3977 25-04-2020 15:43:18 25.7 C 20 %
3978 25-04-2020 15:53:18 26.3 C 20 %
3979 25-04-2020 16:03:17 23.2 C 20 %
3980 25-04-2020 16:13:17 24.8 C 20 %
3981 25-04-2020 16:23:17 23.9 C 20 %
3982 25-04-2020 16:33:17 25.3 C 20 %
3983 25-04-2020 16:43:17 22.5 C 20 %
3984 25-04-2020 16:53:17 23.9 C 20 %
3985 25-04-2020 17:03:17 25.1 C 20 %
3986 25-04-2020 17:13:17 25.9 C 20 %
3987 25-04-2020 17:23:17 26.4 C 20 %
3988 25-04-2020 17:33:18 27.1 C 20 %
3989 25-04-2020 17:43:18 22.5 C 20 %
3990 25-04-2020 17:53:17 23.3 C 20 %
3991 25-04-2020 18:03:17 20.1 C 20 %
3992 25-04-2020 18:13:17 18.5 C 20 %
3993 25-04-2020 18:23:17 18.6 C 20 %
3994 25-04-2020 18:33:17 18.3 C 20 %
3995 25-04-2020 18:43:17 17.9 C 20 %
3996 25-04-2020 18:53:17 17.7 C 20 %
3997 25-04-2020 19:03:17 17.5 C 20 %
3998 25-04-2020 19:13:17 17.1 C 20 %
3999 25-04-2020 19:23:17 16.9 C 20 %
4000 25-04-2020 19:33:17 16.4 C 20 %
Sensor: Nr:Datum:Temp:Feuchte:
Aussen-T/F 4001 25-04-2020 19:43:18 16.2 C 20 %
4002 25-04-2020 19:53:17 15.7 C 20 %
4003 25-04-2020 20:03:18 15.4 C 20 %
4004 25-04-2020 20:13:18 14.7 C 20 %
4005 25-04-2020 20:23:17 13.9 C 20 %
4006 25-04-2020 20:33:17 13.8 C 20 %
4007 25-04-2020 20:43:17 12.7 C 20 %
4008 25-04-2020 20:53:17 12.4 C 20 %
4009 25-04-2020 21:03:18 12.1 C 20 %
4010 25-04-2020 21:13:18 12 C 20 %
4011 25-04-2020 21:23:17 11.4 C 21 %
4012 25-04-2020 21:33:17 11.1 C 22 %
4013 25-04-2020 21:43:18 11.2 C 21 %
4014 25-04-2020 21:53:17 11 C 22 %
4015 25-04-2020 22:03:17 11 C 22 %
4016 25-04-2020 22:13:17 10.9 C 23 %
4017 25-04-2020 22:23:17 10.1 C 25 %
4018 25-04-2020 22:33:17 10.1 C 25 %
4019 25-04-2020 22:43:17 9.9 C 26 %
4020 25-04-2020 22:53:18 9.8 C 27 %
4021 25-04-2020 23:03:17 9.6 C 27 %
4022 25-04-2020 23:13:17 9.5 C 27 %
4023 25-04-2020 23:23:17 9.1 C 28 %
4024 25-04-2020 23:33:18 8.7 C 30 %
4025 25-04-2020 23:43:18 8.2 C 31 %
Sensor: Nr:Datum:Temp:Feuchte:
Aussen-T/F 4026 25-04-2020 23:53:17 7.7 C 32 %
4027 26-04-2020 00:03:18 7.1 C 33 %
4028 26-04-2020 00:13:18 6.8 C 35 %
4029 26-04-2020 00:23:17 6.6 C 35 %
4030 26-04-2020 00:33:18 6.3 C 35 %
4031 26-04-2020 00:43:18 6.2 C 36 %
4032 26-04-2020 00:53:17 5.9 C 37 %
4033 26-04-2020 01:03:17 5.8 C 37 %
4034 26-04-2020 01:13:18 5.5 C 38 %
4035 26-04-2020 01:23:17 5.6 C 38 %
4036 26-04-2020 01:33:17 5.2 C 38 %
4037 26-04-2020 01:43:17 5.1 C 38 %
4038 26-04-2020 01:53:17 5.1 C 39 %
4039 26-04-2020 02:03:17 4.7 C 40 %
4040 26-04-2020 02:13:17 4.7 C 40 %
4041 26-04-2020 02:23:17 4.6 C 40 %
4042 26-04-2020 02:33:17 4.5 C 40 %
4043 26-04-2020 02:43:17 4.8 C 41 %
4044 26-04-2020 02:53:18 4.7 C 41 %
4045 26-04-2020 03:03:17 4.4 C 41 %
4046 26-04-2020 03:13:18 4.3 C 41 %
4047 26-04-2020 03:23:17 4.1 C 41 %
4048 26-04-2020 03:33:18 4 C 41 %
4049 26-04-2020 03:43:18 3.8 C 42 %
4050 26-04-2020 03:53:17 3.6 C 43 %
Sensor: Nr:Datum:Temp:Feuchte:
Aussen-T/F 4051 26-04-2020 04:03:18 3.9 C 44 %
4052 26-04-2020 04:13:18 3.6 C 43 %
4053 26-04-2020 04:23:17 3.4 C 43 %
4054 26-04-2020 04:33:17 3.2 C 43 %
4055 26-04-2020 04:43:17 3.3 C 44 %
4056 26-04-2020 04:53:17 3.1 C 44 %
4057 26-04-2020 05:03:18 3.1 C 45 %
4058 26-04-2020 05:13:18 3 C 44 %
4059 26-04-2020 05:23:17 2.7 C 45 %
4060 26-04-2020 05:33:17 2.6 C 45 %
4061 26-04-2020 05:43:17 2.7 C 46 %
4062 26-04-2020 05:53:17 2.5 C 46 %
4063 26-04-2020 06:03:17 2.3 C 46 %
4064 26-04-2020 06:13:17 2.4 C 46 %
4065 26-04-2020 06:23:17 2.4 C 46 %
4066 26-04-2020 06:33:17 2.4 C 46 %
4067 26-04-2020 06:43:18 2.3 C 46 %
4068 26-04-2020 06:53:17 2.3 C 46 %
4069 26-04-2020 07:03:17 2.3 C 46 %
4070 26-04-2020 07:13:17 2.6 C 47 %
4071 26-04-2020 07:23:17 2.7 C 47 %
4072 26-04-2020 07:33:17 2.8 C 46 %
4073 26-04-2020 07:43:17 2.8 C 46 %
4074 26-04-2020 07:53:17 2.9 C 47 %
4075 26-04-2020 08:03:17 3.2 C 46 %
Sensor: Nr:Datum:Temp:Feuchte:
Aussen-T/F 4076 26-04-2020 08:13:17 3.4 C 46 %
4077 26-04-2020 08:23:17 3.6 C 46 %
4078 26-04-2020 08:33:17 4 C 45 %
4079 26-04-2020 08:43:17 4.3 C 45 %
4080 26-04-2020 08:53:17 4.5 C 45 %
4081 26-04-2020 09:03:17 4.9 C 45 %
4082 26-04-2020 09:13:17 5.2 C 43 %
4083 26-04-2020 09:23:17 5.8 C 44 %
4084 26-04-2020 09:33:17 6.4 C 42 %
4085 26-04-2020 09:43:17 6.8 C 41 %
4086 26-04-2020 09:53:17 7.4 C 40 %
4087 26-04-2020 10:03:18 7.8 C 39 %
4088 26-04-2020 10:13:18 8.5 C 38 %
4089 26-04-2020 10:23:17 9 C 37 %
4090 26-04-2020 10:33:18 9.6 C 36 %
4091 26-04-2020 10:43:18 10.4 C 35 %
4092 26-04-2020 10:53:17 11.3 C 32 %
4093 26-04-2020 11:03:17 12.2 C 31 %
4094 26-04-2020 11:13:17 12.8 C 29 %
4095 26-04-2020 11:23:17 13.6 C 27 %
4096 26-04-2020 11:33:17 14.1 C 26 %
4097 26-04-2020 11:43:17 14.7 C 25 %
4098 26-04-2020 11:53:17 15.2 C 22 %
4099 26-04-2020 12:03:17 15.2 C 21 %
4100 26-04-2020 12:13:17 15.1 C 20 %
Sensor: Nr:Datum:Temp:Feuchte:
Aussen-T/F 4101 26-04-2020 12:23:18 15.4 C 20 %
4102 26-04-2020 12:33:17 15.9 C 20 %
4103 26-04-2020 12:43:18 15.9 C 20 %
4104 26-04-2020 12:53:17 16.2 C 20 %
4105 26-04-2020 13:03:17 16.5 C 20 %
4106 26-04-2020 13:13:17 16.8 C 20 %
4107 26-04-2020 13:23:18 16.6 C 20 %
4108 26-04-2020 13:33:17 16.8 C 20 %
4109 26-04-2020 13:43:17 17.1 C 20 %
4110 26-04-2020 13:53:17 17.1 C 20 %
4111 26-04-2020 14:03:17 17.4 C 20 %
4112 26-04-2020 14:13:17 18.1 C 20 %
4113 26-04-2020 14:23:17 19.3 C 20 %
4114 26-04-2020 14:33:18 25 C 20 %
4115 26-04-2020 14:43:18 24.8 C 20 %
4116 26-04-2020 14:53:17 26.7 C 20 %
4117 26-04-2020 15:03:18 26.6 C 20 %
4118 26-04-2020 15:13:18 28.3 C 20 %
4119 26-04-2020 15:23:17 29.7 C 20 %
4120 26-04-2020 15:33:17 29.5 C 20 %
4121 26-04-2020 15:43:17 28 C 20 %
4122 26-04-2020 15:53:18 29 C 20 %
4123 26-04-2020 16:03:18 30.5 C 20 %
4124 26-04-2020 16:13:18 27.6 C 20 %
4125 26-04-2020 16:23:17 28.4 C 20 %
Sensor: Nr:Datum:Temp:Feuchte:
Aussen-T/F 4126 26-04-2020 16:33:17 26.5 C 20 %
4127 26-04-2020 16:43:17 30.3 C 20 %
4128 26-04-2020 16:53:17 28.1 C 20 %
4129 26-04-2020 17:03:18 29 C 20 %
4130 26-04-2020 17:13:18 28.3 C 20 %
4131 26-04-2020 17:23:18 27.4 C 20 %
4132 26-04-2020 17:33:18 27.2 C 20 %
4133 26-04-2020 17:43:18 28 C 20 %
4134 26-04-2020 17:53:17 26.5 C 20 %
4135 26-04-2020 18:03:17 25.8 C 20 %
4136 26-04-2020 18:13:17 23.1 C 20 %
4137 26-04-2020 18:23:17 22 C 20 %
4138 26-04-2020 18:33:17 21.9 C 20 %
4139 26-04-2020 18:43:17 21.1 C 20 %
4140 26-04-2020 18:53:17 21.1 C 20 %
4141 26-04-2020 19:03:17 20.9 C 20 %
4142 26-04-2020 19:13:17 20.2 C 20 %
4143 26-04-2020 19:23:17 19.7 C 20 %
4144 26-04-2020 19:33:17 19.5 C 20 %
4145 26-04-2020 19:43:18 19.1 C 20 %
4146 26-04-2020 19:53:17 18.2 C 20 %
4147 26-04-2020 20:03:18 17.3 C 20 %
4148 26-04-2020 20:13:18 16.6 C 20 %
4149 26-04-2020 20:23:17 15.8 C 20 %
4150 26-04-2020 20:33:17 14.7 C 20 %
Sensor: Nr:Datum:Temp:Feuchte:
Aussen-T/F 4151 26-04-2020 20:43:17 14.3 C 20 %
4152 26-04-2020 20:53:18 14 C 20 %
4153 26-04-2020 21:03:18 13.7 C 20 %
4154 26-04-2020 21:13:18 13.1 C 20 %
4155 26-04-2020 21:23:17 12.6 C 20 %
4156 26-04-2020 21:33:18 12.4 C 20 %
4157 26-04-2020 21:43:18 12.1 C 20 %
4158 26-04-2020 21:53:17 11.6 C 23 %
4159 26-04-2020 22:03:17 11.3 C 25 %
4160 26-04-2020 22:13:17 10.9 C 26 %
4161 26-04-2020 22:23:18 10.7 C 26 %
4162 26-04-2020 22:33:17 10.5 C 26 %
4163 26-04-2020 22:43:17 9.9 C 28 %
4164 26-04-2020 22:53:17 9.6 C 29 %
4165 26-04-2020 23:03:17 9.2 C 29 %
4166 26-04-2020 23:13:17 9 C 30 %
4167 26-04-2020 23:23:17 8.9 C 30 %
4168 26-04-2020 23:33:18 8.8 C 30 %
4169 26-04-2020 23:43:18 8.7 C 30 %
4170 26-04-2020 23:53:17 8.5 C 30 %
Sensor: Nr:Datum:Temp:Feuchte:
G-T/H 1 29-03-2020 00:00:18 10.9 C 62 %
2 29-03-2020 00:10:18 10.9 C 62 %
3 29-03-2020 00:20:17 10.9 C 62 %
4 29-03-2020 00:30:17 10.9 C 62 %
5 29-03-2020 00:40:17 10.9 C 62 %
6 29-03-2020 00:50:18 10.9 C 62 %
7 29-03-2020 01:00:18 10.9 C 62 %
8 29-03-2020 01:10:18 10.9 C 62 %
9 29-03-2020 01:20:17 10.8 C 62 %
10 29-03-2020 01:30:17 10.8 C 62 %
11 29-03-2020 01:40:17 10.8 C 62 %
12 29-03-2020 01:50:17 10.8 C 62 %
13 29-03-2020 02:00:17 10.8 C 62 %
14 29-03-2020 02:10:17 10.8 C 62 %
15 29-03-2020 02:20:18 10.8 C 62 %
16 29-03-2020 02:30:18 10.8 C 62 %
17 29-03-2020 02:40:18 10.7 C 62 %
18 29-03-2020 02:50:18 10.7 C 62 %
19 29-03-2020 04:00:18 10.7 C 62 %
20 29-03-2020 04:10:18 10.7 C 62 %
21 29-03-2020 04:20:17 10.7 C 61 %
22 29-03-2020 04:30:17 10.6 C 61 %
23 29-03-2020 04:40:17 10.6 C 61 %
24 29-03-2020 04:50:18 10.6 C 61 %
25 29-03-2020 05:00:17 10.6 C 61 %
Sensor: Nr:Datum:Temp:Feuchte:
G-T/H 26 29-03-2020 05:10:17 10.5 C 60 %
27 29-03-2020 05:20:17 10.5 C 60 %
28 29-03-2020 05:30:17 10.5 C 60 %
29 29-03-2020 05:40:17 10.5 C 60 %
30 29-03-2020 05:50:18 10.5 C 60 %
31 29-03-2020 06:00:18 10.5 C 60 %
32 29-03-2020 06:10:18 10.5 C 60 %
33 29-03-2020 06:20:17 10.5 C 60 %
34 29-03-2020 06:30:18 10.4 C 60 %
35 29-03-2020 06:40:18 10.4 C 60 %
36 29-03-2020 06:50:17 10.4 C 60 %
37 29-03-2020 07:00:18 10.4 C 60 %
38 29-03-2020 07:10:18 10.4 C 60 %
39 29-03-2020 07:20:17 10.4 C 60 %
40 29-03-2020 07:30:17 10.4 C 60 %
41 29-03-2020 07:40:17 10.3 C 61 %
42 29-03-2020 07:50:17 10.4 C 61 %
43 29-03-2020 08:00:18 10.3 C 61 %
44 29-03-2020 08:10:18 10.3 C 61 %
45 29-03-2020 08:20:17 10.3 C 60 %
46 29-03-2020 08:30:17 10.2 C 60 %
47 29-03-2020 08:40:17 10.2 C 60 %
48 29-03-2020 08:50:17 10.2 C 60 %
49 29-03-2020 09:00:17 10.2 C 60 %
50 29-03-2020 09:10:17 10.2 C 60 %
Sensor: Nr:Datum:Temp:Feuchte:
G-T/H 51 29-03-2020 09:20:17 10.2 C 60 %
52 29-03-2020 09:30:17 10.2 C 60 %
53 29-03-2020 09:40:17 10.2 C 60 %
54 29-03-2020 09:50:17 10.2 C 60 %
55 29-03-2020 10:00:17 10.1 C 60 %
56 29-03-2020 10:10:17 10.1 C 60 %
57 29-03-2020 10:20:17 10.1 C 60 %
58 29-03-2020 10:30:18 10.1 C 60 %
59 29-03-2020 10:40:18 10.1 C 60 %
60 29-03-2020 10:50:17 10.1 C 60 %
61 29-03-2020 11:00:18 10.1 C 60 %
62 29-03-2020 11:10:18 10.1 C 60 %
63 29-03-2020 11:20:18 10 C 60 %
64 29-03-2020 11:30:18 10 C 60 %
65 29-03-2020 11:40:18 10 C 60 %
66 29-03-2020 11:50:17 10 C 60 %
67 29-03-2020 12:00:17 10 C 60 %
68 29-03-2020 12:10:17 10 C 60 %
69 29-03-2020 12:20:17 10 C 60 %
70 29-03-2020 12:30:17 10 C 60 %
71 29-03-2020 12:40:17 10 C 60 %
72 29-03-2020 12:50:18 10 C 59 %
73 29-03-2020 13:00:18 10 C 59 %
74 29-03-2020 13:10:18 9.9 C 60 %
75 29-03-2020 13:20:17 9.9 C 60 %
Sensor: Nr:Datum:Temp:Feuchte:
G-T/H 76 29-03-2020 13:30:17 9.9 C 60 %
77 29-03-2020 13:40:18 9.9 C 60 %
78 29-03-2020 13:50:17 9.9 C 60 %
79 29-03-2020 14:00:18 9.9 C 60 %
80 29-03-2020 14:10:18 9.9 C 60 %
81 29-03-2020 14:20:17 9.9 C 60 %
82 29-03-2020 14:30:17 9.9 C 60 %
83 29-03-2020 14:40:17 9.9 C 60 %
84 29-03-2020 14:50:17 9.9 C 60 %
85 29-03-2020 15:00:17 9.9 C 60 %
86 29-03-2020 15:10:17 9.9 C 60 %
87 29-03-2020 15:20:17 9.9 C 60 %
88 29-03-2020 15:30:18 9.9 C 60 %
89 29-03-2020 15:40:18 9.9 C 60 %
90 29-03-2020 15:50:17 9.9 C 60 %
91 29-03-2020 16:00:18 9.9 C 60 %
92 29-03-2020 16:10:18 9.9 C 60 %
93 29-03-2020 16:20:17 9.9 C 60 %
94 29-03-2020 16:30:18 9.9 C 60 %
95 29-03-2020 16:40:18 9.9 C 60 %
96 29-03-2020 16:50:18 9.9 C 60 %
97 29-03-2020 17:00:18 9.9 C 60 %
98 29-03-2020 17:10:18 9.9 C 60 %
99 29-03-2020 17:20:17 9.9 C 60 %
100 29-03-2020 17:30:17 9.9 C 60 %
Sensor: Nr:Datum:Temp:Feuchte:
G-T/H 101 29-03-2020 17:40:17 9.9 C 60 %
102 29-03-2020 17:50:18 9.9 C 60 %
103 29-03-2020 18:00:18 9.9 C 60 %
104 29-03-2020 18:10:18 9.9 C 60 %
105 29-03-2020 18:20:18 9.9 C 60 %
106 29-03-2020 18:30:18 9.9 C 60 %
107 29-03-2020 18:40:18 9.9 C 60 %
108 29-03-2020 18:50:18 9.9 C 60 %
109 29-03-2020 19:00:18 9.9 C 60 %
110 29-03-2020 19:10:18 9.9 C 60 %
111 29-03-2020 19:20:17 9.9 C 60 %
112 29-03-2020 19:30:17 9.9 C 60 %
113 29-03-2020 19:40:17 9.9 C 60 %
114 29-03-2020 19:50:17 9.9 C 60 %
115 29-03-2020 20:00:17 9.8 C 60 %
116 29-03-2020 20:10:17 9.8 C 61 %
117 29-03-2020 20:20:18 9.8 C 61 %
118 29-03-2020 20:30:18 9.8 C 61 %
119 29-03-2020 20:40:18 9.8 C 61 %
120 29-03-2020 20:50:18 9.8 C 61 %
121 29-03-2020 21:00:18 9.8 C 61 %
122 29-03-2020 21:10:18 9.8 C 61 %
123 29-03-2020 21:20:18 9.8 C 61 %
124 29-03-2020 21:30:17 9.8 C 61 %
125 29-03-2020 21:40:17 9.8 C 62 %
Sensor: Nr:Datum:Temp:Feuchte:
G-T/H 126 29-03-2020 21:50:17 9.8 C 62 %
127 29-03-2020 22:00:17 9.8 C 62 %
128 29-03-2020 22:10:17 9.8 C 62 %
129 29-03-2020 22:20:18 9.8 C 61 %
130 29-03-2020 22:30:18 9.7 C 61 %
131 29-03-2020 22:40:18 9.7 C 61 %
132 29-03-2020 22:50:18 9.7 C 61 %
133 29-03-2020 23:00:18 9.7 C 61 %
134 29-03-2020 23:10:18 9.7 C 61 %
135 29-03-2020 23:20:17 9.7 C 61 %
136 29-03-2020 23:30:17 9.7 C 61 %
137 29-03-2020 23:40:17 9.6 C 61 %
138 29-03-2020 23:50:17 9.6 C 61 %
139 30-03-2020 00:00:18 9.6 C 61 %
140 30-03-2020 00:10:18 9.6 C 60 %
141 30-03-2020 00:20:17 9.6 C 60 %
142 30-03-2020 00:30:17 9.6 C 60 %
143 30-03-2020 00:40:17 9.6 C 60 %
144 30-03-2020 00:50:17 9.5 C 60 %
145 30-03-2020 01:00:18 9.5 C 60 %
146 30-03-2020 01:10:18 9.5 C 61 %
147 30-03-2020 01:20:17 9.5 C 61 %
148 30-03-2020 01:30:18 9.5 C 61 %
149 30-03-2020 01:40:18 9.5 C 61 %
150 30-03-2020 01:50:17 9.4 C 61 %
Sensor: Nr:Datum:Temp:Feuchte:
G-T/H 151 30-03-2020 02:00:17 9.4 C 61 %
152 30-03-2020 02:10:17 9.4 C 61 %
153 30-03-2020 02:20:17 9.4 C 61 %
154 30-03-2020 02:30:18 9.4 C 61 %
155 30-03-2020 02:40:18 9.3 C 61 %
156 30-03-2020 02:50:17 9.3 C 61 %
157 30-03-2020 03:00:18 9.3 C 61 %
158 30-03-2020 03:10:18 9.3 C 61 %
159 30-03-2020 03:20:18 9.3 C 61 %
160 30-03-2020 03:30:18 9.3 C 61 %
161 30-03-2020 03:40:18 9.2 C 61 %
162 30-03-2020 03:50:17 9.2 C 61 %
163 30-03-2020 04:00:18 9.2 C 61 %
164 30-03-2020 04:10:18 9.1 C 61 %
165 30-03-2020 04:20:17 9.2 C 60 %
166 30-03-2020 04:30:17 9.2 C 60 %
167 30-03-2020 04:40:17 9.1 C 60 %
168 30-03-2020 04:50:17 9.1 C 60 %
169 30-03-2020 05:00:17 9 C 60 %
170 30-03-2020 05:10:17 9 C 60 %
171 30-03-2020 05:20:17 9 C 60 %
172 30-03-2020 05:30:18 9 C 60 %
173 30-03-2020 05:40:18 9 C 60 %
174 30-03-2020 05:50:17 9 C 60 %
175 30-03-2020 06:00:18 8.9 C 61 %
Sensor: Nr:Datum:Temp:Feuchte:
G-T/H 176 30-03-2020 06:10:18 8.9 C 61 %
177 30-03-2020 06:20:17 8.9 C 61 %
178 30-03-2020 06:30:17 8.8 C 61 %
179 30-03-2020 06:40:17 8.9 C 61 %
180 30-03-2020 06:50:17 8.8 C 61 %
181 30-03-2020 07:00:17 8.7 C 61 %
182 30-03-2020 07:10:17 8.7 C 61 %
183 30-03-2020 07:20:17 8.7 C 61 %
184 30-03-2020 07:30:18 8.7 C 60 %
185 30-03-2020 07:40:18 8.7 C 60 %
186 30-03-2020 07:50:17 8.7 C 60 %
187 30-03-2020 08:00:18 8.6 C 60 %
188 30-03-2020 08:10:18 8.6 C 60 %
189 30-03-2020 08:20:18 8.6 C 60 %
190 30-03-2020 08:30:18 8.5 C 60 %
191 30-03-2020 08:40:18 8.5 C 60 %
192 30-03-2020 08:50:17 8.5 C 60 %
193 30-03-2020 09:00:18 8.5 C 60 %
194 30-03-2020 09:10:18 8.5 C 60 %
195 30-03-2020 09:20:18 8.5 C 60 %
196 30-03-2020 09:30:18 8.5 C 60 %
197 30-03-2020 09:40:18 8.4 C 60 %
198 30-03-2020 09:50:18 8.4 C 60 %
199 30-03-2020 10:00:18 8.4 C 60 %
200 30-03-2020 10:10:18 8.4 C 60 %
Sensor: Nr:Datum:Temp:Feuchte:
G-T/H 201 30-03-2020 10:20:17 8.3 C 60 %
202 30-03-2020 10:30:17 8.3 C 60 %
203 30-03-2020 10:40:17 8.3 C 60 %
204 30-03-2020 10:50:17 8.3 C 60 %
205 30-03-2020 11:00:17 8.3 C 60 %
206 30-03-2020 11:10:18 8.3 C 60 %
207 30-03-2020 11:20:18 8.2 C 60 %
208 30-03-2020 11:30:18 8.2 C 60 %
209 30-03-2020 11:40:18 8.2 C 60 %
210 30-03-2020 11:50:18 8.2 C 60 %
211 30-03-2020 12:00:18 8.2 C 60 %
212 30-03-2020 12:10:18 8.2 C 60 %
213 30-03-2020 12:20:18 8.2 C 60 %
214 30-03-2020 12:30:18 8.2 C 60 %
215 30-03-2020 12:40:18 8.2 C 60 %
216 30-03-2020 12:50:18 8.2 C 60 %
217 30-03-2020 13:00:18 8.1 C 60 %
218 30-03-2020 13:10:18 8.2 C 60 %
219 30-03-2020 13:20:18 7.9 C 52 %
220 30-03-2020 13:30:17 8 C 50 %
221 30-03-2020 13:40:17 8 C 50 %
222 30-03-2020 13:50:17 8 C 51 %
223 30-03-2020 14:00:17 8 C 52 %
224 30-03-2020 14:10:17 8.1 C 53 %
225 30-03-2020 14:20:18 8.1 C 54 %
Sensor: Nr:Datum:Temp:Feuchte:
G-T/H 226 30-03-2020 14:30:18 8.1 C 54 %
227 30-03-2020 14:40:18 8.1 C 55 %
228 30-03-2020 14:50:18 8.1 C 55 %
229 30-03-2020 15:00:18 8.1 C 56 %
230 30-03-2020 15:10:18 8.1 C 56 %
231 30-03-2020 15:20:17 8.2 C 56 %
232 30-03-2020 15:30:18 8.2 C 56 %
233 30-03-2020 15:40:18 8.2 C 57 %
234 30-03-2020 15:50:18 8.2 C 57 %
235 30-03-2020 16:00:18 8.2 C 57 %
236 30-03-2020 16:10:18 8.3 C 57 %
237 30-03-2020 16:20:17 8.3 C 57 %
238 30-03-2020 16:30:18 8.3 C 58 %
239 30-03-2020 16:40:18 8.3 C 58 %
240 30-03-2020 16:50:18 8.3 C 58 %
241 30-03-2020 17:00:17 8.3 C 58 %
242 30-03-2020 17:10:17 8.3 C 58 %
243 30-03-2020 17:20:18 8.4 C 58 %
244 30-03-2020 17:30:18 8.4 C 58 %
245 30-03-2020 17:40:18 8.4 C 58 %
246 30-03-2020 17:50:18 8.4 C 58 %
247 30-03-2020 18:00:18 8.4 C 59 %
248 30-03-2020 18:10:18 8.4 C 59 %
249 30-03-2020 18:20:18 8.4 C 59 %
250 30-03-2020 18:30:18 8.5 C 59 %
Sensor: Nr:Datum:Temp:Feuchte:
G-T/H 251 30-03-2020 18:40:18 8.4 C 59 %
252 30-03-2020 18:50:18 8.4 C 59 %
253 30-03-2020 19:00:18 8.4 C 60 %
254 30-03-2020 19:10:18 8.5 C 60 %
255 30-03-2020 19:20:17 8.5 C 60 %
256 30-03-2020 19:30:18 8.5 C 60 %
257 30-03-2020 19:40:18 8.5 C 60 %
258 30-03-2020 19:50:17 8.5 C 60 %
259 30-03-2020 20:00:18 8.5 C 60 %
260 30-03-2020 20:10:18 8.5 C 60 %
261 30-03-2020 20:20:17 8.5 C 61 %
262 30-03-2020 20:30:18 8.5 C 61 %
263 30-03-2020 20:40:18 8.5 C 61 %
264 30-03-2020 20:50:18 8.5 C 61 %
265 30-03-2020 21:00:18 8.5 C 61 %
266 30-03-2020 21:10:18 8.5 C 61 %
267 30-03-2020 21:20:18 8.5 C 61 %
268 30-03-2020 21:30:18 8.5 C 61 %
269 30-03-2020 21:40:18 8.5 C 61 %
270 30-03-2020 21:50:18 8.5 C 61 %
271 30-03-2020 22:00:18 8.5 C 62 %
272 30-03-2020 22:10:18 8.5 C 62 %
273 30-03-2020 22:20:17 8.5 C 62 %
274 30-03-2020 22:30:18 8.5 C 62 %
275 30-03-2020 22:40:18 8.5 C 62 %
Sensor: Nr:Datum:Temp:Feuchte:
G-T/H 276 30-03-2020 22:50:18 8.5 C 62 %
277 30-03-2020 23:00:18 8.5 C 62 %
278 30-03-2020 23:10:18 8.5 C 62 %
279 30-03-2020 23:20:18 8.5 C 62 %
280 30-03-2020 23:30:18 8.6 C 62 %
281 30-03-2020 23:40:18 8.5 C 62 %
282 30-03-2020 23:50:17 8.5 C 62 %
283 31-03-2020 00:00:18 8.5 C 62 %
284 31-03-2020 00:10:18 8.5 C 62 %
285 31-03-2020 00:20:18 8.5 C 62 %
286 31-03-2020 00:30:18 8.5 C 63 %
287 31-03-2020 00:40:18 8.6 C 63 %
288 31-03-2020 00:50:18 8.5 C 63 %
289 31-03-2020 01:00:18 8.5 C 63 %
290 31-03-2020 01:10:18 8.5 C 63 %
291 31-03-2020 01:20:18 8.6 C 63 %
292 31-03-2020 01:30:18 8.5 C 63 %
293 31-03-2020 01:40:18 8.6 C 63 %
294 31-03-2020 01:50:18 8.5 C 63 %
295 31-03-2020 02:00:18 8.5 C 63 %
296 31-03-2020 02:10:18 8.5 C 63 %
297 31-03-2020 02:20:17 8.5 C 63 %
298 31-03-2020 02:30:18 8.5 C 63 %
299 31-03-2020 02:40:18 8.5 C 63 %
300 31-03-2020 02:50:18 8.5 C 63 %
Sensor: Nr:Datum:Temp:Feuchte:
G-T/H 301 31-03-2020 03:00:18 8.5 C 64 %
302 31-03-2020 03:10:18 8.5 C 64 %
303 31-03-2020 03:20:17 8.5 C 64 %
304 31-03-2020 03:30:18 8.5 C 64 %
305 31-03-2020 03:40:18 8.5 C 64 %
306 31-03-2020 03:50:18 8.5 C 64 %
307 31-03-2020 04:00:18 8.5 C 64 %
308 31-03-2020 04:10:18 8.5 C 64 %
309 31-03-2020 04:20:18 8.5 C 64 %
310 31-03-2020 04:30:17 8.5 C 64 %
311 31-03-2020 04:40:18 8.5 C 64 %
312 31-03-2020 04:50:17 8.5 C 64 %
313 31-03-2020 05:00:18 8.5 C 64 %
314 31-03-2020 05:10:18 8.5 C 64 %
315 31-03-2020 05:20:17 8.5 C 64 %
316 31-03-2020 05:30:18 8.5 C 64 %
317 31-03-2020 05:40:18 8.5 C 64 %
318 31-03-2020 05:50:18 8.5 C 64 %
319 31-03-2020 06:00:18 8.5 C 64 %
320 31-03-2020 06:10:18 8.5 C 64 %
321 31-03-2020 06:20:18 8.5 C 64 %
322 31-03-2020 06:30:18 8.4 C 64 %
323 31-03-2020 06:40:18 8.5 C 64 %
324 31-03-2020 06:50:18 8.4 C 64 %
325 31-03-2020 07:00:18 8.5 C 64 %
Sensor: Nr:Datum:Temp:Feuchte:
G-T/H 326 31-03-2020 07:10:18 8.4 C 64 %
327 31-03-2020 07:20:18 8.4 C 64 %
328 31-03-2020 07:30:18 8.4 C 64 %
329 31-03-2020 07:40:18 8.4 C 65 %
330 31-03-2020 07:50:17 8.4 C 65 %
331 31-03-2020 08:00:18 8.4 C 65 %
332 31-03-2020 08:10:18 8.4 C 65 %
333 31-03-2020 08:20:18 8.4 C 65 %
334 31-03-2020 08:30:18 8.4 C 65 %
335 31-03-2020 08:40:18 8.4 C 65 %
336 31-03-2020 08:50:17 8.4 C 65 %
337 31-03-2020 09:00:18 8.4 C 65 %
338 31-03-2020 09:10:18 8.4 C 65 %
339 31-03-2020 09:20:18 8.4 C 65 %
340 31-03-2020 09:30:17 8.4 C 65 %
341 31-03-2020 09:40:17 8.4 C 65 %
342 31-03-2020 09:50:18 8.4 C 65 %
343 31-03-2020 10:00:18 8.4 C 65 %
344 31-03-2020 10:10:18 8.4 C 65 %
345 31-03-2020 10:20:18 8.4 C 65 %
346 31-03-2020 10:30:18 8.4 C 65 %
347 31-03-2020 10:40:18 8.4 C 64 %
348 31-03-2020 10:50:17 8.4 C 64 %
349 31-03-2020 11:00:17 8.4 C 64 %
350 31-03-2020 11:10:17 8.4 C 64 %
Sensor: Nr:Datum:Temp:Feuchte:
G-T/H 351 31-03-2020 11:20:18 8.4 C 64 %
352 31-03-2020 11:30:18 8.4 C 64 %
353 31-03-2020 11:40:18 8.4 C 64 %
354 31-03-2020 11:50:17 8.4 C 64 %
355 31-03-2020 12:00:18 8.4 C 64 %
356 31-03-2020 12:10:18 8.4 C 64 %
357 31-03-2020 12:20:17 8.4 C 64 %
358 31-03-2020 12:30:18 8.4 C 64 %
359 31-03-2020 12:40:18 8.5 C 64 %
360 31-03-2020 12:50:18 8.5 C 64 %
361 31-03-2020 13:00:17 8.5 C 64 %
362 31-03-2020 13:10:17 8.5 C 64 %
363 31-03-2020 13:20:17 8.5 C 63 %
364 31-03-2020 13:30:17 8.5 C 63 %
365 31-03-2020 13:40:17 8.4 C 63 %
366 31-03-2020 13:51:17 8.5 C 63 %
367 31-03-2020 14:00:17 8.5 C 63 %
368 31-03-2020 14:10:17 8.5 C 63 %
369 31-03-2020 14:20:17 8.5 C 63 %
370 31-03-2020 14:30:17 8.5 C 63 %
371 31-03-2020 14:40:17 8.5 C 63 %
372 31-03-2020 14:51:17 8.6 C 63 %
373 31-03-2020 15:00:17 8.6 C 63 %
374 31-03-2020 15:10:18 8.6 C 63 %
375 31-03-2020 15:20:17 8.6 C 63 %
Sensor: Nr:Datum:Temp:Feuchte:
G-T/H 376 31-03-2020 15:30:17 8.6 C 63 %
377 31-03-2020 15:40:17 8.6 C 63 %
378 31-03-2020 15:50:18 8.6 C 63 %
379 31-03-2020 16:00:17 8.6 C 63 %
380 31-03-2020 16:10:17 8.6 C 63 %
381 31-03-2020 16:20:17 8.6 C 63 %
382 31-03-2020 16:31:17 8.7 C 63 %
383 31-03-2020 16:40:17 8.7 C 63 %
384 31-03-2020 16:50:17 8.7 C 63 %
385 31-03-2020 17:00:17 8.7 C 63 %
386 31-03-2020 17:10:17 8.7 C 63 %
387 31-03-2020 17:21:17 8.7 C 63 %
388 31-03-2020 17:31:17 8.8 C 63 %
389 31-03-2020 17:40:17 8.8 C 63 %
390 31-03-2020 17:51:17 8.8 C 62 %
391 31-03-2020 18:01:17 8.8 C 59 %
392 31-03-2020 18:11:17 8.8 C 56 %
393 31-03-2020 18:21:17 8.8 C 56 %
394 31-03-2020 18:31:17 8.8 C 56 %
395 31-03-2020 18:40:17 8.8 C 56 %
396 31-03-2020 18:51:17 8.8 C 57 %
397 31-03-2020 19:00:17 8.8 C 58 %
398 31-03-2020 19:10:17 8.9 C 58 %
399 31-03-2020 19:20:17 8.8 C 58 %
400 31-03-2020 19:31:17 8.9 C 59 %
Sensor: Nr:Datum:Temp:Feuchte:
G-T/H 401 31-03-2020 19:41:17 8.9 C 59 %
402 31-03-2020 19:50:17 8.9 C 59 %
403 31-03-2020 20:01:17 8.9 C 60 %
404 31-03-2020 20:11:17 8.9 C 60 %
405 31-03-2020 20:21:17 8.9 C 60 %
406 31-03-2020 20:31:17 8.9 C 61 %
407 31-03-2020 20:41:17 8.9 C 61 %
408 31-03-2020 20:51:17 8.9 C 61 %
409 31-03-2020 21:00:17 8.9 C 61 %
410 31-03-2020 21:10:18 8.9 C 61 %
411 31-03-2020 21:21:17 8.8 C 61 %
412 31-03-2020 21:31:17 8.9 C 61 %
413 31-03-2020 21:41:17 8.9 C 62 %
414 31-03-2020 21:51:17 8.9 C 62 %
415 31-03-2020 22:00:18 8.9 C 62 %
416 31-03-2020 22:10:18 8.8 C 62 %
417 31-03-2020 22:21:17 8.8 C 62 %
418 31-03-2020 22:31:17 8.8 C 62 %
419 31-03-2020 22:41:17 8.8 C 62 %
420 31-03-2020 22:50:18 8.8 C 62 %
421 31-03-2020 23:01:17 8.8 C 62 %
422 31-03-2020 23:11:17 8.8 C 62 %
423 31-03-2020 23:21:17 8.8 C 62 %
424 31-03-2020 23:30:17 8.8 C 62 %
425 31-03-2020 23:40:18 8.8 C 62 %
Sensor: Nr:Datum:Temp:Feuchte:
G-T/H 426 31-03-2020 23:51:17 8.8 C 62 %
427 01-04-2020 00:01:17 8.8 C 62 %
428 01-04-2020 00:11:17 8.8 C 62 %
429 01-04-2020 00:21:17 8.8 C 62 %
430 01-04-2020 00:31:17 8.7 C 62 %
431 01-04-2020 00:41:17 8.7 C 62 %
432 01-04-2020 00:51:17 8.7 C 62 %
433 01-04-2020 01:01:17 8.7 C 62 %
434 01-04-2020 01:11:17 8.7 C 62 %
435 01-04-2020 01:21:17 8.7 C 62 %
436 01-04-2020 01:30:18 8.7 C 62 %
437 01-04-2020 01:40:18 8.7 C 62 %
438 01-04-2020 01:51:17 8.6 C 62 %
439 01-04-2020 02:01:17 8.6 C 62 %
440 01-04-2020 02:11:17 8.6 C 62 %
441 01-04-2020 02:21:17 8.6 C 62 %
442 01-04-2020 02:31:17 8.6 C 62 %
443 01-04-2020 02:41:17 8.6 C 62 %
444 01-04-2020 02:50:18 8.6 C 62 %
445 01-04-2020 03:01:17 8.5 C 62 %
446 01-04-2020 03:11:17 8.5 C 62 %
447 01-04-2020 03:21:17 8.5 C 62 %
448 01-04-2020 03:31:17 8.5 C 62 %
449 01-04-2020 03:41:18 8.5 C 62 %
450 01-04-2020 03:51:17 8.5 C 62 %
Sensor: Nr:Datum:Temp:Feuchte:
G-T/H 451 01-04-2020 04:01:17 8.5 C 62 %
452 01-04-2020 04:11:17 8.4 C 62 %
453 01-04-2020 04:21:17 8.4 C 62 %
454 01-04-2020 04:31:18 8.4 C 62 %
455 01-04-2020 04:41:19 8.4 C 62 %
456 01-04-2020 04:51:17 8.4 C 62 %
457 01-04-2020 05:01:18 8.3 C 61 %
458 01-04-2020 05:11:19 8.3 C 61 %
459 01-04-2020 05:21:17 8.3 C 61 %
460 01-04-2020 05:31:18 8.3 C 61 %
461 01-04-2020 05:41:18 8.3 C 61 %
462 01-04-2020 05:51:17 8.2 C 61 %
463 01-04-2020 06:01:18 8.2 C 61 %
464 01-04-2020 06:11:18 8.2 C 61 %
465 01-04-2020 06:21:17 8.2 C 61 %
466 01-04-2020 06:31:17 8.1 C 61 %
467 01-04-2020 06:41:17 8.1 C 61 %
468 01-04-2020 06:51:17 8.1 C 61 %
469 01-04-2020 07:01:18 8.1 C 61 %
470 01-04-2020 07:11:19 8.1 C 61 %
471 01-04-2020 07:21:17 8.1 C 61 %
472 01-04-2020 07:31:18 8 C 61 %
473 01-04-2020 07:41:18 8 C 61 %
474 01-04-2020 07:51:17 8 C 61 %
475 01-04-2020 08:01:17 8 C 61 %
Sensor: Nr:Datum:Temp:Feuchte:
G-T/H 476 01-04-2020 08:11:17 8 C 61 %
477 01-04-2020 08:21:17 7.9 C 62 %
478 01-04-2020 08:31:17 7.9 C 62 %
479 01-04-2020 08:41:17 7.9 C 62 %
480 01-04-2020 08:51:17 7.9 C 62 %
481 01-04-2020 09:01:17 7.9 C 62 %
482 01-04-2020 09:11:17 7.9 C 62 %
483 01-04-2020 09:21:17 7.9 C 62 %
484 01-04-2020 09:31:17 7.8 C 62 %
485 01-04-2020 09:41:17 7.8 C 62 %
486 01-04-2020 09:51:17 7.8 C 62 %
487 01-04-2020 10:01:17 7.8 C